<?xml version="1.0" encoding="UTF-8" standalone="no" ?>
<gpx xmlns="http://www.topografix.com/GPX/1/1" xmlns:xsi="http://www.w3.org/2001/XMLSchema-instance" xsi:schemaLocation="http://www.topografix.com/GPX/1/1 http://www.topografix.com/GPX/1/1/gpx.xsd" version="1.1" creator="VisuGPX - https://www.visugpx.com">
  <metadata>
    <name>Raid du Castor Grand parcours 2014</name>
    <desc><![CDATA[Tracé du grand parcours du raid du castor, canoë   VTT   Bike and Run   VTT   CO à pied   VTT.
]]></desc>
  </metadata>
  <trk>
    <name><![CDATA[Move]]></name>
    <trkseg>
      <trkpt lat="45.8004" lon="4.9401">
        <ele>180</ele>
        <time>2014-10-12T08:02:18.000Z</time>
      </trkpt>
      <trkpt lat="45.8004" lon="4.94009">
        <ele>180</ele>
        <time>2014-10-12T08:02:18.290Z</time>
      </trkpt>
      <trkpt lat="45.80043" lon="4.93993">
        <ele>180</ele>
        <time>2014-10-12T08:02:26.660Z</time>
      </trkpt>
      <trkpt lat="45.80047" lon="4.93985">
        <ele>180</ele>
        <time>2014-10-12T08:02:34.660Z</time>
      </trkpt>
      <trkpt lat="45.80064" lon="4.93946">
        <ele>179</ele>
        <time>2014-10-12T08:04:08.190Z</time>
      </trkpt>
      <trkpt lat="45.80064" lon="4.93962">
        <ele>179</ele>
        <time>2014-10-12T08:04:32.660Z</time>
      </trkpt>
      <trkpt lat="45.80058" lon="4.93976">
        <ele>179.948</ele>
        <time>2014-10-12T08:04:47.490Z</time>
      </trkpt>
      <trkpt lat="45.80082" lon="4.93957">
        <ele>180.92200064</ele>
        <time>2014-10-12T08:05:36.190Z</time>
      </trkpt>
      <trkpt lat="45.80121" lon="4.93954">
        <ele>179.46200064</ele>
        <time>2014-10-12T08:05:44.660Z</time>
      </trkpt>
      <trkpt lat="45.80153" lon="4.9401">
        <ele>177.28999808</ele>
        <time>2014-10-12T08:05:52.670Z</time>
      </trkpt>
      <trkpt lat="45.80171" lon="4.94069">
        <ele>175.65799936</ele>
        <time>2014-10-12T08:06:00.390Z</time>
      </trkpt>
      <trkpt lat="45.80182" lon="4.94118">
        <ele>175</ele>
        <time>2014-10-12T08:06:08.460Z</time>
      </trkpt>
      <trkpt lat="45.80189" lon="4.94161">
        <ele>175</ele>
        <time>2014-10-12T08:06:16.460Z</time>
      </trkpt>
      <trkpt lat="45.80182" lon="4.94171">
        <ele>173</ele>
        <time>2014-10-12T08:06:44.460Z</time>
      </trkpt>
      <trkpt lat="45.80188" lon="4.94142">
        <ele>174.09800192</ele>
        <time>2014-10-12T08:06:52.460Z</time>
      </trkpt>
      <trkpt lat="45.80192" lon="4.94121">
        <ele>174.26200064</ele>
        <time>2014-10-12T08:07:00.660Z</time>
      </trkpt>
      <trkpt lat="45.80199" lon="4.94109">
        <ele>173</ele>
        <time>2014-10-12T08:07:24.200Z</time>
      </trkpt>
      <trkpt lat="45.80203" lon="4.94087">
        <ele>173</ele>
        <time>2014-10-12T08:07:32.460Z</time>
      </trkpt>
      <trkpt lat="45.80214" lon="4.94065">
        <ele>173</ele>
        <time>2014-10-12T08:07:40.460Z</time>
      </trkpt>
      <trkpt lat="45.80225" lon="4.94036">
        <ele>172.85099904</ele>
        <time>2014-10-12T08:07:48.460Z</time>
      </trkpt>
      <trkpt lat="45.80234" lon="4.94014">
        <ele>172.05099904</ele>
        <time>2014-10-12T08:07:56.460Z</time>
      </trkpt>
      <trkpt lat="45.80238" lon="4.93993">
        <ele>173.49650589299</ele>
        <time>2014-10-12T08:08:04.460Z</time>
      </trkpt>
      <trkpt lat="45.80244" lon="4.93973">
        <ele>174</ele>
        <time>2014-10-12T08:08:12.460Z</time>
      </trkpt>
      <trkpt lat="45.80243" lon="4.93946">
        <ele>173.65099904</ele>
        <time>2014-10-12T08:08:20.460Z</time>
      </trkpt>
      <trkpt lat="45.80246" lon="4.93925">
        <ele>173.14900096</ele>
        <time>2014-10-12T08:08:28.460Z</time>
      </trkpt>
      <trkpt lat="45.80249" lon="4.93902">
        <ele>173.96899968</ele>
        <time>2014-10-12T08:08:36.660Z</time>
      </trkpt>
      <trkpt lat="45.80253" lon="4.93882">
        <ele>174</ele>
        <time>2014-10-12T08:08:44.660Z</time>
      </trkpt>
      <trkpt lat="45.80264" lon="4.93848">
        <ele>174</ele>
        <time>2014-10-12T08:08:56.460Z</time>
      </trkpt>
      <trkpt lat="45.80269" lon="4.93825">
        <ele>173.23100032</ele>
        <time>2014-10-12T08:09:04.660Z</time>
      </trkpt>
      <trkpt lat="45.80273" lon="4.93804">
        <ele>174.13799936</ele>
        <time>2014-10-12T08:09:12.660Z</time>
      </trkpt>
      <trkpt lat="45.80279" lon="4.93787">
        <ele>175</ele>
        <time>2014-10-12T08:09:20.660Z</time>
      </trkpt>
      <trkpt lat="45.80284" lon="4.9377">
        <ele>174.85099904</ele>
        <time>2014-10-12T08:09:28.460Z</time>
      </trkpt>
      <trkpt lat="45.8029" lon="4.93748">
        <ele>174.05099904</ele>
        <time>2014-10-12T08:09:36.460Z</time>
      </trkpt>
      <trkpt lat="45.803" lon="4.93709">
        <ele>174</ele>
        <time>2014-10-12T08:09:48.460Z</time>
      </trkpt>
      <trkpt lat="45.80308" lon="4.93677">
        <ele>174.34900096</ele>
        <time>2014-10-12T08:10:00.460Z</time>
      </trkpt>
      <trkpt lat="45.80311" lon="4.93657">
        <ele>175</ele>
        <time>2014-10-12T08:10:08.460Z</time>
      </trkpt>
      <trkpt lat="45.80318" lon="4.93638">
        <ele>175</ele>
        <time>2014-10-12T08:10:16.660Z</time>
      </trkpt>
      <trkpt lat="45.80326" lon="4.93658">
        <ele>175</ele>
        <time>2014-10-12T08:10:56.660Z</time>
      </trkpt>
      <trkpt lat="45.80339" lon="4.93675">
        <ele>175.76899968</ele>
        <time>2014-10-12T08:11:04.660Z</time>
      </trkpt>
      <trkpt lat="45.80343" lon="4.93695">
        <ele>176</ele>
        <time>2014-10-12T08:11:12.660Z</time>
      </trkpt>
      <trkpt lat="45.80355" lon="4.93713">
        <ele>176</ele>
        <time>2014-10-12T08:11:20.660Z</time>
      </trkpt>
      <trkpt lat="45.80365" lon="4.93731">
        <ele>176</ele>
        <time>2014-10-12T08:11:28.460Z</time>
      </trkpt>
      <trkpt lat="45.80382" lon="4.93737">
        <ele>176</ele>
        <time>2014-10-12T08:11:36.460Z</time>
      </trkpt>
      <trkpt lat="45.80393" lon="4.9375">
        <ele>176</ele>
        <time>2014-10-12T08:11:44.660Z</time>
      </trkpt>
      <trkpt lat="45.8041" lon="4.93776">
        <ele>176</ele>
        <time>2014-10-12T08:11:56.460Z</time>
      </trkpt>
      <trkpt lat="45.80421" lon="4.93795">
        <ele>176</ele>
        <time>2014-10-12T08:12:04.660Z</time>
      </trkpt>
      <trkpt lat="45.80433" lon="4.93811">
        <ele>176</ele>
        <time>2014-10-12T08:12:12.460Z</time>
      </trkpt>
      <trkpt lat="45.80446" lon="4.93835">
        <ele>176</ele>
        <time>2014-10-12T08:12:20.460Z</time>
      </trkpt>
      <trkpt lat="45.80457" lon="4.9385">
        <ele>176</ele>
        <time>2014-10-12T08:12:28.660Z</time>
      </trkpt>
      <trkpt lat="45.80463" lon="4.93867">
        <ele>176</ele>
        <time>2014-10-12T08:12:36.460Z</time>
      </trkpt>
      <trkpt lat="45.80475" lon="4.93881">
        <ele>176</ele>
        <time>2014-10-12T08:12:44.460Z</time>
      </trkpt>
      <trkpt lat="45.80485" lon="4.93904">
        <ele>176</ele>
        <time>2014-10-12T08:12:52.460Z</time>
      </trkpt>
      <trkpt lat="45.80495" lon="4.93923">
        <ele>176</ele>
        <time>2014-10-12T08:13:00.660Z</time>
      </trkpt>
      <trkpt lat="45.80505" lon="4.93939">
        <ele>176</ele>
        <time>2014-10-12T08:13:08.660Z</time>
      </trkpt>
      <trkpt lat="45.80515" lon="4.93955">
        <ele>176</ele>
        <time>2014-10-12T08:13:16.660Z</time>
      </trkpt>
      <trkpt lat="45.80521" lon="4.93972">
        <ele>176</ele>
        <time>2014-10-12T08:13:24.460Z</time>
      </trkpt>
      <trkpt lat="45.80534" lon="4.93994">
        <ele>176</ele>
        <time>2014-10-12T08:13:32.660Z</time>
      </trkpt>
      <trkpt lat="45.80547" lon="4.94012">
        <ele>176</ele>
        <time>2014-10-12T08:13:40.660Z</time>
      </trkpt>
      <trkpt lat="45.80561" lon="4.94033">
        <ele>176</ele>
        <time>2014-10-12T08:13:48.460Z</time>
      </trkpt>
      <trkpt lat="45.80575" lon="4.94058">
        <ele>176</ele>
        <time>2014-10-12T08:13:56.660Z</time>
      </trkpt>
      <trkpt lat="45.80587" lon="4.94077">
        <ele>176</ele>
        <time>2014-10-12T08:14:04.660Z</time>
      </trkpt>
      <trkpt lat="45.80597" lon="4.94094">
        <ele>176</ele>
        <time>2014-10-12T08:14:12.660Z</time>
      </trkpt>
      <trkpt lat="45.80606" lon="4.94106">
        <ele>176</ele>
        <time>2014-10-12T08:14:20.660Z</time>
      </trkpt>
      <trkpt lat="45.80614" lon="4.94124">
        <ele>176</ele>
        <time>2014-10-12T08:14:28.660Z</time>
      </trkpt>
      <trkpt lat="45.80621" lon="4.94142">
        <ele>176</ele>
        <time>2014-10-12T08:14:36.660Z</time>
      </trkpt>
      <trkpt lat="45.80632" lon="4.94159">
        <ele>175.23100032</ele>
        <time>2014-10-12T08:14:44.660Z</time>
      </trkpt>
      <trkpt lat="45.80639" lon="4.94178">
        <ele>175</ele>
        <time>2014-10-12T08:14:52.660Z</time>
      </trkpt>
      <trkpt lat="45.80654" lon="4.94192">
        <ele>175</ele>
        <time>2014-10-12T08:15:00.660Z</time>
      </trkpt>
      <trkpt lat="45.80666" lon="4.94205">
        <ele>175.16899968</ele>
        <time>2014-10-12T08:15:08.660Z</time>
      </trkpt>
      <trkpt lat="45.80675" lon="4.94222">
        <ele>175.96899968</ele>
        <time>2014-10-12T08:15:16.660Z</time>
      </trkpt>
      <trkpt lat="45.80685" lon="4.94238">
        <ele>176</ele>
        <time>2014-10-12T08:15:24.660Z</time>
      </trkpt>
      <trkpt lat="45.80694" lon="4.94267">
        <ele>176</ele>
        <time>2014-10-12T08:15:35.660Z</time>
      </trkpt>
      <trkpt lat="45.80705" lon="4.94283">
        <ele>176</ele>
        <time>2014-10-12T08:15:43.390Z</time>
      </trkpt>
      <trkpt lat="45.80713" lon="4.94303">
        <ele>176</ele>
        <time>2014-10-12T08:15:51.660Z</time>
      </trkpt>
      <trkpt lat="45.80729" lon="4.94317">
        <ele>175.73099904</ele>
        <time>2014-10-12T08:15:59.660Z</time>
      </trkpt>
      <trkpt lat="45.80735" lon="4.94333">
        <ele>175</ele>
        <time>2014-10-12T08:16:07.660Z</time>
      </trkpt>
      <trkpt lat="45.80745" lon="4.94359">
        <ele>175</ele>
        <time>2014-10-12T08:16:15.660Z</time>
      </trkpt>
      <trkpt lat="45.80755" lon="4.94372">
        <ele>174.33099904</ele>
        <time>2014-10-12T08:16:23.660Z</time>
      </trkpt>
      <trkpt lat="45.80767" lon="4.94392">
        <ele>174</ele>
        <time>2014-10-12T08:16:31.660Z</time>
      </trkpt>
      <trkpt lat="45.8078" lon="4.94414">
        <ele>174.26900096</ele>
        <time>2014-10-12T08:16:39.660Z</time>
      </trkpt>
      <trkpt lat="45.80781" lon="4.94441">
        <ele>175.06900096</ele>
        <time>2014-10-12T08:16:47.660Z</time>
      </trkpt>
      <trkpt lat="45.80786" lon="4.94461">
        <ele>175.86900096</ele>
        <time>2014-10-12T08:16:55.660Z</time>
      </trkpt>
      <trkpt lat="45.80787" lon="4.94483">
        <ele>176</ele>
        <time>2014-10-12T08:17:38.660Z</time>
      </trkpt>
      <trkpt lat="45.80787" lon="4.94506">
        <ele>176</ele>
        <time>2014-10-12T08:17:46.660Z</time>
      </trkpt>
      <trkpt lat="45.80783" lon="4.94526">
        <ele>176</ele>
        <time>2014-10-12T08:17:54.660Z</time>
      </trkpt>
      <trkpt lat="45.80777" lon="4.94554">
        <ele>175.43100032</ele>
        <time>2014-10-12T08:18:02.660Z</time>
      </trkpt>
      <trkpt lat="45.8077" lon="4.94593">
        <ele>175</ele>
        <time>2014-10-12T08:18:14.660Z</time>
      </trkpt>
      <trkpt lat="45.80764" lon="4.94615">
        <ele>175</ele>
        <time>2014-10-12T08:18:22.660Z</time>
      </trkpt>
      <trkpt lat="45.80764" lon="4.94639">
        <ele>175</ele>
        <time>2014-10-12T08:18:30.660Z</time>
      </trkpt>
      <trkpt lat="45.80765" lon="4.94656">
        <ele>175.16899968</ele>
        <time>2014-10-12T08:18:38.660Z</time>
      </trkpt>
      <trkpt lat="45.80762" lon="4.94676">
        <ele>175.96899968</ele>
        <time>2014-10-12T08:18:46.660Z</time>
      </trkpt>
      <trkpt lat="45.80757" lon="4.94701">
        <ele>176</ele>
        <time>2014-10-12T08:18:54.660Z</time>
      </trkpt>
      <trkpt lat="45.80751" lon="4.94742">
        <ele>176.96899968</ele>
        <time>2014-10-12T08:19:06.660Z</time>
      </trkpt>
      <trkpt lat="45.80749" lon="4.94764">
        <ele>177</ele>
        <time>2014-10-12T08:19:14.660Z</time>
      </trkpt>
      <trkpt lat="45.80753" lon="4.94784">
        <ele>176.53099904</ele>
        <time>2014-10-12T08:19:21.660Z</time>
      </trkpt>
      <trkpt lat="45.80755" lon="4.94806">
        <ele>176.24200064</ele>
        <time>2014-10-12T08:19:29.390Z</time>
      </trkpt>
      <trkpt lat="45.80762" lon="4.94825">
        <ele>177.06900096</ele>
        <time>2014-10-12T08:19:37.660Z</time>
      </trkpt>
      <trkpt lat="45.8077" lon="4.94851">
        <ele>177.86900096</ele>
        <time>2014-10-12T08:19:45.660Z</time>
      </trkpt>
      <trkpt lat="45.80771" lon="4.94869">
        <ele>178</ele>
        <time>2014-10-12T08:19:53.660Z</time>
      </trkpt>
      <trkpt lat="45.80778" lon="4.94893">
        <ele>177.53193546862</ele>
        <time>2014-10-12T08:20:01.660Z</time>
      </trkpt>
      <trkpt lat="45.80784" lon="4.94912">
        <ele>177</ele>
        <time>2014-10-12T08:20:09.390Z</time>
      </trkpt>
      <trkpt lat="45.80787" lon="4.94936">
        <ele>177.06900096</ele>
        <time>2014-10-12T08:20:17.660Z</time>
      </trkpt>
      <trkpt lat="45.8079" lon="4.94959">
        <ele>177.86900096</ele>
        <time>2014-10-12T08:20:25.660Z</time>
      </trkpt>
      <trkpt lat="45.80796" lon="4.94977">
        <ele>178</ele>
        <time>2014-10-12T08:20:33.660Z</time>
      </trkpt>
      <trkpt lat="45.80805" lon="4.94999">
        <ele>178</ele>
        <time>2014-10-12T08:20:41.660Z</time>
      </trkpt>
      <trkpt lat="45.80814" lon="4.95018">
        <ele>178</ele>
        <time>2014-10-12T08:20:49.660Z</time>
      </trkpt>
      <trkpt lat="45.80826" lon="4.95035">
        <ele>177.93099904</ele>
        <time>2014-10-12T08:20:57.660Z</time>
      </trkpt>
      <trkpt lat="45.80832" lon="4.95053">
        <ele>177.13099904</ele>
        <time>2014-10-12T08:21:05.660Z</time>
      </trkpt>
      <trkpt lat="45.80838" lon="4.95068">
        <ele>177</ele>
        <time>2014-10-12T08:21:13.660Z</time>
      </trkpt>
      <trkpt lat="45.80847" lon="4.9509">
        <ele>177</ele>
        <time>2014-10-12T08:21:21.660Z</time>
      </trkpt>
      <trkpt lat="45.80847" lon="4.9511">
        <ele>177</ele>
        <time>2014-10-12T08:21:29.660Z</time>
      </trkpt>
      <trkpt lat="45.80852" lon="4.95131">
        <ele>177</ele>
        <time>2014-10-12T08:21:37.660Z</time>
      </trkpt>
      <trkpt lat="45.80862" lon="4.95151">
        <ele>177</ele>
        <time>2014-10-12T08:21:45.660Z</time>
      </trkpt>
      <trkpt lat="45.80875" lon="4.9519">
        <ele>178</ele>
        <time>2014-10-12T08:21:57.660Z</time>
      </trkpt>
      <trkpt lat="45.80881" lon="4.95214">
        <ele>178</ele>
        <time>2014-10-12T08:22:05.660Z</time>
      </trkpt>
      <trkpt lat="45.8089" lon="4.95229">
        <ele>178</ele>
        <time>2014-10-12T08:22:13.660Z</time>
      </trkpt>
      <trkpt lat="45.80903" lon="4.95244">
        <ele>178</ele>
        <time>2014-10-12T08:22:21.660Z</time>
      </trkpt>
      <trkpt lat="45.80912" lon="4.95263">
        <ele>177.73099904</ele>
        <time>2014-10-12T08:22:29.660Z</time>
      </trkpt>
      <trkpt lat="45.80922" lon="4.95279">
        <ele>177</ele>
        <time>2014-10-12T08:22:37.660Z</time>
      </trkpt>
      <trkpt lat="45.80927" lon="4.95301">
        <ele>177</ele>
        <time>2014-10-12T08:22:45.660Z</time>
      </trkpt>
      <trkpt lat="45.80936" lon="4.9532">
        <ele>177</ele>
        <time>2014-10-12T08:22:53.660Z</time>
      </trkpt>
      <trkpt lat="45.80944" lon="4.95337">
        <ele>177</ele>
        <time>2014-10-12T08:23:01.660Z</time>
      </trkpt>
      <trkpt lat="45.80954" lon="4.95355">
        <ele>177</ele>
        <time>2014-10-12T08:23:09.660Z</time>
      </trkpt>
      <trkpt lat="45.80974" lon="4.95387">
        <ele>177.46900096</ele>
        <time>2014-10-12T08:23:21.660Z</time>
      </trkpt>
      <trkpt lat="45.80983" lon="4.95408">
        <ele>178</ele>
        <time>2014-10-12T08:23:29.660Z</time>
      </trkpt>
      <trkpt lat="45.80994" lon="4.95424">
        <ele>177.93099904</ele>
        <time>2014-10-12T08:23:37.660Z</time>
      </trkpt>
      <trkpt lat="45.81007" lon="4.95436">
        <ele>177.13099904</ele>
        <time>2014-10-12T08:23:45.660Z</time>
      </trkpt>
      <trkpt lat="45.81021" lon="4.95458">
        <ele>177</ele>
        <time>2014-10-12T08:23:53.660Z</time>
      </trkpt>
      <trkpt lat="45.81033" lon="4.95486">
        <ele>177.86900096</ele>
        <time>2014-10-12T08:24:05.660Z</time>
      </trkpt>
      <trkpt lat="45.81039" lon="4.95508">
        <ele>178</ele>
        <time>2014-10-12T08:24:13.660Z</time>
      </trkpt>
      <trkpt lat="45.81045" lon="4.95527">
        <ele>178</ele>
        <time>2014-10-12T08:24:21.660Z</time>
      </trkpt>
      <trkpt lat="45.81064" lon="4.95553">
        <ele>177.33099904</ele>
        <time>2014-10-12T08:24:33.660Z</time>
      </trkpt>
      <trkpt lat="45.81073" lon="4.95569">
        <ele>177</ele>
        <time>2014-10-12T08:24:41.760Z</time>
      </trkpt>
      <trkpt lat="45.8108" lon="4.95587">
        <ele>177</ele>
        <time>2014-10-12T08:24:49.660Z</time>
      </trkpt>
      <trkpt lat="45.81086" lon="4.95608">
        <ele>177</ele>
        <time>2014-10-12T08:24:57.560Z</time>
      </trkpt>
      <trkpt lat="45.81094" lon="4.95626">
        <ele>177</ele>
        <time>2014-10-12T08:25:05.660Z</time>
      </trkpt>
      <trkpt lat="45.81111" lon="4.95641">
        <ele>177</ele>
        <time>2014-10-12T08:25:13.660Z</time>
      </trkpt>
      <trkpt lat="45.81122" lon="4.95661">
        <ele>177</ele>
        <time>2014-10-12T08:25:21.660Z</time>
      </trkpt>
      <trkpt lat="45.81133" lon="4.9568">
        <ele>177</ele>
        <time>2014-10-12T08:25:29.660Z</time>
      </trkpt>
      <trkpt lat="45.81144" lon="4.95701">
        <ele>177</ele>
        <time>2014-10-12T08:25:37.660Z</time>
      </trkpt>
      <trkpt lat="45.81157" lon="4.95717">
        <ele>177</ele>
        <time>2014-10-12T08:25:45.660Z</time>
      </trkpt>
      <trkpt lat="45.81171" lon="4.95727">
        <ele>177.66900096</ele>
        <time>2014-10-12T08:25:53.660Z</time>
      </trkpt>
      <trkpt lat="45.81183" lon="4.95743">
        <ele>177.53099904</ele>
        <time>2014-10-12T08:26:01.660Z</time>
      </trkpt>
      <trkpt lat="45.81192" lon="4.95761">
        <ele>177</ele>
        <time>2014-10-12T08:26:09.660Z</time>
      </trkpt>
      <trkpt lat="45.81205" lon="4.95778">
        <ele>177.06845333333</ele>
        <time>2014-10-12T08:26:17.660Z</time>
      </trkpt>
      <trkpt lat="45.81216" lon="4.95798">
        <ele>177.97123047619</ele>
        <time>2014-10-12T08:26:26.760Z</time>
      </trkpt>
      <trkpt lat="45.81223" lon="4.95813">
        <ele>178</ele>
        <time>2014-10-12T08:26:34.560Z</time>
      </trkpt>
      <trkpt lat="45.81231" lon="4.95835">
        <ele>178</ele>
        <time>2014-10-12T08:26:42.660Z</time>
      </trkpt>
      <trkpt lat="45.81235" lon="4.9585">
        <ele>178</ele>
        <time>2014-10-12T08:26:48.390Z</time>
      </trkpt>
      <trkpt lat="45.81224" lon="4.95836">
        <ele>177</ele>
        <time>2014-10-12T08:27:25.290Z</time>
      </trkpt>
      <trkpt lat="45.81209" lon="4.95833">
        <ele>177</ele>
        <time>2014-10-12T08:27:33.560Z</time>
      </trkpt>
      <trkpt lat="45.81193" lon="4.95834">
        <ele>177</ele>
        <time>2014-10-12T08:27:41.660Z</time>
      </trkpt>
      <trkpt lat="45.81181" lon="4.95825">
        <ele>177.26900096</ele>
        <time>2014-10-12T08:27:49.660Z</time>
      </trkpt>
      <trkpt lat="45.81161" lon="4.95822">
        <ele>177.94099968</ele>
        <time>2014-10-12T08:27:57.560Z</time>
      </trkpt>
      <trkpt lat="45.81138" lon="4.95814">
        <ele>177</ele>
        <time>2014-10-12T08:28:09.660Z</time>
      </trkpt>
      <trkpt lat="45.8112" lon="4.95811">
        <ele>177</ele>
        <time>2014-10-12T08:28:17.660Z</time>
      </trkpt>
      <trkpt lat="45.81105" lon="4.95808">
        <ele>177</ele>
        <time>2014-10-12T08:28:25.560Z</time>
      </trkpt>
      <trkpt lat="45.8109" lon="4.95799">
        <ele>177</ele>
        <time>2014-10-12T08:28:33.660Z</time>
      </trkpt>
      <trkpt lat="45.81061" lon="4.95795">
        <ele>177</ele>
        <time>2014-10-12T08:28:45.560Z</time>
      </trkpt>
      <trkpt lat="45.81044" lon="4.95793">
        <ele>177</ele>
        <time>2014-10-12T08:28:53.560Z</time>
      </trkpt>
      <trkpt lat="45.81029" lon="4.95787">
        <ele>177.45900032</ele>
        <time>2014-10-12T08:29:01.560Z</time>
      </trkpt>
      <trkpt lat="45.81014" lon="4.9578">
        <ele>178</ele>
        <time>2014-10-12T08:29:09.560Z</time>
      </trkpt>
      <trkpt lat="45.80997" lon="4.95775">
        <ele>178</ele>
        <time>2014-10-12T08:29:17.560Z</time>
      </trkpt>
      <trkpt lat="45.80982" lon="4.95775">
        <ele>178</ele>
        <time>2014-10-12T08:29:25.560Z</time>
      </trkpt>
      <trkpt lat="45.80965" lon="4.95768">
        <ele>178</ele>
        <time>2014-10-12T08:29:33.660Z</time>
      </trkpt>
      <trkpt lat="45.80946" lon="4.95759">
        <ele>177.54099968</ele>
        <time>2014-10-12T08:29:41.560Z</time>
      </trkpt>
      <trkpt lat="45.80929" lon="4.95757">
        <ele>177</ele>
        <time>2014-10-12T08:29:49.560Z</time>
      </trkpt>
      <trkpt lat="45.80913" lon="4.95748">
        <ele>176.54099968</ele>
        <time>2014-10-12T08:30:01.560Z</time>
      </trkpt>
      <trkpt lat="45.80897" lon="4.95746">
        <ele>176.25900032</ele>
        <time>2014-10-12T08:30:09.560Z</time>
      </trkpt>
      <trkpt lat="45.80884" lon="4.9574">
        <ele>177</ele>
        <time>2014-10-12T08:30:17.560Z</time>
      </trkpt>
      <trkpt lat="45.80869" lon="4.95738">
        <ele>177</ele>
        <time>2014-10-12T08:30:25.660Z</time>
      </trkpt>
      <trkpt lat="45.8085" lon="4.9573">
        <ele>177</ele>
        <time>2014-10-12T08:30:33.560Z</time>
      </trkpt>
      <trkpt lat="45.8084" lon="4.95715">
        <ele>177</ele>
        <time>2014-10-12T08:30:41.560Z</time>
      </trkpt>
      <trkpt lat="45.80824" lon="4.9571">
        <ele>176.74174118383</ele>
        <time>2014-10-12T08:30:49.560Z</time>
      </trkpt>
      <trkpt lat="45.80801" lon="4.95706">
        <ele>176.05900032</ele>
        <time>2014-10-12T08:30:57.560Z</time>
      </trkpt>
      <trkpt lat="45.80786" lon="4.95706">
        <ele>176.85900032</ele>
        <time>2014-10-12T08:31:05.560Z</time>
      </trkpt>
      <trkpt lat="45.80762" lon="4.95709">
        <ele>176.94111748272</ele>
        <time>2014-10-12T08:31:17.560Z</time>
      </trkpt>
      <trkpt lat="45.80743" lon="4.95708">
        <ele>176.14271479906</ele>
        <time>2014-10-12T08:31:25.560Z</time>
      </trkpt>
      <trkpt lat="45.80724" lon="4.95702">
        <ele>176</ele>
        <time>2014-10-12T08:31:33.560Z</time>
      </trkpt>
      <trkpt lat="45.80704" lon="4.95696">
        <ele>176.45900032</ele>
        <time>2014-10-12T08:31:41.560Z</time>
      </trkpt>
      <trkpt lat="45.80682" lon="4.9569">
        <ele>177</ele>
        <time>2014-10-12T08:31:53.560Z</time>
      </trkpt>
      <trkpt lat="45.80666" lon="4.95692">
        <ele>177</ele>
        <time>2014-10-12T08:32:01.560Z</time>
      </trkpt>
      <trkpt lat="45.80649" lon="4.95696">
        <ele>177</ele>
        <time>2014-10-12T08:32:09.560Z</time>
      </trkpt>
      <trkpt lat="45.80634" lon="4.95686">
        <ele>177</ele>
        <time>2014-10-12T08:32:17.560Z</time>
      </trkpt>
      <trkpt lat="45.80608" lon="4.95688">
        <ele>177</ele>
        <time>2014-10-12T08:32:29.560Z</time>
      </trkpt>
      <trkpt lat="45.80584" lon="4.95692">
        <ele>177</ele>
        <time>2014-10-12T08:32:41.560Z</time>
      </trkpt>
      <trkpt lat="45.80568" lon="4.95693">
        <ele>177.25900032</ele>
        <time>2014-10-12T08:32:49.560Z</time>
      </trkpt>
      <trkpt lat="45.8055" lon="4.95701">
        <ele>177.94099968</ele>
        <time>2014-10-12T08:32:57.560Z</time>
      </trkpt>
      <trkpt lat="45.80535" lon="4.95702">
        <ele>177.14099968</ele>
        <time>2014-10-12T08:33:05.560Z</time>
      </trkpt>
      <trkpt lat="45.80521" lon="4.95701">
        <ele>177</ele>
        <time>2014-10-12T08:33:13.560Z</time>
      </trkpt>
      <trkpt lat="45.80507" lon="4.95704">
        <ele>177.45900032</ele>
        <time>2014-10-12T08:33:21.560Z</time>
      </trkpt>
      <trkpt lat="45.80488" lon="4.95705">
        <ele>178</ele>
        <time>2014-10-12T08:33:29.560Z</time>
      </trkpt>
      <trkpt lat="45.80464" lon="4.95713">
        <ele>178</ele>
        <time>2014-10-12T08:33:41.560Z</time>
      </trkpt>
      <trkpt lat="45.80451" lon="4.95722">
        <ele>178</ele>
        <time>2014-10-12T08:33:49.560Z</time>
      </trkpt>
      <trkpt lat="45.80439" lon="4.95727">
        <ele>178</ele>
        <time>2014-10-12T08:33:57.560Z</time>
      </trkpt>
      <trkpt lat="45.80425" lon="4.95731">
        <ele>178</ele>
        <time>2014-10-12T08:34:05.560Z</time>
      </trkpt>
      <trkpt lat="45.80413" lon="4.9573">
        <ele>178.65900032</ele>
        <time>2014-10-12T08:34:13.560Z</time>
      </trkpt>
      <trkpt lat="45.80391" lon="4.9574">
        <ele>179</ele>
        <time>2014-10-12T08:34:21.560Z</time>
      </trkpt>
      <trkpt lat="45.80375" lon="4.9575">
        <ele>178.74099968</ele>
        <time>2014-10-12T08:34:29.560Z</time>
      </trkpt>
      <trkpt lat="45.80361" lon="4.95765">
        <ele>177.94099968</ele>
        <time>2014-10-12T08:34:37.560Z</time>
      </trkpt>
      <trkpt lat="45.80346" lon="4.95774">
        <ele>177.14099968</ele>
        <time>2014-10-12T08:34:45.560Z</time>
      </trkpt>
      <trkpt lat="45.80328" lon="4.95771">
        <ele>177.65900032</ele>
        <time>2014-10-12T08:34:53.560Z</time>
      </trkpt>
      <trkpt lat="45.80304" lon="4.95774">
        <ele>177.14099968</ele>
        <time>2014-10-12T08:35:05.560Z</time>
      </trkpt>
      <trkpt lat="45.8029" lon="4.95779">
        <ele>177</ele>
        <time>2014-10-12T08:35:13.560Z</time>
      </trkpt>
      <trkpt lat="45.80275" lon="4.95779">
        <ele>177.45900032</ele>
        <time>2014-10-12T08:35:21.560Z</time>
      </trkpt>
      <trkpt lat="45.80256" lon="4.95781">
        <ele>178</ele>
        <time>2014-10-12T08:35:29.560Z</time>
      </trkpt>
      <trkpt lat="45.8024" lon="4.95777">
        <ele>178</ele>
        <time>2014-10-12T08:35:37.290Z</time>
      </trkpt>
      <trkpt lat="45.80227" lon="4.9577">
        <ele>178</ele>
        <time>2014-10-12T08:35:45.290Z</time>
      </trkpt>
      <trkpt lat="45.80213" lon="4.95767">
        <ele>178</ele>
        <time>2014-10-12T08:35:53.560Z</time>
      </trkpt>
      <trkpt lat="45.80195" lon="4.95759">
        <ele>177.54099968</ele>
        <time>2014-10-12T08:36:01.560Z</time>
      </trkpt>
      <trkpt lat="45.80175" lon="4.95749">
        <ele>177</ele>
        <time>2014-10-12T08:36:09.560Z</time>
      </trkpt>
      <trkpt lat="45.80157" lon="4.95736">
        <ele>177</ele>
        <time>2014-10-12T08:36:17.560Z</time>
      </trkpt>
      <trkpt lat="45.80142" lon="4.95722">
        <ele>177</ele>
        <time>2014-10-12T08:36:25.560Z</time>
      </trkpt>
      <trkpt lat="45.80129" lon="4.95711">
        <ele>177</ele>
        <time>2014-10-12T08:36:33.560Z</time>
      </trkpt>
      <trkpt lat="45.80113" lon="4.95699">
        <ele>177</ele>
        <time>2014-10-12T08:36:41.560Z</time>
      </trkpt>
      <trkpt lat="45.80096" lon="4.95694">
        <ele>177</ele>
        <time>2014-10-12T08:36:49.560Z</time>
      </trkpt>
      <trkpt lat="45.80086" lon="4.95675">
        <ele>177.05900032</ele>
        <time>2014-10-12T08:36:57.560Z</time>
      </trkpt>
      <trkpt lat="45.80071" lon="4.95664">
        <ele>177.85900032</ele>
        <time>2014-10-12T08:37:05.560Z</time>
      </trkpt>
      <trkpt lat="45.80061" lon="4.95656">
        <ele>178</ele>
        <time>2014-10-12T08:37:13.560Z</time>
      </trkpt>
      <trkpt lat="45.80042" lon="4.95648">
        <ele>177.54099968</ele>
        <time>2014-10-12T08:37:21.560Z</time>
      </trkpt>
      <trkpt lat="45.80015" lon="4.95642">
        <ele>177</ele>
        <time>2014-10-12T08:37:33.560Z</time>
      </trkpt>
      <trkpt lat="45.80006" lon="4.95651">
        <ele>177</ele>
        <time>2014-10-12T08:37:41.560Z</time>
      </trkpt>
      <trkpt lat="45.79994" lon="4.95677">
        <ele>177</ele>
        <time>2014-10-12T08:37:53.560Z</time>
      </trkpt>
      <trkpt lat="45.79991" lon="4.95704">
        <ele>178.104</ele>
        <time>2014-10-12T08:38:02.490Z</time>
      </trkpt>
      <trkpt lat="45.79983" lon="4.95725">
        <ele>178.64099968</ele>
        <time>2014-10-12T08:38:10.560Z</time>
      </trkpt>
      <trkpt lat="45.79989" lon="4.95762">
        <ele>177.44099968</ele>
        <time>2014-10-12T08:38:22.560Z</time>
      </trkpt>
      <trkpt lat="45.7999" lon="4.95738">
        <ele>179</ele>
        <time>2014-10-12T08:38:56.290Z</time>
      </trkpt>
      <trkpt lat="45.79988" lon="4.95716">
        <ele>178.24099968</ele>
        <time>2014-10-12T08:39:04.560Z</time>
      </trkpt>
      <trkpt lat="45.79989" lon="4.95693">
        <ele>178</ele>
        <time>2014-10-12T08:39:12.560Z</time>
      </trkpt>
      <trkpt lat="45.79986" lon="4.95673">
        <ele>178</ele>
        <time>2014-10-12T08:39:20.560Z</time>
      </trkpt>
      <trkpt lat="45.79986" lon="4.95648">
        <ele>178</ele>
        <time>2014-10-12T08:39:28.560Z</time>
      </trkpt>
      <trkpt lat="45.79982" lon="4.95624">
        <ele>178</ele>
        <time>2014-10-12T08:39:36.560Z</time>
      </trkpt>
      <trkpt lat="45.79975" lon="4.95608">
        <ele>178</ele>
        <time>2014-10-12T08:39:44.560Z</time>
      </trkpt>
      <trkpt lat="45.79978" lon="4.95588">
        <ele>177.44099968</ele>
        <time>2014-10-12T08:39:52.560Z</time>
      </trkpt>
      <trkpt lat="45.79978" lon="4.95565">
        <ele>177</ele>
        <time>2014-10-12T08:40:00.560Z</time>
      </trkpt>
      <trkpt lat="45.79973" lon="4.9554">
        <ele>177.15900032</ele>
        <time>2014-10-12T08:40:08.560Z</time>
      </trkpt>
      <trkpt lat="45.7997" lon="4.9552">
        <ele>177.95900032</ele>
        <time>2014-10-12T08:40:16.560Z</time>
      </trkpt>
      <trkpt lat="45.79967" lon="4.955">
        <ele>178.75900032</ele>
        <time>2014-10-12T08:40:24.560Z</time>
      </trkpt>
      <trkpt lat="45.79966" lon="4.95481">
        <ele>178.44099968</ele>
        <time>2014-10-12T08:40:32.560Z</time>
      </trkpt>
      <trkpt lat="45.79961" lon="4.95457">
        <ele>177.64099968</ele>
        <time>2014-10-12T08:40:40.560Z</time>
      </trkpt>
      <trkpt lat="45.79961" lon="4.95439">
        <ele>177.31800064</ele>
        <time>2014-10-12T08:40:48.560Z</time>
      </trkpt>
      <trkpt lat="45.79956" lon="4.95414">
        <ele>178.91800064</ele>
        <time>2014-10-12T08:40:56.560Z</time>
      </trkpt>
      <trkpt lat="45.79948" lon="4.95378">
        <ele>178</ele>
        <time>2014-10-12T08:41:08.560Z</time>
      </trkpt>
      <trkpt lat="45.79947" lon="4.95353">
        <ele>178</ele>
        <time>2014-10-12T08:41:16.560Z</time>
      </trkpt>
      <trkpt lat="45.79943" lon="4.95322">
        <ele>177.24099968</ele>
        <time>2014-10-12T08:41:24.560Z</time>
      </trkpt>
      <trkpt lat="45.79929" lon="4.95285">
        <ele>176.04099968</ele>
        <time>2014-10-12T08:41:36.560Z</time>
      </trkpt>
      <trkpt lat="45.79923" lon="4.9526">
        <ele>176.75900032</ele>
        <time>2014-10-12T08:41:44.560Z</time>
      </trkpt>
      <trkpt lat="45.79921" lon="4.95222">
        <ele>177</ele>
        <time>2014-10-12T08:41:56.560Z</time>
      </trkpt>
      <trkpt lat="45.79917" lon="4.95199">
        <ele>177</ele>
        <time>2014-10-12T08:42:04.560Z</time>
      </trkpt>
      <trkpt lat="45.79914" lon="4.95161">
        <ele>177</ele>
        <time>2014-10-12T08:42:16.560Z</time>
      </trkpt>
      <trkpt lat="45.79911" lon="4.95143">
        <ele>177</ele>
        <time>2014-10-12T08:42:24.560Z</time>
      </trkpt>
      <trkpt lat="45.79904" lon="4.95123">
        <ele>177</ele>
        <time>2014-10-12T08:42:32.560Z</time>
      </trkpt>
      <trkpt lat="45.79898" lon="4.951">
        <ele>177</ele>
        <time>2014-10-12T08:42:40.560Z</time>
      </trkpt>
      <trkpt lat="45.79894" lon="4.95073">
        <ele>176.84015978906</ele>
        <time>2014-10-12T08:42:48.570Z</time>
      </trkpt>
      <trkpt lat="45.79889" lon="4.95049">
        <ele>176.04095873437</ele>
        <time>2014-10-12T08:42:56.570Z</time>
      </trkpt>
      <trkpt lat="45.79884" lon="4.95026">
        <ele>176.75975983671</ele>
        <time>2014-10-12T08:43:04.570Z</time>
      </trkpt>
      <trkpt lat="45.79883" lon="4.94988">
        <ele>177</ele>
        <time>2014-10-12T08:43:16.560Z</time>
      </trkpt>
      <trkpt lat="45.79879" lon="4.94974">
        <ele>177</ele>
        <time>2014-10-12T08:43:24.560Z</time>
      </trkpt>
      <trkpt lat="45.79891" lon="4.94964">
        <ele>177</ele>
        <time>2014-10-12T08:43:48.560Z</time>
      </trkpt>
      <trkpt lat="45.79905" lon="4.94954">
        <ele>177</ele>
        <time>2014-10-12T08:44:19.560Z</time>
      </trkpt>
      <trkpt lat="45.79918" lon="4.94948">
        <ele>177</ele>
        <time>2014-10-12T08:44:27.560Z</time>
      </trkpt>
      <trkpt lat="45.79935" lon="4.94926">
        <ele>177</ele>
        <time>2014-10-12T08:44:39.560Z</time>
      </trkpt>
      <trkpt lat="45.79948" lon="4.9491">
        <ele>177</ele>
        <time>2014-10-12T08:44:47.560Z</time>
      </trkpt>
      <trkpt lat="45.79969" lon="4.94886">
        <ele>177</ele>
        <time>2014-10-12T08:44:59.560Z</time>
      </trkpt>
      <trkpt lat="45.79993" lon="4.94868">
        <ele>177</ele>
        <time>2014-10-12T08:45:11.560Z</time>
      </trkpt>
      <trkpt lat="45.80003" lon="4.94854">
        <ele>177</ele>
        <time>2014-10-12T08:45:19.560Z</time>
      </trkpt>
      <trkpt lat="45.80017" lon="4.9484">
        <ele>177</ele>
        <time>2014-10-12T08:45:27.560Z</time>
      </trkpt>
      <trkpt lat="45.80026" lon="4.9482">
        <ele>177</ele>
        <time>2014-10-12T08:45:35.560Z</time>
      </trkpt>
      <trkpt lat="45.80034" lon="4.94805">
        <ele>177</ele>
        <time>2014-10-12T08:45:43.560Z</time>
      </trkpt>
      <trkpt lat="45.8005" lon="4.94779">
        <ele>177</ele>
        <time>2014-10-12T08:45:51.560Z</time>
      </trkpt>
      <trkpt lat="45.80061" lon="4.94756">
        <ele>176.74099968</ele>
        <time>2014-10-12T08:45:59.560Z</time>
      </trkpt>
      <trkpt lat="45.8008" lon="4.94729">
        <ele>176</ele>
        <time>2014-10-12T08:46:11.560Z</time>
      </trkpt>
      <trkpt lat="45.80101" lon="4.94715">
        <ele>176.65900032</ele>
        <time>2014-10-12T08:46:23.560Z</time>
      </trkpt>
      <trkpt lat="45.80108" lon="4.94701">
        <ele>177</ele>
        <time>2014-10-12T08:46:31.560Z</time>
      </trkpt>
      <trkpt lat="45.80119" lon="4.94679">
        <ele>177</ele>
        <time>2014-10-12T08:46:39.560Z</time>
      </trkpt>
      <trkpt lat="45.80129" lon="4.94659">
        <ele>177</ele>
        <time>2014-10-12T08:46:51.560Z</time>
      </trkpt>
      <trkpt lat="45.80142" lon="4.94638">
        <ele>176.74099968</ele>
        <time>2014-10-12T08:46:59.560Z</time>
      </trkpt>
      <trkpt lat="45.8016" lon="4.94618">
        <ele>176</ele>
        <time>2014-10-12T08:47:11.560Z</time>
      </trkpt>
      <trkpt lat="45.80167" lon="4.946">
        <ele>176</ele>
        <time>2014-10-12T08:47:19.560Z</time>
      </trkpt>
      <trkpt lat="45.80173" lon="4.94581">
        <ele>176</ele>
        <time>2014-10-12T08:47:27.560Z</time>
      </trkpt>
      <trkpt lat="45.8018" lon="4.9456">
        <ele>176</ele>
        <time>2014-10-12T08:47:35.560Z</time>
      </trkpt>
      <trkpt lat="45.80187" lon="4.94533">
        <ele>176</ele>
        <time>2014-10-12T08:47:43.560Z</time>
      </trkpt>
      <trkpt lat="45.80189" lon="4.94506">
        <ele>176</ele>
        <time>2014-10-12T08:47:51.560Z</time>
      </trkpt>
      <trkpt lat="45.80198" lon="4.94468">
        <ele>176.65900032</ele>
        <time>2014-10-12T08:48:03.560Z</time>
      </trkpt>
      <trkpt lat="45.80196" lon="4.94447">
        <ele>177</ele>
        <time>2014-10-12T08:48:11.560Z</time>
      </trkpt>
      <trkpt lat="45.80193" lon="4.94428">
        <ele>177</ele>
        <time>2014-10-12T08:48:19.560Z</time>
      </trkpt>
      <trkpt lat="45.80196" lon="4.94401">
        <ele>176.94288605556</ele>
        <time>2014-10-12T08:48:27.560Z</time>
      </trkpt>
      <trkpt lat="45.80195" lon="4.94382">
        <ele>176.14128233509</ele>
        <time>2014-10-12T08:48:35.560Z</time>
      </trkpt>
      <trkpt lat="45.80195" lon="4.94356">
        <ele>176</ele>
        <time>2014-10-12T08:48:43.560Z</time>
      </trkpt>
      <trkpt lat="45.80192" lon="4.94334">
        <ele>176.45900032</ele>
        <time>2014-10-12T08:48:51.560Z</time>
      </trkpt>
      <trkpt lat="45.80187" lon="4.94306">
        <ele>176.48303362361</ele>
        <time>2014-10-12T08:48:59.560Z</time>
      </trkpt>
      <trkpt lat="45.80182" lon="4.9428">
        <ele>175.11422788888</ele>
        <time>2014-10-12T08:49:07.560Z</time>
      </trkpt>
      <trkpt lat="45.80177" lon="4.94254">
        <ele>176.71743532982</ele>
        <time>2014-10-12T08:49:15.560Z</time>
      </trkpt>
      <trkpt lat="45.80176" lon="4.94234">
        <ele>177</ele>
        <time>2014-10-12T08:49:23.560Z</time>
      </trkpt>
      <trkpt lat="45.80173" lon="4.94194">
        <ele>176.14099968</ele>
        <time>2014-10-12T08:49:35.560Z</time>
      </trkpt>
      <trkpt lat="45.80166" lon="4.94186">
        <ele>177</ele>
        <time>2014-10-12T08:49:59.560Z</time>
      </trkpt>
      <trkpt lat="45.80158" lon="4.94162">
        <ele>177.05900032</ele>
        <time>2014-10-12T08:50:07.560Z</time>
      </trkpt>
      <trkpt lat="45.80144" lon="4.94132">
        <ele>177.85900032</ele>
        <time>2014-10-12T08:50:15.560Z</time>
      </trkpt>
      <trkpt lat="45.80127" lon="4.94099">
        <ele>179.31800064</ele>
        <time>2014-10-12T08:50:23.560Z</time>
      </trkpt>
      <trkpt lat="45.80112" lon="4.94083">
        <ele>180.91800064</ele>
        <time>2014-10-12T08:50:31.560Z</time>
      </trkpt>
      <trkpt lat="45.80089" lon="4.94057">
        <ele>182</ele>
        <time>2014-10-12T08:50:39.560Z</time>
      </trkpt>
      <trkpt lat="45.80071" lon="4.94046">
        <ele>182</ele>
        <time>2014-10-12T08:50:47.560Z</time>
      </trkpt>
      <trkpt lat="45.80048" lon="4.94037">
        <ele>181</ele>
        <time>2014-10-12T08:51:43.760Z</time>
      </trkpt>
      <trkpt lat="45.80038" lon="4.9403">
        <ele>181</ele>
        <time>2014-10-12T08:51:51.560Z</time>
      </trkpt>
      <trkpt lat="45.80034" lon="4.94013">
        <ele>181</ele>
        <time>2014-10-12T08:52:07.760Z</time>
      </trkpt>
      <trkpt lat="45.80004" lon="4.93983">
        <ele>181.14200064</ele>
        <time>2014-10-12T08:52:18.390Z</time>
      </trkpt>
      <trkpt lat="45.79958" lon="4.94">
        <ele>181.932</ele>
        <time>2014-10-12T08:52:26.290Z</time>
      </trkpt>
      <trkpt lat="45.79911" lon="4.94014">
        <ele>182</ele>
        <time>2014-10-12T08:52:34.560Z</time>
      </trkpt>
      <trkpt lat="45.79876" lon="4.94034">
        <ele>181.44099968</ele>
        <time>2014-10-12T08:52:42.560Z</time>
      </trkpt>
      <trkpt lat="45.79845" lon="4.94053">
        <ele>181.35900032</ele>
        <time>2014-10-12T08:52:50.560Z</time>
      </trkpt>
      <trkpt lat="45.79804" lon="4.94047">
        <ele>181.84099968</ele>
        <time>2014-10-12T08:52:58.560Z</time>
      </trkpt>
      <trkpt lat="45.79786" lon="4.94021">
        <ele>181.04099968</ele>
        <time>2014-10-12T08:53:06.560Z</time>
      </trkpt>
      <trkpt lat="45.79776" lon="4.93965">
        <ele>181</ele>
        <time>2014-10-12T08:53:14.760Z</time>
      </trkpt>
      <trkpt lat="45.79777" lon="4.93919">
        <ele>181</ele>
        <time>2014-10-12T08:53:19.490Z</time>
      </trkpt>
      <trkpt lat="45.7978" lon="4.9387">
        <ele>181</ele>
        <time>2014-10-12T08:53:26.490Z</time>
      </trkpt>
      <trkpt lat="45.798" lon="4.93847">
        <ele>180.12197548387</ele>
        <time>2014-10-12T08:53:35.760Z</time>
      </trkpt>
      <trkpt lat="45.79854" lon="4.93783">
        <ele>180</ele>
        <time>2014-10-12T08:53:46.490Z</time>
      </trkpt>
      <trkpt lat="45.79907" lon="4.93752">
        <ele>180.76713677419</ele>
        <time>2014-10-12T08:53:54.660Z</time>
      </trkpt>
      <trkpt lat="45.79957" lon="4.93729">
        <ele>181.55900032</ele>
        <time>2014-10-12T08:54:02.560Z</time>
      </trkpt>
      <trkpt lat="45.79999" lon="4.93699">
        <ele>182</ele>
        <time>2014-10-12T08:54:10.560Z</time>
      </trkpt>
      <trkpt lat="45.80015" lon="4.93649">
        <ele>181.64099968</ele>
        <time>2014-10-12T08:54:20.560Z</time>
      </trkpt>
      <trkpt lat="45.79949" lon="4.93597">
        <ele>179.71317829457</ele>
        <time>2014-10-12T08:54:30.290Z</time>
      </trkpt>
      <trkpt lat="45.79924" lon="4.9357">
        <ele>177.31007751938</ele>
        <time>2014-10-12T08:54:36.490Z</time>
      </trkpt>
      <trkpt lat="45.799" lon="4.93533">
        <ele>176.26652826446</ele>
        <time>2014-10-12T08:54:44.390Z</time>
      </trkpt>
      <trkpt lat="45.79894" lon="4.93494">
        <ele>176</ele>
        <time>2014-10-12T08:54:51.760Z</time>
      </trkpt>
      <trkpt lat="45.79887" lon="4.93424">
        <ele>176</ele>
        <time>2014-10-12T08:55:04.290Z</time>
      </trkpt>
      <trkpt lat="45.79881" lon="4.93381">
        <ele>176.532</ele>
        <time>2014-10-12T08:55:12.290Z</time>
      </trkpt>
      <trkpt lat="45.79871" lon="4.93332">
        <ele>177</ele>
        <time>2014-10-12T08:55:20.560Z</time>
      </trkpt>
      <trkpt lat="45.7986" lon="4.93313">
        <ele>176.82099968</ele>
        <time>2014-10-12T08:55:28.760Z</time>
      </trkpt>
      <trkpt lat="45.79871" lon="4.93305">
        <ele>175.62099968</ele>
        <time>2014-10-12T08:55:40.760Z</time>
      </trkpt>
      <trkpt lat="45.79872" lon="4.93236">
        <ele>175.17900032</ele>
        <time>2014-10-12T08:55:48.760Z</time>
      </trkpt>
      <trkpt lat="45.79867" lon="4.93162">
        <ele>175.97900032</ele>
        <time>2014-10-12T08:55:56.760Z</time>
      </trkpt>
      <trkpt lat="45.79882" lon="4.93093">
        <ele>176</ele>
        <time>2014-10-12T08:56:04.760Z</time>
      </trkpt>
      <trkpt lat="45.79919" lon="4.93044">
        <ele>176</ele>
        <time>2014-10-12T08:56:12.760Z</time>
      </trkpt>
      <trkpt lat="45.79913" lon="4.92998">
        <ele>175.22099968</ele>
        <time>2014-10-12T08:56:24.760Z</time>
      </trkpt>
      <trkpt lat="45.79922" lon="4.92976">
        <ele>175</ele>
        <time>2014-10-12T08:56:32.770Z</time>
      </trkpt>
      <trkpt lat="45.79959" lon="4.9294">
        <ele>175</ele>
        <time>2014-10-12T08:56:38.090Z</time>
      </trkpt>
      <trkpt lat="45.79971" lon="4.92933">
        <ele>175</ele>
        <time>2014-10-12T08:56:45.490Z</time>
      </trkpt>
      <trkpt lat="45.79993" lon="4.92934">
        <ele>175</ele>
        <time>2014-10-12T08:56:53.490Z</time>
      </trkpt>
      <trkpt lat="45.80034" lon="4.92934">
        <ele>174.54154104776</ele>
        <time>2014-10-12T08:57:01.560Z</time>
      </trkpt>
      <trkpt lat="45.80085" lon="4.92931">
        <ele>174</ele>
        <time>2014-10-12T08:57:09.760Z</time>
      </trkpt>
      <trkpt lat="45.80127" lon="4.92936">
        <ele>174.07900032</ele>
        <time>2014-10-12T08:57:17.760Z</time>
      </trkpt>
      <trkpt lat="45.80153" lon="4.92981">
        <ele>174.87900032</ele>
        <time>2014-10-12T08:57:25.760Z</time>
      </trkpt>
      <trkpt lat="45.80183" lon="4.93011">
        <ele>175</ele>
        <time>2014-10-12T08:57:33.760Z</time>
      </trkpt>
      <trkpt lat="45.80204" lon="4.93027">
        <ele>175</ele>
        <time>2014-10-12T08:57:41.560Z</time>
      </trkpt>
      <trkpt lat="45.80219" lon="4.93079">
        <ele>175.25900032</ele>
        <time>2014-10-12T08:57:49.560Z</time>
      </trkpt>
      <trkpt lat="45.80228" lon="4.93159">
        <ele>176</ele>
        <time>2014-10-12T08:57:59.490Z</time>
      </trkpt>
      <trkpt lat="45.80233" lon="4.93222">
        <ele>176.032</ele>
        <time>2014-10-12T08:58:07.290Z</time>
      </trkpt>
      <trkpt lat="45.80244" lon="4.93282">
        <ele>176.852</ele>
        <time>2014-10-12T08:58:15.490Z</time>
      </trkpt>
      <trkpt lat="45.80253" lon="4.93338">
        <ele>177</ele>
        <time>2014-10-12T08:58:23.560Z</time>
      </trkpt>
      <trkpt lat="45.8028" lon="4.93379">
        <ele>177</ele>
        <time>2014-10-12T08:58:31.560Z</time>
      </trkpt>
      <trkpt lat="45.80314" lon="4.93397">
        <ele>177.25900032</ele>
        <time>2014-10-12T08:58:39.560Z</time>
      </trkpt>
      <trkpt lat="45.80332" lon="4.93414">
        <ele>178</ele>
        <time>2014-10-12T08:58:47.560Z</time>
      </trkpt>
      <trkpt lat="45.80375" lon="4.934">
        <ele>178</ele>
        <time>2014-10-12T08:58:55.560Z</time>
      </trkpt>
      <trkpt lat="45.80442" lon="4.93367">
        <ele>176.68199936</ele>
        <time>2014-10-12T08:59:03.560Z</time>
      </trkpt>
      <trkpt lat="45.80483" lon="4.93348">
        <ele>177.37700096</ele>
        <time>2014-10-12T08:59:11.560Z</time>
      </trkpt>
      <trkpt lat="45.80522" lon="4.93337">
        <ele>179</ele>
        <time>2014-10-12T08:59:19.560Z</time>
      </trkpt>
      <trkpt lat="45.8057" lon="4.93349">
        <ele>178.94288605556</ele>
        <time>2014-10-12T08:59:27.560Z</time>
      </trkpt>
      <trkpt lat="45.80618" lon="4.9334">
        <ele>178.14128233509</ele>
        <time>2014-10-12T08:59:35.560Z</time>
      </trkpt>
      <trkpt lat="45.80669" lon="4.93302">
        <ele>178.65900032</ele>
        <time>2014-10-12T08:59:43.560Z</time>
      </trkpt>
      <trkpt lat="45.80698" lon="4.93238">
        <ele>179</ele>
        <time>2014-10-12T08:59:51.290Z</time>
      </trkpt>
      <trkpt lat="45.80742" lon="4.93227">
        <ele>178.74099968</ele>
        <time>2014-10-12T08:59:59.560Z</time>
      </trkpt>
      <trkpt lat="45.80759" lon="4.93163">
        <ele>178</ele>
        <time>2014-10-12T09:00:07.290Z</time>
      </trkpt>
      <trkpt lat="45.80813" lon="4.93104">
        <ele>178</ele>
        <time>2014-10-12T09:00:15.290Z</time>
      </trkpt>
      <trkpt lat="45.80854" lon="4.93062">
        <ele>176.29300096</ele>
        <time>2014-10-12T09:00:22.660Z</time>
      </trkpt>
      <trkpt lat="45.80848" lon="4.93011">
        <ele>175</ele>
        <time>2014-10-12T09:00:30.290Z</time>
      </trkpt>
      <trkpt lat="45.80822" lon="4.92959">
        <ele>175.15900032</ele>
        <time>2014-10-12T09:00:38.560Z</time>
      </trkpt>
      <trkpt lat="45.8081" lon="4.92898">
        <ele>175.95900032</ele>
        <time>2014-10-12T09:00:46.560Z</time>
      </trkpt>
      <trkpt lat="45.80792" lon="4.92836">
        <ele>176</ele>
        <time>2014-10-12T09:00:54.560Z</time>
      </trkpt>
      <trkpt lat="45.80776" lon="4.92778">
        <ele>176.55900032</ele>
        <time>2014-10-12T09:01:02.560Z</time>
      </trkpt>
      <trkpt lat="45.80763" lon="4.9272">
        <ele>177</ele>
        <time>2014-10-12T09:01:10.760Z</time>
      </trkpt>
      <trkpt lat="45.80747" lon="4.92653">
        <ele>177</ele>
        <time>2014-10-12T09:01:18.030Z</time>
      </trkpt>
      <trkpt lat="45.80731" lon="4.92599">
        <ele>177</ele>
        <time>2014-10-12T09:01:26.030Z</time>
      </trkpt>
      <trkpt lat="45.80705" lon="4.92541">
        <ele>177.75900032</ele>
        <time>2014-10-12T09:01:34.560Z</time>
      </trkpt>
      <trkpt lat="45.8069" lon="4.92495">
        <ele>178</ele>
        <time>2014-10-12T09:01:40.560Z</time>
      </trkpt>
      <trkpt lat="45.80681" lon="4.92431">
        <ele>177.85799936</ele>
        <time>2014-10-12T09:01:48.390Z</time>
      </trkpt>
      <trkpt lat="45.80673" lon="4.92362">
        <ele>177.068</ele>
        <time>2014-10-12T09:01:56.290Z</time>
      </trkpt>
      <trkpt lat="45.80696" lon="4.92344">
        <ele>176.24099968</ele>
        <time>2014-10-12T09:02:04.560Z</time>
      </trkpt>
      <trkpt lat="45.80734" lon="4.92392">
        <ele>176</ele>
        <time>2014-10-12T09:02:12.560Z</time>
      </trkpt>
      <trkpt lat="45.80764" lon="4.92419">
        <ele>175.95799936</ele>
        <time>2014-10-12T09:02:17.390Z</time>
      </trkpt>
      <trkpt lat="45.80803" lon="4.92458">
        <ele>175.148</ele>
        <time>2014-10-12T09:02:25.490Z</time>
      </trkpt>
      <trkpt lat="45.80825" lon="4.92497">
        <ele>175.95800064</ele>
        <time>2014-10-12T09:02:31.760Z</time>
      </trkpt>
      <trkpt lat="45.80838" lon="4.92545">
        <ele>177</ele>
        <time>2014-10-12T09:02:38.390Z</time>
      </trkpt>
      <trkpt lat="45.80857" lon="4.92597">
        <ele>177</ele>
        <time>2014-10-12T09:02:46.290Z</time>
      </trkpt>
      <trkpt lat="45.80877" lon="4.92648">
        <ele>176</ele>
        <time>2014-10-12T09:02:58.490Z</time>
      </trkpt>
      <trkpt lat="45.80882" lon="4.92686">
        <ele>176</ele>
        <time>2014-10-12T09:03:05.490Z</time>
      </trkpt>
      <trkpt lat="45.80886" lon="4.92727">
        <ele>176</ele>
        <time>2014-10-12T09:03:12.490Z</time>
      </trkpt>
      <trkpt lat="45.80893" lon="4.92766">
        <ele>176</ele>
        <time>2014-10-12T09:03:19.390Z</time>
      </trkpt>
      <trkpt lat="45.8091" lon="4.92812">
        <ele>175.95699968</ele>
        <time>2014-10-12T09:03:27.400Z</time>
      </trkpt>
      <trkpt lat="45.80946" lon="4.92829">
        <ele>175.156</ele>
        <time>2014-10-12T09:03:35.410Z</time>
      </trkpt>
      <trkpt lat="45.80971" lon="4.92869">
        <ele>175.66900096</ele>
        <time>2014-10-12T09:03:43.660Z</time>
      </trkpt>
      <trkpt lat="45.81006" lon="4.92933">
        <ele>176</ele>
        <time>2014-10-12T09:03:51.660Z</time>
      </trkpt>
      <trkpt lat="45.8105" lon="4.92981">
        <ele>176</ele>
        <time>2014-10-12T09:03:59.660Z</time>
      </trkpt>
      <trkpt lat="45.81087" lon="4.9302">
        <ele>176</ele>
        <time>2014-10-12T09:04:06.760Z</time>
      </trkpt>
      <trkpt lat="45.8112" lon="4.93067">
        <ele>176.76737120399</ele>
        <time>2014-10-12T09:04:14.660Z</time>
      </trkpt>
      <trkpt lat="45.81152" lon="4.93117">
        <ele>177</ele>
        <time>2014-10-12T09:04:22.560Z</time>
      </trkpt>
      <trkpt lat="45.81178" lon="4.93172">
        <ele>177</ele>
        <time>2014-10-12T09:04:30.560Z</time>
      </trkpt>
      <trkpt lat="45.81208" lon="4.93228">
        <ele>177</ele>
        <time>2014-10-12T09:04:38.560Z</time>
      </trkpt>
      <trkpt lat="45.81239" lon="4.9329">
        <ele>177</ele>
        <time>2014-10-12T09:04:46.760Z</time>
      </trkpt>
      <trkpt lat="45.81259" lon="4.9335">
        <ele>177</ele>
        <time>2014-10-12T09:04:54.560Z</time>
      </trkpt>
      <trkpt lat="45.81285" lon="4.93411">
        <ele>177</ele>
        <time>2014-10-12T09:05:02.760Z</time>
      </trkpt>
      <trkpt lat="45.81316" lon="4.93465">
        <ele>177</ele>
        <time>2014-10-12T09:05:10.760Z</time>
      </trkpt>
      <trkpt lat="45.81345" lon="4.93524">
        <ele>177</ele>
        <time>2014-10-12T09:05:18.760Z</time>
      </trkpt>
      <trkpt lat="45.81372" lon="4.93586">
        <ele>177</ele>
        <time>2014-10-12T09:05:26.760Z</time>
      </trkpt>
      <trkpt lat="45.81401" lon="4.9365">
        <ele>177</ele>
        <time>2014-10-12T09:05:34.560Z</time>
      </trkpt>
      <trkpt lat="45.8143" lon="4.93716">
        <ele>177</ele>
        <time>2014-10-12T09:05:42.760Z</time>
      </trkpt>
      <trkpt lat="45.8146" lon="4.93785">
        <ele>177</ele>
        <time>2014-10-12T09:05:50.760Z</time>
      </trkpt>
      <trkpt lat="45.81491" lon="4.93854">
        <ele>177</ele>
        <time>2014-10-12T09:05:58.560Z</time>
      </trkpt>
      <trkpt lat="45.81523" lon="4.93924">
        <ele>177</ele>
        <time>2014-10-12T09:06:06.560Z</time>
      </trkpt>
      <trkpt lat="45.81556" lon="4.93992">
        <ele>177.75900032</ele>
        <time>2014-10-12T09:06:14.560Z</time>
      </trkpt>
      <trkpt lat="45.81588" lon="4.9406">
        <ele>178</ele>
        <time>2014-10-12T09:06:22.560Z</time>
      </trkpt>
      <trkpt lat="45.81617" lon="4.94122">
        <ele>178</ele>
        <time>2014-10-12T09:06:30.560Z</time>
      </trkpt>
      <trkpt lat="45.81639" lon="4.94167">
        <ele>178</ele>
        <time>2014-10-12T09:06:38.560Z</time>
      </trkpt>
      <trkpt lat="45.81657" lon="4.94212">
        <ele>178</ele>
        <time>2014-10-12T09:06:46.760Z</time>
      </trkpt>
      <trkpt lat="45.81673" lon="4.94247">
        <ele>178</ele>
        <time>2014-10-12T09:06:54.560Z</time>
      </trkpt>
      <trkpt lat="45.81685" lon="4.94273">
        <ele>178</ele>
        <time>2014-10-12T09:07:02.560Z</time>
      </trkpt>
      <trkpt lat="45.81697" lon="4.943">
        <ele>178</ele>
        <time>2014-10-12T09:07:10.560Z</time>
      </trkpt>
      <trkpt lat="45.81684" lon="4.94298">
        <ele>178</ele>
        <time>2014-10-12T09:07:22.760Z</time>
      </trkpt>
      <trkpt lat="45.81642" lon="4.94312">
        <ele>178</ele>
        <time>2014-10-12T09:07:30.760Z</time>
      </trkpt>
      <trkpt lat="45.81591" lon="4.94328">
        <ele>178</ele>
        <time>2014-10-12T09:07:38.560Z</time>
      </trkpt>
      <trkpt lat="45.81546" lon="4.94342">
        <ele>178</ele>
        <time>2014-10-12T09:07:46.560Z</time>
      </trkpt>
      <trkpt lat="45.81503" lon="4.94356">
        <ele>178</ele>
        <time>2014-10-12T09:07:54.570Z</time>
      </trkpt>
      <trkpt lat="45.8146" lon="4.94369">
        <ele>177.42099968</ele>
        <time>2014-10-12T09:08:02.760Z</time>
      </trkpt>
      <trkpt lat="45.81417" lon="4.94385">
        <ele>177</ele>
        <time>2014-10-12T09:08:10.660Z</time>
      </trkpt>
      <trkpt lat="45.81369" lon="4.94401">
        <ele>177.16899968</ele>
        <time>2014-10-12T09:08:18.660Z</time>
      </trkpt>
      <trkpt lat="45.81329" lon="4.94417">
        <ele>177.96899968</ele>
        <time>2014-10-12T09:08:26.660Z</time>
      </trkpt>
      <trkpt lat="45.81304" lon="4.94411">
        <ele>176.46200064</ele>
        <time>2014-10-12T09:08:34.660Z</time>
      </trkpt>
      <trkpt lat="45.81317" lon="4.94409">
        <ele>175</ele>
        <time>2014-10-12T09:08:53.390Z</time>
      </trkpt>
      <trkpt lat="45.81304" lon="4.94441">
        <ele>175.91902530155</ele>
        <time>2014-10-12T09:09:06.390Z</time>
      </trkpt>
      <trkpt lat="45.81315" lon="4.94524">
        <ele>176</ele>
        <time>2014-10-12T09:09:14.400Z</time>
      </trkpt>
      <trkpt lat="45.81336" lon="4.94602">
        <ele>176.57000064</ele>
        <time>2014-10-12T09:09:22.670Z</time>
      </trkpt>
      <trkpt lat="45.81354" lon="4.94683">
        <ele>177</ele>
        <time>2014-10-12T09:09:30.660Z</time>
      </trkpt>
      <trkpt lat="45.81367" lon="4.9475">
        <ele>177</ele>
        <time>2014-10-12T09:09:38.660Z</time>
      </trkpt>
      <trkpt lat="45.81375" lon="4.948">
        <ele>177</ele>
        <time>2014-10-12T09:09:44.660Z</time>
      </trkpt>
      <trkpt lat="45.81384" lon="4.94846">
        <ele>177.34200064</ele>
        <time>2014-10-12T09:09:50.390Z</time>
      </trkpt>
      <trkpt lat="45.81398" lon="4.94908">
        <ele>177.85799936</ele>
        <time>2014-10-12T09:09:58.390Z</time>
      </trkpt>
      <trkpt lat="45.81418" lon="4.95003">
        <ele>177</ele>
        <time>2014-10-12T09:10:08.490Z</time>
      </trkpt>
      <trkpt lat="45.8143" lon="4.95065">
        <ele>177</ele>
        <time>2014-10-12T09:10:16.490Z</time>
      </trkpt>
      <trkpt lat="45.81441" lon="4.95139">
        <ele>177.7774423452</ele>
        <time>2014-10-12T09:10:24.760Z</time>
      </trkpt>
      <trkpt lat="45.81448" lon="4.95183">
        <ele>178</ele>
        <time>2014-10-12T09:10:29.490Z</time>
      </trkpt>
      <trkpt lat="45.81455" lon="4.95231">
        <ele>178</ele>
        <time>2014-10-12T09:10:35.490Z</time>
      </trkpt>
      <trkpt lat="45.81463" lon="4.95294">
        <ele>177.3686311668</ele>
        <time>2014-10-12T09:10:43.290Z</time>
      </trkpt>
      <trkpt lat="45.81474" lon="4.95366">
        <ele>177.45845895224</ele>
        <time>2014-10-12T09:10:51.560Z</time>
      </trkpt>
      <trkpt lat="45.81483" lon="4.95452">
        <ele>178</ele>
        <time>2014-10-12T09:11:00.560Z</time>
      </trkpt>
      <trkpt lat="45.81495" lon="4.95529">
        <ele>178</ele>
        <time>2014-10-12T09:11:08.300Z</time>
      </trkpt>
      <trkpt lat="45.81503" lon="4.95593">
        <ele>178</ele>
        <time>2014-10-12T09:11:14.500Z</time>
      </trkpt>
      <trkpt lat="45.81513" lon="4.95679">
        <ele>178</ele>
        <time>2014-10-12T09:11:22.490Z</time>
      </trkpt>
      <trkpt lat="45.81526" lon="4.95765">
        <ele>178</ele>
        <time>2014-10-12T09:11:30.760Z</time>
      </trkpt>
      <trkpt lat="45.81537" lon="4.95845">
        <ele>177.84099968</ele>
        <time>2014-10-12T09:11:38.560Z</time>
      </trkpt>
      <trkpt lat="45.81546" lon="4.9593">
        <ele>177.04099968</ele>
        <time>2014-10-12T09:11:46.560Z</time>
      </trkpt>
      <trkpt lat="45.81553" lon="4.96001">
        <ele>175.48199936</ele>
        <time>2014-10-12T09:11:54.560Z</time>
      </trkpt>
      <trkpt lat="45.81558" lon="4.96072">
        <ele>174.42099968</ele>
        <time>2014-10-12T09:12:02.760Z</time>
      </trkpt>
      <trkpt lat="45.81557" lon="4.96139">
        <ele>174.71800064</ele>
        <time>2014-10-12T09:12:10.560Z</time>
      </trkpt>
      <trkpt lat="45.81557" lon="4.96193">
        <ele>176.31800064</ele>
        <time>2014-10-12T09:12:18.560Z</time>
      </trkpt>
      <trkpt lat="45.81563" lon="4.96256">
        <ele>177.91800064</ele>
        <time>2014-10-12T09:12:26.560Z</time>
      </trkpt>
      <trkpt lat="45.8157" lon="4.96325">
        <ele>178.75900032</ele>
        <time>2014-10-12T09:12:34.560Z</time>
      </trkpt>
      <trkpt lat="45.81576" lon="4.96402">
        <ele>179</ele>
        <time>2014-10-12T09:12:42.560Z</time>
      </trkpt>
      <trkpt lat="45.81598" lon="4.96449">
        <ele>178.64099968</ele>
        <time>2014-10-12T09:12:50.560Z</time>
      </trkpt>
      <trkpt lat="45.81648" lon="4.96408">
        <ele>178</ele>
        <time>2014-10-12T09:12:58.560Z</time>
      </trkpt>
      <trkpt lat="45.81692" lon="4.96349">
        <ele>178</ele>
        <time>2014-10-12T09:13:06.560Z</time>
      </trkpt>
      <trkpt lat="45.81737" lon="4.96297">
        <ele>178</ele>
        <time>2014-10-12T09:13:14.560Z</time>
      </trkpt>
      <trkpt lat="45.81777" lon="4.96259">
        <ele>177.44099968</ele>
        <time>2014-10-12T09:13:22.560Z</time>
      </trkpt>
      <trkpt lat="45.81813" lon="4.96265">
        <ele>177.37900032</ele>
        <time>2014-10-12T09:13:30.760Z</time>
      </trkpt>
      <trkpt lat="45.81824" lon="4.96346">
        <ele>178</ele>
        <time>2014-10-12T09:13:38.290Z</time>
      </trkpt>
      <trkpt lat="45.81844" lon="4.96419">
        <ele>178</ele>
        <time>2014-10-12T09:13:46.290Z</time>
      </trkpt>
      <trkpt lat="45.81858" lon="4.96492">
        <ele>178</ele>
        <time>2014-10-12T09:13:56.760Z</time>
      </trkpt>
      <trkpt lat="45.81878" lon="4.96551">
        <ele>178</ele>
        <time>2014-10-12T09:14:07.390Z</time>
      </trkpt>
      <trkpt lat="45.81896" lon="4.966">
        <ele>178</ele>
        <time>2014-10-12T09:14:15.490Z</time>
      </trkpt>
      <trkpt lat="45.81916" lon="4.96652">
        <ele>178</ele>
        <time>2014-10-12T09:14:23.560Z</time>
      </trkpt>
      <trkpt lat="45.81928" lon="4.967">
        <ele>178</ele>
        <time>2014-10-12T09:14:31.760Z</time>
      </trkpt>
      <trkpt lat="45.8194" lon="4.96703">
        <ele>177.72099968</ele>
        <time>2014-10-12T09:14:39.760Z</time>
      </trkpt>
      <trkpt lat="45.81959" lon="4.96683">
        <ele>177</ele>
        <time>2014-10-12T09:14:47.560Z</time>
      </trkpt>
      <trkpt lat="45.81968" lon="4.96669">
        <ele>177</ele>
        <time>2014-10-12T09:14:53.760Z</time>
      </trkpt>
      <trkpt lat="45.81967" lon="4.96651">
        <ele>176.11823590749</ele>
        <time>2014-10-12T09:15:01.390Z</time>
      </trkpt>
      <trkpt lat="45.81964" lon="4.96665">
        <ele>175.432</ele>
        <time>2014-10-12T09:15:21.290Z</time>
      </trkpt>
      <trkpt lat="45.81949" lon="4.96686">
        <ele>176</ele>
        <time>2014-10-12T09:15:31.490Z</time>
      </trkpt>
      <trkpt lat="45.81927" lon="4.96708">
        <ele>176</ele>
        <time>2014-10-12T09:15:39.660Z</time>
      </trkpt>
      <trkpt lat="45.81947" lon="4.96755">
        <ele>176.06900096</ele>
        <time>2014-10-12T09:15:47.660Z</time>
      </trkpt>
      <trkpt lat="45.81962" lon="4.96807">
        <ele>176.87900032</ele>
        <time>2014-10-12T09:15:55.760Z</time>
      </trkpt>
      <trkpt lat="45.81983" lon="4.96873">
        <ele>177.64200064</ele>
        <time>2014-10-12T09:16:03.390Z</time>
      </trkpt>
      <trkpt lat="45.82004" lon="4.96942">
        <ele>178</ele>
        <time>2014-10-12T09:16:11.660Z</time>
      </trkpt>
      <trkpt lat="45.82023" lon="4.97014">
        <ele>178.26900096</ele>
        <time>2014-10-12T09:16:19.660Z</time>
      </trkpt>
      <trkpt lat="45.82005" lon="4.97079">
        <ele>179</ele>
        <time>2014-10-12T09:16:27.660Z</time>
      </trkpt>
      <trkpt lat="45.81958" lon="4.97127">
        <ele>179</ele>
        <time>2014-10-12T09:16:35.760Z</time>
      </trkpt>
      <trkpt lat="45.8191" lon="4.97173">
        <ele>177.68199936</ele>
        <time>2014-10-12T09:16:43.560Z</time>
      </trkpt>
      <trkpt lat="45.81872" lon="4.97224">
        <ele>177.48</ele>
        <time>2014-10-12T09:16:51.770Z</time>
      </trkpt>
      <trkpt lat="45.81825" lon="4.97272">
        <ele>178</ele>
        <time>2014-10-12T09:16:59.490Z</time>
      </trkpt>
      <trkpt lat="45.81781" lon="4.97271">
        <ele>178</ele>
        <time>2014-10-12T09:17:07.560Z</time>
      </trkpt>
      <trkpt lat="45.81747" lon="4.97296">
        <ele>178</ele>
        <time>2014-10-12T09:17:15.560Z</time>
      </trkpt>
      <trkpt lat="45.81747" lon="4.97354">
        <ele>178</ele>
        <time>2014-10-12T09:17:22.660Z</time>
      </trkpt>
      <trkpt lat="45.81778" lon="4.97418">
        <ele>178.352</ele>
        <time>2014-10-12T09:17:30.490Z</time>
      </trkpt>
      <trkpt lat="45.81796" lon="4.97452">
        <ele>178.852</ele>
        <time>2014-10-12T09:17:35.490Z</time>
      </trkpt>
      <trkpt lat="45.81776" lon="4.97504">
        <ele>179</ele>
        <time>2014-10-12T09:17:45.490Z</time>
      </trkpt>
      <trkpt lat="45.81744" lon="4.97537">
        <ele>179</ele>
        <time>2014-10-12T09:17:51.490Z</time>
      </trkpt>
      <trkpt lat="45.81707" lon="4.97649">
        <ele>179</ele>
        <time>2014-10-12T09:18:04.490Z</time>
      </trkpt>
      <trkpt lat="45.8169" lon="4.97718">
        <ele>179.552</ele>
        <time>2014-10-12T09:18:12.490Z</time>
      </trkpt>
      <trkpt lat="45.81648" lon="4.97763">
        <ele>180</ele>
        <time>2014-10-12T09:18:20.560Z</time>
      </trkpt>
      <trkpt lat="45.81637" lon="4.97778">
        <ele>180</ele>
        <time>2014-10-12T09:18:26.760Z</time>
      </trkpt>
      <trkpt lat="45.81625" lon="4.97783">
        <ele>179.85799936</ele>
        <time>2014-10-12T09:18:38.390Z</time>
      </trkpt>
      <trkpt lat="45.81631" lon="4.97769">
        <ele>179.068</ele>
        <time>2014-10-12T09:18:46.290Z</time>
      </trkpt>
      <trkpt lat="45.81645" lon="4.9775">
        <ele>179</ele>
        <time>2014-10-12T09:18:52.760Z</time>
      </trkpt>
      <trkpt lat="45.81642" lon="4.9771">
        <ele>179.432</ele>
        <time>2014-10-12T09:19:01.290Z</time>
      </trkpt>
      <trkpt lat="45.81636" lon="4.97669">
        <ele>180</ele>
        <time>2014-10-12T09:19:09.560Z</time>
      </trkpt>
      <trkpt lat="45.81628" lon="4.97632">
        <ele>179.968</ele>
        <time>2014-10-12T09:19:17.290Z</time>
      </trkpt>
      <trkpt lat="45.81621" lon="4.97593">
        <ele>179.148</ele>
        <time>2014-10-12T09:19:25.490Z</time>
      </trkpt>
      <trkpt lat="45.81615" lon="4.9755">
        <ele>178.34099968</ele>
        <time>2014-10-12T09:19:33.560Z</time>
      </trkpt>
      <trkpt lat="45.81611" lon="4.97518">
        <ele>178</ele>
        <time>2014-10-12T09:19:41.560Z</time>
      </trkpt>
      <trkpt lat="45.81609" lon="4.9748">
        <ele>178</ele>
        <time>2014-10-12T09:19:49.560Z</time>
      </trkpt>
      <trkpt lat="45.81606" lon="4.97447">
        <ele>178.07900032</ele>
        <time>2014-10-12T09:19:57.760Z</time>
      </trkpt>
      <trkpt lat="45.81604" lon="4.97399">
        <ele>178.87900032</ele>
        <time>2014-10-12T09:20:05.760Z</time>
      </trkpt>
      <trkpt lat="45.81602" lon="4.97353">
        <ele>179</ele>
        <time>2014-10-12T09:20:13.560Z</time>
      </trkpt>
      <trkpt lat="45.816" lon="4.97306">
        <ele>179</ele>
        <time>2014-10-12T09:20:21.560Z</time>
      </trkpt>
      <trkpt lat="45.81595" lon="4.97271">
        <ele>179</ele>
        <time>2014-10-12T09:20:27.390Z</time>
      </trkpt>
      <trkpt lat="45.8159" lon="4.97228">
        <ele>179</ele>
        <time>2014-10-12T09:20:35.490Z</time>
      </trkpt>
      <trkpt lat="45.81591" lon="4.9719">
        <ele>179.67900032</ele>
        <time>2014-10-12T09:20:43.760Z</time>
      </trkpt>
      <trkpt lat="45.81585" lon="4.97146">
        <ele>180</ele>
        <time>2014-10-12T09:20:51.560Z</time>
      </trkpt>
      <trkpt lat="45.81579" lon="4.971">
        <ele>179.74099968</ele>
        <time>2014-10-12T09:20:59.560Z</time>
      </trkpt>
      <trkpt lat="45.81572" lon="4.97044">
        <ele>178.62099968</ele>
        <time>2014-10-12T09:21:10.760Z</time>
      </trkpt>
      <trkpt lat="45.81568" lon="4.97004">
        <ele>178</ele>
        <time>2014-10-12T09:21:18.490Z</time>
      </trkpt>
      <trkpt lat="45.81559" lon="4.96961">
        <ele>178</ele>
        <time>2014-10-12T09:21:25.490Z</time>
      </trkpt>
      <trkpt lat="45.81554" lon="4.9692">
        <ele>178</ele>
        <time>2014-10-12T09:21:33.290Z</time>
      </trkpt>
      <trkpt lat="45.81547" lon="4.96877">
        <ele>177.54208419533</ele>
        <time>2014-10-12T09:21:41.560Z</time>
      </trkpt>
      <trkpt lat="45.81547" lon="4.96834">
        <ele>176.748</ele>
        <time>2014-10-12T09:21:49.490Z</time>
      </trkpt>
      <trkpt lat="45.81544" lon="4.96792">
        <ele>176.032</ele>
        <time>2014-10-12T09:21:57.290Z</time>
      </trkpt>
      <trkpt lat="45.8154" lon="4.96766">
        <ele>176.652</ele>
        <time>2014-10-12T09:22:03.490Z</time>
      </trkpt>
      <trkpt lat="45.81534" lon="4.96729">
        <ele>177</ele>
        <time>2014-10-12T09:22:11.490Z</time>
      </trkpt>
      <trkpt lat="45.81529" lon="4.96692">
        <ele>177</ele>
        <time>2014-10-12T09:22:19.560Z</time>
      </trkpt>
      <trkpt lat="45.81529" lon="4.96665">
        <ele>177</ele>
        <time>2014-10-12T09:22:24.760Z</time>
      </trkpt>
      <trkpt lat="45.81527" lon="4.9661">
        <ele>178.064</ele>
        <time>2014-10-12T09:22:32.290Z</time>
      </trkpt>
      <trkpt lat="45.81523" lon="4.96571">
        <ele>179</ele>
        <time>2014-10-12T09:22:38.590Z</time>
      </trkpt>
      <trkpt lat="45.81523" lon="4.96532">
        <ele>179</ele>
        <time>2014-10-12T09:22:45.490Z</time>
      </trkpt>
      <trkpt lat="45.81517" lon="4.96494">
        <ele>179</ele>
        <time>2014-10-12T09:22:53.290Z</time>
      </trkpt>
      <trkpt lat="45.81519" lon="4.96451">
        <ele>180.37237481566</ele>
        <time>2014-10-12T09:23:01.550Z</time>
      </trkpt>
      <trkpt lat="45.81516" lon="4.96417">
        <ele>182</ele>
        <time>2014-10-12T09:23:07.400Z</time>
      </trkpt>
      <trkpt lat="45.81514" lon="4.96372">
        <ele>182</ele>
        <time>2014-10-12T09:23:15.290Z</time>
      </trkpt>
      <trkpt lat="45.81515" lon="4.96333">
        <ele>182</ele>
        <time>2014-10-12T09:23:23.290Z</time>
      </trkpt>
      <trkpt lat="45.81508" lon="4.96286">
        <ele>182</ele>
        <time>2014-10-12T09:23:35.760Z</time>
      </trkpt>
      <trkpt lat="45.815" lon="4.96246">
        <ele>182</ele>
        <time>2014-10-12T09:23:43.560Z</time>
      </trkpt>
      <trkpt lat="45.815" lon="4.96211">
        <ele>182</ele>
        <time>2014-10-12T09:23:50.760Z</time>
      </trkpt>
      <trkpt lat="45.81487" lon="4.96159">
        <ele>182</ele>
        <time>2014-10-12T09:23:59.490Z</time>
      </trkpt>
      <trkpt lat="45.81471" lon="4.96121">
        <ele>182.052</ele>
        <time>2014-10-12T09:24:07.490Z</time>
      </trkpt>
      <trkpt lat="45.81448" lon="4.96097">
        <ele>182.832</ele>
        <time>2014-10-12T09:24:15.290Z</time>
      </trkpt>
      <trkpt lat="45.8143" lon="4.96091">
        <ele>183</ele>
        <time>2014-10-12T09:24:21.760Z</time>
      </trkpt>
      <trkpt lat="45.814" lon="4.96083">
        <ele>183</ele>
        <time>2014-10-12T09:24:30.490Z</time>
      </trkpt>
      <trkpt lat="45.81371" lon="4.96084">
        <ele>183</ele>
        <time>2014-10-12T09:24:38.290Z</time>
      </trkpt>
      <trkpt lat="45.81346" lon="4.96077">
        <ele>183.04300032</ele>
        <time>2014-10-12T09:24:47.400Z</time>
      </trkpt>
      <trkpt lat="45.81319" lon="4.96078">
        <ele>183.752</ele>
        <time>2014-10-12T09:24:54.490Z</time>
      </trkpt>
      <trkpt lat="45.81312" lon="4.96119">
        <ele>184.552</ele>
        <time>2014-10-12T09:25:02.490Z</time>
      </trkpt>
      <trkpt lat="45.81312" lon="4.96167">
        <ele>184.62099968</ele>
        <time>2014-10-12T09:25:10.760Z</time>
      </trkpt>
      <trkpt lat="45.81292" lon="4.96176">
        <ele>184</ele>
        <time>2014-10-12T09:25:18.760Z</time>
      </trkpt>
      <trkpt lat="45.81257" lon="4.96194">
        <ele>184</ele>
        <time>2014-10-12T09:25:26.760Z</time>
      </trkpt>
      <trkpt lat="45.81236" lon="4.9623">
        <ele>182.4853972964</ele>
        <time>2014-10-12T09:25:34.560Z</time>
      </trkpt>
      <trkpt lat="45.81231" lon="4.96264">
        <ele>181.62099968</ele>
        <time>2014-10-12T09:25:40.760Z</time>
      </trkpt>
      <trkpt lat="45.81246" lon="4.96306">
        <ele>180.86865684188</ele>
        <time>2014-10-12T09:25:48.290Z</time>
      </trkpt>
      <trkpt lat="45.81263" lon="4.96352">
        <ele>180.05273722326</ele>
        <time>2014-10-12T09:25:56.490Z</time>
      </trkpt>
      <trkpt lat="45.81271" lon="4.96396">
        <ele>178.44623029988</ele>
        <time>2014-10-12T09:26:04.750Z</time>
      </trkpt>
      <trkpt lat="45.81283" lon="4.96433">
        <ele>178</ele>
        <time>2014-10-12T09:26:12.560Z</time>
      </trkpt>
      <trkpt lat="45.8131" lon="4.96476">
        <ele>177.42099968</ele>
        <time>2014-10-12T09:26:22.760Z</time>
      </trkpt>
      <trkpt lat="45.81312" lon="4.96505">
        <ele>177</ele>
        <time>2014-10-12T09:26:28.390Z</time>
      </trkpt>
      <trkpt lat="45.81314" lon="4.96538">
        <ele>177</ele>
        <time>2014-10-12T09:26:35.490Z</time>
      </trkpt>
      <trkpt lat="45.81335" lon="4.96555">
        <ele>177.652</ele>
        <time>2014-10-12T09:26:43.490Z</time>
      </trkpt>
      <trkpt lat="45.81355" lon="4.96571">
        <ele>178.47900032</ele>
        <time>2014-10-12T09:26:51.760Z</time>
      </trkpt>
      <trkpt lat="45.81375" lon="4.96615">
        <ele>179</ele>
        <time>2014-10-12T09:26:59.760Z</time>
      </trkpt>
      <trkpt lat="45.81399" lon="4.96615">
        <ele>179</ele>
        <time>2014-10-12T09:27:07.760Z</time>
      </trkpt>
      <trkpt lat="45.81429" lon="4.9659">
        <ele>179</ele>
        <time>2014-10-12T09:27:15.760Z</time>
      </trkpt>
      <trkpt lat="45.8145" lon="4.96571">
        <ele>179</ele>
        <time>2014-10-12T09:27:23.560Z</time>
      </trkpt>
      <trkpt lat="45.81483" lon="4.96591">
        <ele>179.77877916996</ele>
        <time>2014-10-12T09:27:34.760Z</time>
      </trkpt>
      <trkpt lat="45.81478" lon="4.96633">
        <ele>180.532</ele>
        <time>2014-10-12T09:27:42.290Z</time>
      </trkpt>
      <trkpt lat="45.81486" lon="4.96681">
        <ele>181.37900032</ele>
        <time>2014-10-12T09:27:50.760Z</time>
      </trkpt>
      <trkpt lat="45.81496" lon="4.9672">
        <ele>182</ele>
        <time>2014-10-12T09:27:58.760Z</time>
      </trkpt>
      <trkpt lat="45.81502" lon="4.96763">
        <ele>182</ele>
        <time>2014-10-12T09:28:06.760Z</time>
      </trkpt>
      <trkpt lat="45.81514" lon="4.96816">
        <ele>181.02876952381</ele>
        <time>2014-10-12T09:28:16.760Z</time>
      </trkpt>
      <trkpt lat="45.81522" lon="4.96855">
        <ele>181</ele>
        <time>2014-10-12T09:28:24.760Z</time>
      </trkpt>
      <trkpt lat="45.81519" lon="4.96892">
        <ele>181</ele>
        <time>2014-10-12T09:28:32.760Z</time>
      </trkpt>
      <trkpt lat="45.81496" lon="4.96922">
        <ele>181.37900032</ele>
        <time>2014-10-12T09:28:40.760Z</time>
      </trkpt>
      <trkpt lat="45.81478" lon="4.96953">
        <ele>182</ele>
        <time>2014-10-12T09:28:48.760Z</time>
      </trkpt>
      <trkpt lat="45.81488" lon="4.96985">
        <ele>182</ele>
        <time>2014-10-12T09:28:56.760Z</time>
      </trkpt>
      <trkpt lat="45.81506" lon="4.97015">
        <ele>182</ele>
        <time>2014-10-12T09:29:04.760Z</time>
      </trkpt>
      <trkpt lat="45.81522" lon="4.97046">
        <ele>182</ele>
        <time>2014-10-12T09:29:12.760Z</time>
      </trkpt>
      <trkpt lat="45.81539" lon="4.9709">
        <ele>182</ele>
        <time>2014-10-12T09:29:20.760Z</time>
      </trkpt>
      <trkpt lat="45.8155" lon="4.97132">
        <ele>182</ele>
        <time>2014-10-12T09:29:28.760Z</time>
      </trkpt>
      <trkpt lat="45.81535" lon="4.97175">
        <ele>182</ele>
        <time>2014-10-12T09:29:36.760Z</time>
      </trkpt>
      <trkpt lat="45.81505" lon="4.97203">
        <ele>182</ele>
        <time>2014-10-12T09:29:44.760Z</time>
      </trkpt>
      <trkpt lat="45.81479" lon="4.97236">
        <ele>182</ele>
        <time>2014-10-12T09:29:52.760Z</time>
      </trkpt>
      <trkpt lat="45.81474" lon="4.97285">
        <ele>182.77900032</ele>
        <time>2014-10-12T09:30:04.760Z</time>
      </trkpt>
      <trkpt lat="45.81482" lon="4.97309">
        <ele>182.42099968</ele>
        <time>2014-10-12T09:30:12.760Z</time>
      </trkpt>
      <trkpt lat="45.81474" lon="4.97343">
        <ele>182</ele>
        <time>2014-10-12T09:30:20.560Z</time>
      </trkpt>
      <trkpt lat="45.81453" lon="4.97374">
        <ele>182</ele>
        <time>2014-10-12T09:30:28.760Z</time>
      </trkpt>
      <trkpt lat="45.81436" lon="4.97405">
        <ele>182</ele>
        <time>2014-10-12T09:30:36.760Z</time>
      </trkpt>
      <trkpt lat="45.81436" lon="4.97446">
        <ele>182</ele>
        <time>2014-10-12T09:30:44.760Z</time>
      </trkpt>
      <trkpt lat="45.81431" lon="4.97485">
        <ele>182</ele>
        <time>2014-10-12T09:30:52.760Z</time>
      </trkpt>
      <trkpt lat="45.81416" lon="4.97522">
        <ele>182</ele>
        <time>2014-10-12T09:31:00.760Z</time>
      </trkpt>
      <trkpt lat="45.81411" lon="4.97552">
        <ele>182</ele>
        <time>2014-10-12T09:31:08.770Z</time>
      </trkpt>
      <trkpt lat="45.81389" lon="4.97575">
        <ele>182</ele>
        <time>2014-10-12T09:31:16.760Z</time>
      </trkpt>
      <trkpt lat="45.81381" lon="4.97588">
        <ele>182</ele>
        <time>2014-10-12T09:31:28.760Z</time>
      </trkpt>
      <trkpt lat="45.81364" lon="4.97611">
        <ele>182</ele>
        <time>2014-10-12T09:31:36.760Z</time>
      </trkpt>
      <trkpt lat="45.81337" lon="4.97656">
        <ele>182</ele>
        <time>2014-10-12T09:31:44.760Z</time>
      </trkpt>
      <trkpt lat="45.81308" lon="4.97703">
        <ele>182</ele>
        <time>2014-10-12T09:31:52.760Z</time>
      </trkpt>
      <trkpt lat="45.81284" lon="4.97744">
        <ele>182.37900032</ele>
        <time>2014-10-12T09:32:00.760Z</time>
      </trkpt>
      <trkpt lat="45.81256" lon="4.97776">
        <ele>183</ele>
        <time>2014-10-12T09:32:08.760Z</time>
      </trkpt>
      <trkpt lat="45.81228" lon="4.97812">
        <ele>183</ele>
        <time>2014-10-12T09:32:16.760Z</time>
      </trkpt>
      <trkpt lat="45.81203" lon="4.9785">
        <ele>183</ele>
        <time>2014-10-12T09:32:24.760Z</time>
      </trkpt>
      <trkpt lat="45.81178" lon="4.97859">
        <ele>183</ele>
        <time>2014-10-12T09:32:36.760Z</time>
      </trkpt>
      <trkpt lat="45.81162" lon="4.97884">
        <ele>182.22099968</ele>
        <time>2014-10-12T09:32:44.760Z</time>
      </trkpt>
      <trkpt lat="45.81144" lon="4.97917">
        <ele>181.42099968</ele>
        <time>2014-10-12T09:32:52.760Z</time>
      </trkpt>
      <trkpt lat="45.81135" lon="4.97962">
        <ele>181</ele>
        <time>2014-10-12T09:33:01.860Z</time>
      </trkpt>
      <trkpt lat="45.81132" lon="4.97992">
        <ele>181.16300032</ele>
        <time>2014-10-12T09:33:08.600Z</time>
      </trkpt>
      <trkpt lat="45.81128" lon="4.98018">
        <ele>181.75299968</ele>
        <time>2014-10-12T09:33:14.500Z</time>
      </trkpt>
      <trkpt lat="45.81118" lon="4.98049">
        <ele>182.552</ele>
        <time>2014-10-12T09:33:22.490Z</time>
      </trkpt>
      <trkpt lat="45.8111" lon="4.9808">
        <ele>183.352</ele>
        <time>2014-10-12T09:33:30.490Z</time>
      </trkpt>
      <trkpt lat="45.81098" lon="4.98122">
        <ele>184</ele>
        <time>2014-10-12T09:33:38.760Z</time>
      </trkpt>
      <trkpt lat="45.81086" lon="4.9816">
        <ele>184</ele>
        <time>2014-10-12T09:33:46.760Z</time>
      </trkpt>
      <trkpt lat="45.81072" lon="4.98195">
        <ele>184.32206866191</ele>
        <time>2014-10-12T09:33:58.590Z</time>
      </trkpt>
      <trkpt lat="45.8106" lon="4.98218">
        <ele>185.89264293112</ele>
        <time>2014-10-12T09:34:06.490Z</time>
      </trkpt>
      <trkpt lat="45.8105" lon="4.98263">
        <ele>186</ele>
        <time>2014-10-12T09:34:14.760Z</time>
      </trkpt>
      <trkpt lat="45.81032" lon="4.98301">
        <ele>186</ele>
        <time>2014-10-12T09:34:22.760Z</time>
      </trkpt>
      <trkpt lat="45.81039" lon="4.98324">
        <ele>185.63275162791</ele>
        <time>2014-10-12T09:34:30.760Z</time>
      </trkpt>
      <trkpt lat="45.81065" lon="4.98341">
        <ele>185.05135627907</ele>
        <time>2014-10-12T09:34:36.760Z</time>
      </trkpt>
      <trkpt lat="45.81099" lon="4.98355">
        <ele>185</ele>
        <time>2014-10-12T09:34:44.490Z</time>
      </trkpt>
      <trkpt lat="45.81126" lon="4.9837">
        <ele>185</ele>
        <time>2014-10-12T09:34:52.760Z</time>
      </trkpt>
      <trkpt lat="45.81156" lon="4.98382">
        <ele>184.62099968</ele>
        <time>2014-10-12T09:35:00.760Z</time>
      </trkpt>
      <trkpt lat="45.81181" lon="4.98396">
        <ele>184</ele>
        <time>2014-10-12T09:35:08.760Z</time>
      </trkpt>
      <trkpt lat="45.81207" lon="4.98415">
        <ele>184</ele>
        <time>2014-10-12T09:35:16.760Z</time>
      </trkpt>
      <trkpt lat="45.81197" lon="4.98437">
        <ele>184</ele>
        <time>2014-10-12T09:35:21.760Z</time>
      </trkpt>
      <trkpt lat="45.81182" lon="4.98468">
        <ele>183.496</ele>
        <time>2014-10-12T09:35:29.490Z</time>
      </trkpt>
      <trkpt lat="45.81167" lon="4.98499">
        <ele>182.07900032</ele>
        <time>2014-10-12T09:35:37.760Z</time>
      </trkpt>
      <trkpt lat="45.81147" lon="4.98534">
        <ele>182.87900032</ele>
        <time>2014-10-12T09:35:45.760Z</time>
      </trkpt>
      <trkpt lat="45.81128" lon="4.9857">
        <ele>183.67900032</ele>
        <time>2014-10-12T09:35:53.760Z</time>
      </trkpt>
      <trkpt lat="45.81104" lon="4.98617">
        <ele>184.77900032</ele>
        <time>2014-10-12T09:36:04.760Z</time>
      </trkpt>
      <trkpt lat="45.81081" lon="4.98651">
        <ele>185.75299968</ele>
        <time>2014-10-12T09:36:14.500Z</time>
      </trkpt>
      <trkpt lat="45.81067" lon="4.98684">
        <ele>186.552</ele>
        <time>2014-10-12T09:36:22.490Z</time>
      </trkpt>
      <trkpt lat="45.8108" lon="4.98722">
        <ele>187</ele>
        <time>2014-10-12T09:36:30.760Z</time>
      </trkpt>
      <trkpt lat="45.81106" lon="4.98754">
        <ele>187</ele>
        <time>2014-10-12T09:36:42.490Z</time>
      </trkpt>
      <trkpt lat="45.81132" lon="4.98777">
        <ele>187</ele>
        <time>2014-10-12T09:36:50.760Z</time>
      </trkpt>
      <trkpt lat="45.8116" lon="4.98809">
        <ele>186.64199936</ele>
        <time>2014-10-12T09:36:58.760Z</time>
      </trkpt>
      <trkpt lat="45.81196" lon="4.98838">
        <ele>185.24200064</ele>
        <time>2014-10-12T09:37:09.390Z</time>
      </trkpt>
      <trkpt lat="45.81221" lon="4.98863">
        <ele>186.104</ele>
        <time>2014-10-12T09:37:17.490Z</time>
      </trkpt>
      <trkpt lat="45.81243" lon="4.98895">
        <ele>187.704</ele>
        <time>2014-10-12T09:37:25.490Z</time>
      </trkpt>
      <trkpt lat="45.81264" lon="4.98923">
        <ele>188</ele>
        <time>2014-10-12T09:37:33.760Z</time>
      </trkpt>
      <trkpt lat="45.81292" lon="4.98956">
        <ele>188</ele>
        <time>2014-10-12T09:37:43.760Z</time>
      </trkpt>
      <trkpt lat="45.81314" lon="4.98982">
        <ele>188</ele>
        <time>2014-10-12T09:37:51.490Z</time>
      </trkpt>
      <trkpt lat="45.81337" lon="4.99001">
        <ele>187.72099968</ele>
        <time>2014-10-12T09:37:59.760Z</time>
      </trkpt>
      <trkpt lat="45.81346" lon="4.98988">
        <ele>187</ele>
        <time>2014-10-12T09:38:07.760Z</time>
      </trkpt>
      <trkpt lat="45.81346" lon="4.98936">
        <ele>187</ele>
        <time>2014-10-12T09:38:15.760Z</time>
      </trkpt>
      <trkpt lat="45.81347" lon="4.98909">
        <ele>186.62099968</ele>
        <time>2014-10-12T09:38:20.760Z</time>
      </trkpt>
      <trkpt lat="45.81354" lon="4.98861">
        <ele>186</ele>
        <time>2014-10-12T09:38:28.490Z</time>
      </trkpt>
      <trkpt lat="45.81358" lon="4.98826">
        <ele>186</ele>
        <time>2014-10-12T09:38:36.490Z</time>
      </trkpt>
      <trkpt lat="45.8137" lon="4.98789">
        <ele>187.55800064</ele>
        <time>2014-10-12T09:38:44.760Z</time>
      </trkpt>
      <trkpt lat="45.81379" lon="4.98752">
        <ele>188</ele>
        <time>2014-10-12T09:38:52.760Z</time>
      </trkpt>
      <trkpt lat="45.8139" lon="4.98715">
        <ele>187.62099968</ele>
        <time>2014-10-12T09:39:00.760Z</time>
      </trkpt>
      <trkpt lat="45.814" lon="4.98681">
        <ele>187</ele>
        <time>2014-10-12T09:39:08.760Z</time>
      </trkpt>
      <trkpt lat="45.81411" lon="4.98646">
        <ele>187</ele>
        <time>2014-10-12T09:39:16.760Z</time>
      </trkpt>
      <trkpt lat="45.81421" lon="4.98611">
        <ele>187.77877916996</ele>
        <time>2014-10-12T09:39:24.760Z</time>
      </trkpt>
      <trkpt lat="45.81428" lon="4.98573">
        <ele>188.57900032</ele>
        <time>2014-10-12T09:39:32.760Z</time>
      </trkpt>
      <trkpt lat="45.81429" lon="4.98537">
        <ele>189</ele>
        <time>2014-10-12T09:39:40.660Z</time>
      </trkpt>
      <trkpt lat="45.81438" lon="4.98506">
        <ele>189</ele>
        <time>2014-10-12T09:39:56.660Z</time>
      </trkpt>
      <trkpt lat="45.81414" lon="4.98473">
        <ele>188.22099968</ele>
        <time>2014-10-12T09:40:04.760Z</time>
      </trkpt>
      <trkpt lat="45.8139" lon="4.9844">
        <ele>188</ele>
        <time>2014-10-12T09:40:12.760Z</time>
      </trkpt>
      <trkpt lat="45.81374" lon="4.98409">
        <ele>188</ele>
        <time>2014-10-12T09:40:20.760Z</time>
      </trkpt>
      <trkpt lat="45.81356" lon="4.98374">
        <ele>188</ele>
        <time>2014-10-12T09:40:28.760Z</time>
      </trkpt>
      <trkpt lat="45.81374" lon="4.9835">
        <ele>188</ele>
        <time>2014-10-12T09:40:36.760Z</time>
      </trkpt>
      <trkpt lat="45.81399" lon="4.98332">
        <ele>188</ele>
        <time>2014-10-12T09:40:44.760Z</time>
      </trkpt>
      <trkpt lat="45.81419" lon="4.98306">
        <ele>188</ele>
        <time>2014-10-12T09:40:52.860Z</time>
      </trkpt>
      <trkpt lat="45.81438" lon="4.9828">
        <ele>187.62999936</ele>
        <time>2014-10-12T09:41:00.670Z</time>
      </trkpt>
      <trkpt lat="45.81445" lon="4.98249">
        <ele>187</ele>
        <time>2014-10-12T09:41:08.860Z</time>
      </trkpt>
      <trkpt lat="45.81463" lon="4.98215">
        <ele>187</ele>
        <time>2014-10-12T09:41:16.660Z</time>
      </trkpt>
      <trkpt lat="45.81484" lon="4.9819">
        <ele>187</ele>
        <time>2014-10-12T09:41:24.660Z</time>
      </trkpt>
      <trkpt lat="45.815" lon="4.98159">
        <ele>187</ele>
        <time>2014-10-12T09:41:36.660Z</time>
      </trkpt>
      <trkpt lat="45.81496" lon="4.9813">
        <ele>186.23100032</ele>
        <time>2014-10-12T09:41:44.660Z</time>
      </trkpt>
      <trkpt lat="45.81476" lon="4.98099">
        <ele>186</ele>
        <time>2014-10-12T09:41:52.760Z</time>
      </trkpt>
      <trkpt lat="45.81472" lon="4.98076">
        <ele>186</ele>
        <time>2014-10-12T09:41:58.590Z</time>
      </trkpt>
      <trkpt lat="45.81474" lon="4.98057">
        <ele>186</ele>
        <time>2014-10-12T09:42:03.590Z</time>
      </trkpt>
      <trkpt lat="45.81494" lon="4.98037">
        <ele>186</ele>
        <time>2014-10-12T09:42:16.590Z</time>
      </trkpt>
      <trkpt lat="45.81526" lon="4.98006">
        <ele>185.16200064</ele>
        <time>2014-10-12T09:42:28.590Z</time>
      </trkpt>
      <trkpt lat="45.81547" lon="4.97961">
        <ele>186</ele>
        <time>2014-10-12T09:42:39.490Z</time>
      </trkpt>
      <trkpt lat="45.81559" lon="4.97928">
        <ele>186</ele>
        <time>2014-10-12T09:42:47.500Z</time>
      </trkpt>
      <trkpt lat="45.81574" lon="4.97898">
        <ele>186</ele>
        <time>2014-10-12T09:42:55.500Z</time>
      </trkpt>
      <trkpt lat="45.81578" lon="4.97852">
        <ele>186</ele>
        <time>2014-10-12T09:43:07.660Z</time>
      </trkpt>
      <trkpt lat="45.81574" lon="4.97825">
        <ele>186</ele>
        <time>2014-10-12T09:43:14.760Z</time>
      </trkpt>
      <trkpt lat="45.81596" lon="4.97802">
        <ele>185.05309673254</ele>
        <time>2014-10-12T09:43:26.600Z</time>
      </trkpt>
      <trkpt lat="45.81627" lon="4.97832">
        <ele>186</ele>
        <time>2014-10-12T09:43:37.490Z</time>
      </trkpt>
      <trkpt lat="45.81635" lon="4.97822">
        <ele>186</ele>
        <time>2014-10-12T09:43:45.390Z</time>
      </trkpt>
      <trkpt lat="45.81637" lon="4.97786">
        <ele>185.64200064</ele>
        <time>2014-10-12T09:44:03.390Z</time>
      </trkpt>
      <trkpt lat="45.81656" lon="4.97742">
        <ele>186</ele>
        <time>2014-10-12T09:44:12.660Z</time>
      </trkpt>
      <trkpt lat="45.81648" lon="4.97704">
        <ele>186</ele>
        <time>2014-10-12T09:44:20.390Z</time>
      </trkpt>
      <trkpt lat="45.81638" lon="4.97692">
        <ele>186</ele>
        <time>2014-10-12T09:44:26.590Z</time>
      </trkpt>
      <trkpt lat="45.81642" lon="4.97705">
        <ele>185</ele>
        <time>2014-10-12T09:45:00.660Z</time>
      </trkpt>
      <trkpt lat="45.81652" lon="4.97706">
        <ele>185</ele>
        <time>2014-10-12T09:45:20.860Z</time>
      </trkpt>
      <trkpt lat="45.81658" lon="4.97725">
        <ele>184.75799936</ele>
        <time>2014-10-12T09:45:29.390Z</time>
      </trkpt>
      <trkpt lat="45.81661" lon="4.97739">
        <ele>184.15799936</ele>
        <time>2014-10-12T09:45:35.390Z</time>
      </trkpt>
      <trkpt lat="45.81655" lon="4.97761">
        <ele>184</ele>
        <time>2014-10-12T09:45:44.400Z</time>
      </trkpt>
      <trkpt lat="45.81645" lon="4.97772">
        <ele>184</ele>
        <time>2014-10-12T09:45:56.390Z</time>
      </trkpt>
      <trkpt lat="45.81652" lon="4.97756">
        <ele>184.38900096</ele>
        <time>2014-10-12T09:46:20.860Z</time>
      </trkpt>
      <trkpt lat="45.8165" lon="4.97727">
        <ele>185</ele>
        <time>2014-10-12T09:46:28.660Z</time>
      </trkpt>
      <trkpt lat="45.81629" lon="4.97691">
        <ele>185</ele>
        <time>2014-10-12T09:46:36.860Z</time>
      </trkpt>
      <trkpt lat="45.81604" lon="4.97687">
        <ele>185</ele>
        <time>2014-10-12T09:46:44.660Z</time>
      </trkpt>
      <trkpt lat="45.81579" lon="4.97711">
        <ele>184.43100032</ele>
        <time>2014-10-12T09:46:52.660Z</time>
      </trkpt>
      <trkpt lat="45.81547" lon="4.97693">
        <ele>184</ele>
        <time>2014-10-12T09:47:00.660Z</time>
      </trkpt>
      <trkpt lat="45.81514" lon="4.97653">
        <ele>184</ele>
        <time>2014-10-12T09:47:08.660Z</time>
      </trkpt>
      <trkpt lat="45.81484" lon="4.97609">
        <ele>184</ele>
        <time>2014-10-12T09:47:16.660Z</time>
      </trkpt>
      <trkpt lat="45.81453" lon="4.97565">
        <ele>184</ele>
        <time>2014-10-12T09:47:24.660Z</time>
      </trkpt>
      <trkpt lat="45.8142" lon="4.97525">
        <ele>184</ele>
        <time>2014-10-12T09:47:32.660Z</time>
      </trkpt>
      <trkpt lat="45.81394" lon="4.97477">
        <ele>184</ele>
        <time>2014-10-12T09:47:40.660Z</time>
      </trkpt>
      <trkpt lat="45.81378" lon="4.97411">
        <ele>184</ele>
        <time>2014-10-12T09:47:48.660Z</time>
      </trkpt>
      <trkpt lat="45.81359" lon="4.97341">
        <ele>184</ele>
        <time>2014-10-12T09:47:56.660Z</time>
      </trkpt>
      <trkpt lat="45.81332" lon="4.97278">
        <ele>182.46292678985</ele>
        <time>2014-10-12T09:48:04.660Z</time>
      </trkpt>
      <trkpt lat="45.81301" lon="4.97223">
        <ele>182</ele>
        <time>2014-10-12T09:48:12.660Z</time>
      </trkpt>
      <trkpt lat="45.8127" lon="4.97166">
        <ele>182</ele>
        <time>2014-10-12T09:48:20.660Z</time>
      </trkpt>
      <trkpt lat="45.81238" lon="4.97107">
        <ele>181.66200064</ele>
        <time>2014-10-12T09:48:28.660Z</time>
      </trkpt>
      <trkpt lat="45.81213" lon="4.97052">
        <ele>180.06200064</ele>
        <time>2014-10-12T09:48:36.660Z</time>
      </trkpt>
      <trkpt lat="45.81187" lon="4.96998">
        <ele>180</ele>
        <time>2014-10-12T09:48:44.660Z</time>
      </trkpt>
      <trkpt lat="45.81161" lon="4.96946">
        <ele>181.13799936</ele>
        <time>2014-10-12T09:48:52.660Z</time>
      </trkpt>
      <trkpt lat="45.81135" lon="4.96962">
        <ele>181.63100032</ele>
        <time>2014-10-12T09:49:00.660Z</time>
      </trkpt>
      <trkpt lat="45.81093" lon="4.9702">
        <ele>181.16899968</ele>
        <time>2014-10-12T09:49:08.660Z</time>
      </trkpt>
      <trkpt lat="45.81064" lon="4.97079">
        <ele>181.96899968</ele>
        <time>2014-10-12T09:49:16.660Z</time>
      </trkpt>
      <trkpt lat="45.81027" lon="4.97126">
        <ele>182.76899968</ele>
        <time>2014-10-12T09:49:24.660Z</time>
      </trkpt>
      <trkpt lat="45.80986" lon="4.97152">
        <ele>183</ele>
        <time>2014-10-12T09:49:32.670Z</time>
      </trkpt>
      <trkpt lat="45.80937" lon="4.97161">
        <ele>183.36899968</ele>
        <time>2014-10-12T09:49:40.660Z</time>
      </trkpt>
      <trkpt lat="45.80883" lon="4.97162">
        <ele>183.83100032</ele>
        <time>2014-10-12T09:49:48.660Z</time>
      </trkpt>
      <trkpt lat="45.80835" lon="4.97125">
        <ele>183.03100032</ele>
        <time>2014-10-12T09:49:56.660Z</time>
      </trkpt>
      <trkpt lat="45.80791" lon="4.97126">
        <ele>182.23100032</ele>
        <time>2014-10-12T09:50:04.660Z</time>
      </trkpt>
      <trkpt lat="45.80742" lon="4.97108">
        <ele>182</ele>
        <time>2014-10-12T09:50:12.660Z</time>
      </trkpt>
      <trkpt lat="45.80699" lon="4.97157">
        <ele>182</ele>
        <time>2014-10-12T09:50:20.660Z</time>
      </trkpt>
      <trkpt lat="45.80668" lon="4.97227">
        <ele>182.16899968</ele>
        <time>2014-10-12T09:50:28.660Z</time>
      </trkpt>
      <trkpt lat="45.8063" lon="4.97276">
        <ele>182.96899968</ele>
        <time>2014-10-12T09:50:36.660Z</time>
      </trkpt>
      <trkpt lat="45.80582" lon="4.97277">
        <ele>182.23100032</ele>
        <time>2014-10-12T09:50:44.660Z</time>
      </trkpt>
      <trkpt lat="45.8053" lon="4.97247">
        <ele>182</ele>
        <time>2014-10-12T09:50:52.660Z</time>
      </trkpt>
      <trkpt lat="45.80471" lon="4.97217">
        <ele>181.63100032</ele>
        <time>2014-10-12T09:51:00.660Z</time>
      </trkpt>
      <trkpt lat="45.80416" lon="4.9719">
        <ele>181</ele>
        <time>2014-10-12T09:51:08.390Z</time>
      </trkpt>
      <trkpt lat="45.80362" lon="4.97161">
        <ele>181</ele>
        <time>2014-10-12T09:51:16.400Z</time>
      </trkpt>
      <trkpt lat="45.8031" lon="4.97136">
        <ele>181.76899968</ele>
        <time>2014-10-12T09:51:24.660Z</time>
      </trkpt>
      <trkpt lat="45.80265" lon="4.97108">
        <ele>182</ele>
        <time>2014-10-12T09:51:32.660Z</time>
      </trkpt>
      <trkpt lat="45.80229" lon="4.97062">
        <ele>182.36899968</ele>
        <time>2014-10-12T09:51:40.660Z</time>
      </trkpt>
      <trkpt lat="45.80245" lon="4.97006">
        <ele>183</ele>
        <time>2014-10-12T09:51:48.860Z</time>
      </trkpt>
      <trkpt lat="45.80268" lon="4.96936">
        <ele>183</ele>
        <time>2014-10-12T09:51:56.660Z</time>
      </trkpt>
      <trkpt lat="45.80277" lon="4.96862">
        <ele>183</ele>
        <time>2014-10-12T09:52:04.650Z</time>
      </trkpt>
      <trkpt lat="45.80288" lon="4.96782">
        <ele>183</ele>
        <time>2014-10-12T09:52:12.660Z</time>
      </trkpt>
      <trkpt lat="45.80334" lon="4.96732">
        <ele>182.63100032</ele>
        <time>2014-10-12T09:52:20.660Z</time>
      </trkpt>
      <trkpt lat="45.80362" lon="4.96706">
        <ele>182.13099904</ele>
        <time>2014-10-12T09:52:25.660Z</time>
      </trkpt>
      <trkpt lat="45.80396" lon="4.96659">
        <ele>182</ele>
        <time>2014-10-12T09:52:33.600Z</time>
      </trkpt>
      <trkpt lat="45.80427" lon="4.9661">
        <ele>182.92600064</ele>
        <time>2014-10-12T09:52:41.600Z</time>
      </trkpt>
      <trkpt lat="45.8043" lon="4.96552">
        <ele>184</ele>
        <time>2014-10-12T09:52:49.660Z</time>
      </trkpt>
      <trkpt lat="45.80404" lon="4.96476">
        <ele>183.93099904</ele>
        <time>2014-10-12T09:52:57.660Z</time>
      </trkpt>
      <trkpt lat="45.80392" lon="4.96408">
        <ele>183.13099904</ele>
        <time>2014-10-12T09:53:05.660Z</time>
      </trkpt>
      <trkpt lat="45.80402" lon="4.96345">
        <ele>184.37799936</ele>
        <time>2014-10-12T09:53:13.860Z</time>
      </trkpt>
      <trkpt lat="45.80379" lon="4.96304">
        <ele>185.46900096</ele>
        <time>2014-10-12T09:53:21.660Z</time>
      </trkpt>
      <trkpt lat="45.80327" lon="4.96302">
        <ele>186</ele>
        <time>2014-10-12T09:53:29.660Z</time>
      </trkpt>
      <trkpt lat="45.80269" lon="4.9628">
        <ele>185.93099904</ele>
        <time>2014-10-12T09:53:37.660Z</time>
      </trkpt>
      <trkpt lat="45.80246" lon="4.96183">
        <ele>184.896</ele>
        <time>2014-10-12T09:53:47.490Z</time>
      </trkpt>
      <trkpt lat="45.80201" lon="4.9614">
        <ele>183.27599872</ele>
        <time>2014-10-12T09:53:55.590Z</time>
      </trkpt>
      <trkpt lat="45.80144" lon="4.96128">
        <ele>182.33099904</ele>
        <time>2014-10-12T09:54:03.660Z</time>
      </trkpt>
      <trkpt lat="45.80112" lon="4.9612">
        <ele>182.26300032</ele>
        <time>2014-10-12T09:54:09.600Z</time>
      </trkpt>
      <trkpt lat="45.80072" lon="4.961">
        <ele>182.94699904</ele>
        <time>2014-10-12T09:54:17.500Z</time>
      </trkpt>
      <trkpt lat="45.80033" lon="4.96071">
        <ele>182.25699968</ele>
        <time>2014-10-12T09:54:24.400Z</time>
      </trkpt>
      <trkpt lat="45.79978" lon="4.96103">
        <ele>182</ele>
        <time>2014-10-12T09:54:32.390Z</time>
      </trkpt>
      <trkpt lat="45.79932" lon="4.961">
        <ele>181.63100032</ele>
        <time>2014-10-12T09:54:40.660Z</time>
      </trkpt>
      <trkpt lat="45.79901" lon="4.96072">
        <ele>181.05300096</ele>
        <time>2014-10-12T09:54:47.500Z</time>
      </trkpt>
      <trkpt lat="45.7987" lon="4.96085">
        <ele>181.86300032</ele>
        <time>2014-10-12T09:54:55.600Z</time>
      </trkpt>
      <trkpt lat="45.79857" lon="4.96105">
        <ele>182.59000064</ele>
        <time>2014-10-12T09:55:02.870Z</time>
      </trkpt>
      <trkpt lat="45.7986" lon="4.96161">
        <ele>183</ele>
        <time>2014-10-12T09:55:11.390Z</time>
      </trkpt>
      <trkpt lat="45.79868" lon="4.96224">
        <ele>183</ele>
        <time>2014-10-12T09:55:19.390Z</time>
      </trkpt>
      <trkpt lat="45.79832" lon="4.96253">
        <ele>183</ele>
        <time>2014-10-12T09:55:27.660Z</time>
      </trkpt>
      <trkpt lat="45.79805" lon="4.96296">
        <ele>183</ele>
        <time>2014-10-12T09:55:35.660Z</time>
      </trkpt>
      <trkpt lat="45.79772" lon="4.96312">
        <ele>183</ele>
        <time>2014-10-12T09:55:43.860Z</time>
      </trkpt>
      <trkpt lat="45.79752" lon="4.96285">
        <ele>182.53099904</ele>
        <time>2014-10-12T09:55:51.660Z</time>
      </trkpt>
      <trkpt lat="45.79744" lon="4.96273">
        <ele>181.66900096</ele>
        <time>2014-10-12T09:56:23.660Z</time>
      </trkpt>
      <trkpt lat="45.79737" lon="4.96283">
        <ele>182</ele>
        <time>2014-10-12T09:56:31.660Z</time>
      </trkpt>
      <trkpt lat="45.7973" lon="4.96339">
        <ele>182.53800192</ele>
        <time>2014-10-12T09:56:39.660Z</time>
      </trkpt>
      <trkpt lat="45.79719" lon="4.96394">
        <ele>184</ele>
        <time>2014-10-12T09:56:47.860Z</time>
      </trkpt>
      <trkpt lat="45.79708" lon="4.96446">
        <ele>184</ele>
        <time>2014-10-12T09:56:55.860Z</time>
      </trkpt>
      <trkpt lat="45.79712" lon="4.96486">
        <ele>183.848</ele>
        <time>2014-10-12T09:57:18.490Z</time>
      </trkpt>
      <trkpt lat="45.79687" lon="4.96479">
        <ele>184</ele>
        <time>2014-10-12T09:57:52.660Z</time>
      </trkpt>
      <trkpt lat="45.79637" lon="4.96472">
        <ele>184</ele>
        <time>2014-10-12T09:58:00.390Z</time>
      </trkpt>
      <trkpt lat="45.79596" lon="4.96484">
        <ele>184.18900096</ele>
        <time>2014-10-12T09:58:08.860Z</time>
      </trkpt>
      <trkpt lat="45.79575" lon="4.96549">
        <ele>184.96899968</ele>
        <time>2014-10-12T09:58:16.660Z</time>
      </trkpt>
      <trkpt lat="45.79562" lon="4.96607">
        <ele>185</ele>
        <time>2014-10-12T09:58:24.660Z</time>
      </trkpt>
      <trkpt lat="45.79573" lon="4.96678">
        <ele>185</ele>
        <time>2014-10-12T09:58:32.860Z</time>
      </trkpt>
      <trkpt lat="45.7959" lon="4.96748">
        <ele>185</ele>
        <time>2014-10-12T09:58:40.660Z</time>
      </trkpt>
      <trkpt lat="45.79603" lon="4.9682">
        <ele>185</ele>
        <time>2014-10-12T09:58:48.660Z</time>
      </trkpt>
      <trkpt lat="45.79616" lon="4.9689">
        <ele>185</ele>
        <time>2014-10-12T09:58:56.860Z</time>
      </trkpt>
      <trkpt lat="45.79644" lon="4.96938">
        <ele>186.52953060988</ele>
        <time>2014-10-12T09:59:04.660Z</time>
      </trkpt>
      <trkpt lat="45.79664" lon="4.96986">
        <ele>186.21099904</ele>
        <time>2014-10-12T09:59:14.860Z</time>
      </trkpt>
      <trkpt lat="45.79666" lon="4.97009">
        <ele>185.03799936</ele>
        <time>2014-10-12T09:59:26.590Z</time>
      </trkpt>
      <trkpt lat="45.79676" lon="4.97048">
        <ele>184</ele>
        <time>2014-10-12T09:59:38.860Z</time>
      </trkpt>
      <trkpt lat="45.79677" lon="4.97078">
        <ele>184.052</ele>
        <time>2014-10-12T09:59:47.490Z</time>
      </trkpt>
      <trkpt lat="45.79681" lon="4.97095">
        <ele>185.72600192</ele>
        <time>2014-10-12T09:59:59.390Z</time>
      </trkpt>
      <trkpt lat="45.79693" lon="4.97138">
        <ele>188.04300032</ele>
        <time>2014-10-12T10:00:07.400Z</time>
      </trkpt>
      <trkpt lat="45.79705" lon="4.9718">
        <ele>188.84200064</ele>
        <time>2014-10-12T10:00:15.390Z</time>
      </trkpt>
      <trkpt lat="45.79706" lon="4.97235">
        <ele>190.17800192</ele>
        <time>2014-10-12T10:00:22.860Z</time>
      </trkpt>
      <trkpt lat="45.79711" lon="4.97298">
        <ele>191</ele>
        <time>2014-10-12T10:00:30.600Z</time>
      </trkpt>
      <trkpt lat="45.79717" lon="4.97385">
        <ele>191.48899968</ele>
        <time>2014-10-12T10:00:41.860Z</time>
      </trkpt>
      <trkpt lat="45.79727" lon="4.97451">
        <ele>192</ele>
        <time>2014-10-12T10:00:49.390Z</time>
      </trkpt>
      <trkpt lat="45.79727" lon="4.97523">
        <ele>192</ele>
        <time>2014-10-12T10:00:57.860Z</time>
      </trkpt>
      <trkpt lat="45.79721" lon="4.97599">
        <ele>192</ele>
        <time>2014-10-12T10:01:05.660Z</time>
      </trkpt>
      <trkpt lat="45.79666" lon="4.97644">
        <ele>190.66199808</ele>
        <time>2014-10-12T10:01:13.660Z</time>
      </trkpt>
      <trkpt lat="45.7962" lon="4.97725">
        <ele>188.59299712</ele>
        <time>2014-10-12T10:01:21.660Z</time>
      </trkpt>
      <trkpt lat="45.79586" lon="4.97782">
        <ele>187</ele>
        <time>2014-10-12T10:01:29.660Z</time>
      </trkpt>
      <trkpt lat="45.79553" lon="4.97831">
        <ele>186.86199808</ele>
        <time>2014-10-12T10:01:37.660Z</time>
      </trkpt>
      <trkpt lat="45.79559" lon="4.97831">
        <ele>185</ele>
        <time>2014-10-12T10:01:49.660Z</time>
      </trkpt>
      <trkpt lat="45.79579" lon="4.97789">
        <ele>185</ele>
        <time>2014-10-12T10:01:57.660Z</time>
      </trkpt>
      <trkpt lat="45.796" lon="4.97849">
        <ele>185</ele>
        <time>2014-10-12T10:02:05.660Z</time>
      </trkpt>
      <trkpt lat="45.79623" lon="4.97925">
        <ele>184.33099904</ele>
        <time>2014-10-12T10:02:13.660Z</time>
      </trkpt>
      <trkpt lat="45.79661" lon="4.97967">
        <ele>184</ele>
        <time>2014-10-12T10:02:21.660Z</time>
      </trkpt>
      <trkpt lat="45.79701" lon="4.98001">
        <ele>184.48899968</ele>
        <time>2014-10-12T10:02:31.860Z</time>
      </trkpt>
      <trkpt lat="45.79715" lon="4.98057">
        <ele>185</ele>
        <time>2014-10-12T10:02:39.390Z</time>
      </trkpt>
      <trkpt lat="45.79721" lon="4.98095">
        <ele>185</ele>
        <time>2014-10-12T10:02:47.660Z</time>
      </trkpt>
      <trkpt lat="45.79739" lon="4.98142">
        <ele>185</ele>
        <time>2014-10-12T10:02:55.860Z</time>
      </trkpt>
      <trkpt lat="45.79749" lon="4.98149">
        <ele>185</ele>
        <time>2014-10-12T10:03:29.390Z</time>
      </trkpt>
      <trkpt lat="45.79779" lon="4.98126">
        <ele>185</ele>
        <time>2014-10-12T10:03:37.860Z</time>
      </trkpt>
      <trkpt lat="45.79829" lon="4.98101">
        <ele>185</ele>
        <time>2014-10-12T10:03:45.660Z</time>
      </trkpt>
      <trkpt lat="45.79876" lon="4.98074">
        <ele>185.66900096</ele>
        <time>2014-10-12T10:03:53.660Z</time>
      </trkpt>
      <trkpt lat="45.79924" lon="4.98048">
        <ele>186</ele>
        <time>2014-10-12T10:04:01.660Z</time>
      </trkpt>
      <trkpt lat="45.79962" lon="4.98045">
        <ele>186</ele>
        <time>2014-10-12T10:04:09.660Z</time>
      </trkpt>
      <trkpt lat="45.7997" lon="4.98123">
        <ele>186</ele>
        <time>2014-10-12T10:04:17.660Z</time>
      </trkpt>
      <trkpt lat="45.79995" lon="4.98202">
        <ele>186</ele>
        <time>2014-10-12T10:04:27.490Z</time>
      </trkpt>
      <trkpt lat="45.80008" lon="4.98251">
        <ele>186</ele>
        <time>2014-10-12T10:04:35.390Z</time>
      </trkpt>
      <trkpt lat="45.80024" lon="4.98301">
        <ele>186</ele>
        <time>2014-10-12T10:04:43.660Z</time>
      </trkpt>
      <trkpt lat="45.80039" lon="4.98339">
        <ele>186</ele>
        <time>2014-10-12T10:04:51.660Z</time>
      </trkpt>
      <trkpt lat="45.80044" lon="4.9837">
        <ele>185.73099904</ele>
        <time>2014-10-12T10:04:59.660Z</time>
      </trkpt>
      <trkpt lat="45.80065" lon="4.98368">
        <ele>185.06900096</ele>
        <time>2014-10-12T10:05:07.660Z</time>
      </trkpt>
      <trkpt lat="45.80095" lon="4.98343">
        <ele>185.86900096</ele>
        <time>2014-10-12T10:05:15.660Z</time>
      </trkpt>
      <trkpt lat="45.8013" lon="4.98319">
        <ele>186</ele>
        <time>2014-10-12T10:05:23.660Z</time>
      </trkpt>
      <trkpt lat="45.80165" lon="4.9828">
        <ele>186</ele>
        <time>2014-10-12T10:05:31.660Z</time>
      </trkpt>
      <trkpt lat="45.8019" lon="4.98227">
        <ele>186</ele>
        <time>2014-10-12T10:05:39.660Z</time>
      </trkpt>
      <trkpt lat="45.80202" lon="4.98211">
        <ele>186</ele>
        <time>2014-10-12T10:05:55.660Z</time>
      </trkpt>
      <trkpt lat="45.80235" lon="4.98196">
        <ele>185.31100032</ele>
        <time>2014-10-12T10:06:03.860Z</time>
      </trkpt>
      <trkpt lat="45.80265" lon="4.98183">
        <ele>185.46900096</ele>
        <time>2014-10-12T10:06:11.660Z</time>
      </trkpt>
      <trkpt lat="45.80276" lon="4.98174">
        <ele>186</ele>
        <time>2014-10-12T10:06:32.400Z</time>
      </trkpt>
      <trkpt lat="45.803" lon="4.98129">
        <ele>186.73799936</ele>
        <time>2014-10-12T10:06:40.660Z</time>
      </trkpt>
      <trkpt lat="45.80326" lon="4.98088">
        <ele>188</ele>
        <time>2014-10-12T10:06:48.660Z</time>
      </trkpt>
      <trkpt lat="45.80361" lon="4.98082">
        <ele>188</ele>
        <time>2014-10-12T10:06:56.660Z</time>
      </trkpt>
      <trkpt lat="45.80396" lon="4.98124">
        <ele>185.69300096</ele>
        <time>2014-10-12T10:07:04.660Z</time>
      </trkpt>
      <trkpt lat="45.80409" lon="4.98157">
        <ele>185</ele>
        <time>2014-10-12T10:07:12.390Z</time>
      </trkpt>
      <trkpt lat="45.804" lon="4.98165">
        <ele>185</ele>
        <time>2014-10-12T10:07:26.860Z</time>
      </trkpt>
      <trkpt lat="45.80384" lon="4.98189">
        <ele>185</ele>
        <time>2014-10-12T10:07:34.660Z</time>
      </trkpt>
      <trkpt lat="45.80363" lon="4.98214">
        <ele>185.56899968</ele>
        <time>2014-10-12T10:07:42.660Z</time>
      </trkpt>
      <trkpt lat="45.80346" lon="4.98249">
        <ele>185.848</ele>
        <time>2014-10-12T10:07:48.490Z</time>
      </trkpt>
      <trkpt lat="45.80337" lon="4.98298">
        <ele>185.05799936</ele>
        <time>2014-10-12T10:07:56.390Z</time>
      </trkpt>
      <trkpt lat="45.80336" lon="4.98367">
        <ele>185</ele>
        <time>2014-10-12T10:08:05.660Z</time>
      </trkpt>
      <trkpt lat="45.8033" lon="4.98402">
        <ele>185</ele>
        <time>2014-10-12T10:08:13.390Z</time>
      </trkpt>
      <trkpt lat="45.80323" lon="4.98421">
        <ele>184.26900096</ele>
        <time>2014-10-12T10:09:09.660Z</time>
      </trkpt>
      <trkpt lat="45.80316" lon="4.98459">
        <ele>185.20700288</ele>
        <time>2014-10-12T10:09:17.660Z</time>
      </trkpt>
      <trkpt lat="45.80306" lon="4.98522">
        <ele>187.60700288</ele>
        <time>2014-10-12T10:09:25.660Z</time>
      </trkpt>
      <trkpt lat="45.80288" lon="4.98601">
        <ele>187.33099904</ele>
        <time>2014-10-12T10:09:33.660Z</time>
      </trkpt>
      <trkpt lat="45.80265" lon="4.98661">
        <ele>187</ele>
        <time>2014-10-12T10:09:41.660Z</time>
      </trkpt>
      <trkpt lat="45.80231" lon="4.98694">
        <ele>186.73099904</ele>
        <time>2014-10-12T10:09:49.660Z</time>
      </trkpt>
      <trkpt lat="45.80197" lon="4.98735">
        <ele>186</ele>
        <time>2014-10-12T10:09:57.660Z</time>
      </trkpt>
      <trkpt lat="45.80162" lon="4.98755">
        <ele>186</ele>
        <time>2014-10-12T10:10:05.660Z</time>
      </trkpt>
      <trkpt lat="45.80164" lon="4.98767">
        <ele>186</ele>
        <time>2014-10-12T10:10:25.660Z</time>
      </trkpt>
      <trkpt lat="45.80172" lon="4.98791">
        <ele>186</ele>
        <time>2014-10-12T10:10:37.660Z</time>
      </trkpt>
      <trkpt lat="45.80189" lon="4.98846">
        <ele>186</ele>
        <time>2014-10-12T10:10:45.660Z</time>
      </trkpt>
      <trkpt lat="45.80202" lon="4.98911">
        <ele>186.66900096</ele>
        <time>2014-10-12T10:10:53.660Z</time>
      </trkpt>
      <trkpt lat="45.80206" lon="4.98983">
        <ele>187</ele>
        <time>2014-10-12T10:11:01.660Z</time>
      </trkpt>
      <trkpt lat="45.80198" lon="4.9905">
        <ele>187</ele>
        <time>2014-10-12T10:11:09.860Z</time>
      </trkpt>
      <trkpt lat="45.80183" lon="4.9911">
        <ele>187</ele>
        <time>2014-10-12T10:11:17.660Z</time>
      </trkpt>
      <trkpt lat="45.80166" lon="4.99169">
        <ele>187</ele>
        <time>2014-10-12T10:11:25.660Z</time>
      </trkpt>
      <trkpt lat="45.80138" lon="4.99221">
        <ele>187</ele>
        <time>2014-10-12T10:11:33.660Z</time>
      </trkpt>
      <trkpt lat="45.80108" lon="4.99269">
        <ele>187.46900096</ele>
        <time>2014-10-12T10:11:41.660Z</time>
      </trkpt>
      <trkpt lat="45.80087" lon="4.99315">
        <ele>187.73099904</ele>
        <time>2014-10-12T10:11:49.660Z</time>
      </trkpt>
      <trkpt lat="45.80076" lon="4.9932">
        <ele>187</ele>
        <time>2014-10-12T10:11:57.660Z</time>
      </trkpt>
      <trkpt lat="45.80028" lon="4.99383">
        <ele>187</ele>
        <time>2014-10-12T10:12:10.590Z</time>
      </trkpt>
      <trkpt lat="45.79995" lon="4.99423">
        <ele>187</ele>
        <time>2014-10-12T10:12:18.390Z</time>
      </trkpt>
      <trkpt lat="45.79968" lon="4.99457">
        <ele>187</ele>
        <time>2014-10-12T10:12:26.390Z</time>
      </trkpt>
      <trkpt lat="45.79978" lon="4.99454">
        <ele>186.86900096</ele>
        <time>2014-10-12T10:17:25.660Z</time>
      </trkpt>
      <trkpt lat="45.79968" lon="4.99457">
        <ele>186</ele>
        <time>2014-10-12T10:18:04.760Z</time>
      </trkpt>
      <trkpt lat="45.79956" lon="4.99471">
        <ele>188</ele>
        <time>2014-10-12T10:22:34.490Z</time>
      </trkpt>
      <trkpt lat="45.79929" lon="4.99495">
        <ele>188</ele>
        <time>2014-10-12T10:22:42.760Z</time>
      </trkpt>
      <trkpt lat="45.79899" lon="4.9953">
        <ele>188.35400064</ele>
        <time>2014-10-12T10:22:50.510Z</time>
      </trkpt>
      <trkpt lat="45.79878" lon="4.99554">
        <ele>188.83799936</ele>
        <time>2014-10-12T10:22:58.590Z</time>
      </trkpt>
      <trkpt lat="45.79886" lon="4.99566">
        <ele>188</ele>
        <time>2014-10-12T10:23:12.590Z</time>
      </trkpt>
      <trkpt lat="45.79882" lon="4.99585">
        <ele>188</ele>
        <time>2014-10-12T10:23:20.500Z</time>
      </trkpt>
      <trkpt lat="45.79859" lon="4.99633">
        <ele>188</ele>
        <time>2014-10-12T10:23:28.760Z</time>
      </trkpt>
      <trkpt lat="45.79831" lon="4.99679">
        <ele>188</ele>
        <time>2014-10-12T10:23:36.760Z</time>
      </trkpt>
      <trkpt lat="45.79805" lon="4.99722">
        <ele>187.22099968</ele>
        <time>2014-10-12T10:23:44.760Z</time>
      </trkpt>
      <trkpt lat="45.79816" lon="4.99734">
        <ele>186.36163911661</ele>
        <time>2014-10-12T10:24:00.590Z</time>
      </trkpt>
      <trkpt lat="45.79812" lon="4.99757">
        <ele>187.35135155913</ele>
        <time>2014-10-12T10:24:10.490Z</time>
      </trkpt>
      <trkpt lat="45.79807" lon="4.99794">
        <ele>188</ele>
        <time>2014-10-12T10:24:34.760Z</time>
      </trkpt>
      <trkpt lat="45.79803" lon="4.99839">
        <ele>188</ele>
        <time>2014-10-12T10:24:42.760Z</time>
      </trkpt>
      <trkpt lat="45.79811" lon="4.99886">
        <ele>188.37900032</ele>
        <time>2014-10-12T10:24:50.760Z</time>
      </trkpt>
      <trkpt lat="45.79827" lon="4.99936">
        <ele>189.17900032</ele>
        <time>2014-10-12T10:24:58.760Z</time>
      </trkpt>
      <trkpt lat="45.79846" lon="4.99976">
        <ele>189.97900032</ele>
        <time>2014-10-12T10:25:06.760Z</time>
      </trkpt>
      <trkpt lat="45.79836" lon="5.00004">
        <ele>189.82099968</ele>
        <time>2014-10-12T10:25:18.760Z</time>
      </trkpt>
      <trkpt lat="45.79831" lon="5.00028">
        <ele>189.02099968</ele>
        <time>2014-10-12T10:25:26.760Z</time>
      </trkpt>
      <trkpt lat="45.79829" lon="5.00055">
        <ele>189</ele>
        <time>2014-10-12T10:25:34.760Z</time>
      </trkpt>
      <trkpt lat="45.79818" lon="5.00094">
        <ele>189</ele>
        <time>2014-10-12T10:25:42.770Z</time>
      </trkpt>
      <trkpt lat="45.79804" lon="5.00127">
        <ele>189</ele>
        <time>2014-10-12T10:25:50.760Z</time>
      </trkpt>
      <trkpt lat="45.7979" lon="5.00166">
        <ele>189</ele>
        <time>2014-10-12T10:25:58.490Z</time>
      </trkpt>
      <trkpt lat="45.79771" lon="5.00203">
        <ele>189</ele>
        <time>2014-10-12T10:26:06.490Z</time>
      </trkpt>
      <trkpt lat="45.79734" lon="5.00234">
        <ele>189</ele>
        <time>2014-10-12T10:26:14.760Z</time>
      </trkpt>
      <trkpt lat="45.79693" lon="5.0026">
        <ele>189</ele>
        <time>2014-10-12T10:26:22.760Z</time>
      </trkpt>
      <trkpt lat="45.79651" lon="5.00257">
        <ele>189</ele>
        <time>2014-10-12T10:26:30.500Z</time>
      </trkpt>
      <trkpt lat="45.79637" lon="5.0025">
        <ele>189</ele>
        <time>2014-10-12T10:26:38.490Z</time>
      </trkpt>
      <trkpt lat="45.79617" lon="5.00237">
        <ele>189</ele>
        <time>2014-10-12T10:26:46.490Z</time>
      </trkpt>
      <trkpt lat="45.79582" lon="5.00227">
        <ele>189.7743537022</ele>
        <time>2014-10-12T10:26:54.760Z</time>
      </trkpt>
      <trkpt lat="45.79569" lon="5.00221">
        <ele>190</ele>
        <time>2014-10-12T10:26:59.500Z</time>
      </trkpt>
      <trkpt lat="45.79542" lon="5.00211">
        <ele>190</ele>
        <time>2014-10-12T10:27:07.590Z</time>
      </trkpt>
      <trkpt lat="45.79509" lon="5.0023">
        <ele>190</ele>
        <time>2014-10-12T10:27:15.490Z</time>
      </trkpt>
      <trkpt lat="45.79481" lon="5.00286">
        <ele>190.652</ele>
        <time>2014-10-12T10:27:23.490Z</time>
      </trkpt>
      <trkpt lat="45.79446" lon="5.00324">
        <ele>190.52099968</ele>
        <time>2014-10-12T10:27:31.760Z</time>
      </trkpt>
      <trkpt lat="45.79413" lon="5.00373">
        <ele>190</ele>
        <time>2014-10-12T10:27:39.760Z</time>
      </trkpt>
      <trkpt lat="45.79376" lon="5.00414">
        <ele>190.16200064</ele>
        <time>2014-10-12T10:27:48.590Z</time>
      </trkpt>
      <trkpt lat="45.79329" lon="5.00456">
        <ele>190.73799936</ele>
        <time>2014-10-12T10:27:59.590Z</time>
      </trkpt>
      <trkpt lat="45.79289" lon="5.00483">
        <ele>190.16103433095</ele>
        <time>2014-10-12T10:28:08.590Z</time>
      </trkpt>
      <trkpt lat="45.79247" lon="5.00515">
        <ele>190.94632146556</ele>
        <time>2014-10-12T10:28:16.490Z</time>
      </trkpt>
      <trkpt lat="45.79196" lon="5.00532">
        <ele>191.77766617476</ele>
        <time>2014-10-12T10:28:24.760Z</time>
      </trkpt>
      <trkpt lat="45.79146" lon="5.00564">
        <ele>191.42099968</ele>
        <time>2014-10-12T10:28:32.760Z</time>
      </trkpt>
      <trkpt lat="45.79102" lon="5.00602">
        <ele>191.37900032</ele>
        <time>2014-10-12T10:28:40.760Z</time>
      </trkpt>
      <trkpt lat="45.79059" lon="5.00641">
        <ele>192</ele>
        <time>2014-10-12T10:28:48.760Z</time>
      </trkpt>
      <trkpt lat="45.79019" lon="5.00676">
        <ele>192</ele>
        <time>2014-10-12T10:28:56.760Z</time>
      </trkpt>
      <trkpt lat="45.78981" lon="5.00722">
        <ele>192</ele>
        <time>2014-10-12T10:29:04.760Z</time>
      </trkpt>
      <trkpt lat="45.78948" lon="5.00765">
        <ele>192.57900032</ele>
        <time>2014-10-12T10:29:12.760Z</time>
      </trkpt>
      <trkpt lat="45.78915" lon="5.00807">
        <ele>193</ele>
        <time>2014-10-12T10:29:20.760Z</time>
      </trkpt>
      <trkpt lat="45.7888" lon="5.00845">
        <ele>193</ele>
        <time>2014-10-12T10:29:28.770Z</time>
      </trkpt>
      <trkpt lat="45.78849" lon="5.0089">
        <ele>193</ele>
        <time>2014-10-12T10:29:36.760Z</time>
      </trkpt>
      <trkpt lat="45.78815" lon="5.00929">
        <ele>192.22099968</ele>
        <time>2014-10-12T10:29:44.760Z</time>
      </trkpt>
      <trkpt lat="45.78794" lon="5.00969">
        <ele>192.57900032</ele>
        <time>2014-10-12T10:29:52.760Z</time>
      </trkpt>
      <trkpt lat="45.78781" lon="5.01012">
        <ele>193</ele>
        <time>2014-10-12T10:30:00.760Z</time>
      </trkpt>
      <trkpt lat="45.78782" lon="5.01063">
        <ele>193.35800064</ele>
        <time>2014-10-12T10:30:08.760Z</time>
      </trkpt>
      <trkpt lat="45.78772" lon="5.01096">
        <ele>194.99800064</ele>
        <time>2014-10-12T10:30:16.960Z</time>
      </trkpt>
      <trkpt lat="45.78759" lon="5.01121">
        <ele>195.77900032</ele>
        <time>2014-10-12T10:30:24.760Z</time>
      </trkpt>
      <trkpt lat="45.78758" lon="5.01158">
        <ele>192.52599808</ele>
        <time>2014-10-12T10:30:32.760Z</time>
      </trkpt>
      <trkpt lat="45.78766" lon="5.0118">
        <ele>189.64099968</ele>
        <time>2014-10-12T10:30:40.560Z</time>
      </trkpt>
      <trkpt lat="45.78783" lon="5.0118">
        <ele>188.40099968</ele>
        <time>2014-10-12T10:30:52.960Z</time>
      </trkpt>
      <trkpt lat="45.78786" lon="5.01196">
        <ele>188.57900032</ele>
        <time>2014-10-12T10:31:12.760Z</time>
      </trkpt>
      <trkpt lat="45.78776" lon="5.01229">
        <ele>189</ele>
        <time>2014-10-12T10:31:20.760Z</time>
      </trkpt>
      <trkpt lat="45.78764" lon="5.01272">
        <ele>188.82099968</ele>
        <time>2014-10-12T10:31:28.760Z</time>
      </trkpt>
      <trkpt lat="45.78744" lon="5.01315">
        <ele>188.02099968</ele>
        <time>2014-10-12T10:31:36.760Z</time>
      </trkpt>
      <trkpt lat="45.78747" lon="5.01351">
        <ele>188.35800064</ele>
        <time>2014-10-12T10:31:48.760Z</time>
      </trkpt>
      <trkpt lat="45.78769" lon="5.01377">
        <ele>189.80199936</ele>
        <time>2014-10-12T10:31:57.960Z</time>
      </trkpt>
      <trkpt lat="45.78788" lon="5.01428">
        <ele>188.24199936</ele>
        <time>2014-10-12T10:32:05.760Z</time>
      </trkpt>
      <trkpt lat="45.78816" lon="5.0149">
        <ele>188</ele>
        <time>2014-10-12T10:32:13.760Z</time>
      </trkpt>
      <trkpt lat="45.78828" lon="5.01544">
        <ele>188.95704390235</ele>
        <time>2014-10-12T10:32:21.760Z</time>
      </trkpt>
      <trkpt lat="45.78842" lon="5.0158">
        <ele>190</ele>
        <time>2014-10-12T10:32:29.760Z</time>
      </trkpt>
      <trkpt lat="45.78872" lon="5.01597">
        <ele>189.92099968</ele>
        <time>2014-10-12T10:32:37.760Z</time>
      </trkpt>
      <trkpt lat="45.78911" lon="5.01648">
        <ele>189.12099968</ele>
        <time>2014-10-12T10:32:45.760Z</time>
      </trkpt>
      <trkpt lat="45.7894" lon="5.01713">
        <ele>189</ele>
        <time>2014-10-12T10:32:53.760Z</time>
      </trkpt>
      <trkpt lat="45.78962" lon="5.01783">
        <ele>189.47900032</ele>
        <time>2014-10-12T10:33:01.760Z</time>
      </trkpt>
      <trkpt lat="45.78993" lon="5.01837">
        <ele>190</ele>
        <time>2014-10-12T10:33:09.760Z</time>
      </trkpt>
      <trkpt lat="45.79035" lon="5.0186">
        <ele>189.92099968</ele>
        <time>2014-10-12T10:33:17.760Z</time>
      </trkpt>
      <trkpt lat="45.79082" lon="5.01879">
        <ele>189.12099968</ele>
        <time>2014-10-12T10:33:25.760Z</time>
      </trkpt>
      <trkpt lat="45.79113" lon="5.01893">
        <ele>188.40099968</ele>
        <time>2014-10-12T10:33:32.960Z</time>
      </trkpt>
      <trkpt lat="45.79125" lon="5.01945">
        <ele>188.352</ele>
        <time>2014-10-12T10:33:40.490Z</time>
      </trkpt>
      <trkpt lat="45.79136" lon="5.02007">
        <ele>189</ele>
        <time>2014-10-12T10:33:48.760Z</time>
      </trkpt>
      <trkpt lat="45.79161" lon="5.02082">
        <ele>189</ele>
        <time>2014-10-12T10:33:56.760Z</time>
      </trkpt>
      <trkpt lat="45.79184" lon="5.02124">
        <ele>189</ele>
        <time>2014-10-12T10:34:04.760Z</time>
      </trkpt>
      <trkpt lat="45.79197" lon="5.02138">
        <ele>190</ele>
        <time>2014-10-12T10:35:42.760Z</time>
      </trkpt>
      <trkpt lat="45.7924" lon="5.02124">
        <ele>190</ele>
        <time>2014-10-12T10:35:50.760Z</time>
      </trkpt>
      <trkpt lat="45.79284" lon="5.02107">
        <ele>189.64199936</ele>
        <time>2014-10-12T10:35:58.760Z</time>
      </trkpt>
      <trkpt lat="45.7932" lon="5.02118">
        <ele>188.20199936</ele>
        <time>2014-10-12T10:36:05.960Z</time>
      </trkpt>
      <trkpt lat="45.79352" lon="5.0215">
        <ele>188</ele>
        <time>2014-10-12T10:36:13.690Z</time>
      </trkpt>
      <trkpt lat="45.79387" lon="5.02207">
        <ele>188</ele>
        <time>2014-10-12T10:36:22.960Z</time>
      </trkpt>
      <trkpt lat="45.79411" lon="5.02262">
        <ele>188</ele>
        <time>2014-10-12T10:36:30.490Z</time>
      </trkpt>
      <trkpt lat="45.79422" lon="5.02325">
        <ele>188.17817876174</ele>
        <time>2014-10-12T10:36:38.760Z</time>
      </trkpt>
      <trkpt lat="45.79413" lon="5.02387">
        <ele>188.97897930603</ele>
        <time>2014-10-12T10:36:46.760Z</time>
      </trkpt>
      <trkpt lat="45.79408" lon="5.02446">
        <ele>189</ele>
        <time>2014-10-12T10:36:54.760Z</time>
      </trkpt>
      <trkpt lat="45.79412" lon="5.02504">
        <ele>189.57900032</ele>
        <time>2014-10-12T10:37:02.760Z</time>
      </trkpt>
      <trkpt lat="45.79419" lon="5.02567">
        <ele>190.39900032</ele>
        <time>2014-10-12T10:37:10.960Z</time>
      </trkpt>
      <trkpt lat="45.79432" lon="5.02624">
        <ele>190.82242031746</ele>
        <time>2014-10-12T10:37:18.760Z</time>
      </trkpt>
      <trkpt lat="45.79456" lon="5.02676">
        <ele>190.02876952381</ele>
        <time>2014-10-12T10:37:26.760Z</time>
      </trkpt>
      <trkpt lat="45.795" lon="5.02708">
        <ele>190</ele>
        <time>2014-10-12T10:37:34.760Z</time>
      </trkpt>
      <trkpt lat="45.79525" lon="5.02755">
        <ele>190</ele>
        <time>2014-10-12T10:37:42.760Z</time>
      </trkpt>
      <trkpt lat="45.79532" lon="5.02811">
        <ele>190.37900032</ele>
        <time>2014-10-12T10:37:50.760Z</time>
      </trkpt>
      <trkpt lat="45.79516" lon="5.02858">
        <ele>190.64199936</ele>
        <time>2014-10-12T10:37:58.760Z</time>
      </trkpt>
      <trkpt lat="45.79534" lon="5.02867">
        <ele>189.75800064</ele>
        <time>2014-10-12T10:38:10.760Z</time>
      </trkpt>
      <trkpt lat="45.7957" lon="5.02866">
        <ele>191</ele>
        <time>2014-10-12T10:38:18.760Z</time>
      </trkpt>
      <trkpt lat="45.79624" lon="5.02863">
        <ele>191</ele>
        <time>2014-10-12T10:38:26.760Z</time>
      </trkpt>
      <trkpt lat="45.79673" lon="5.02856">
        <ele>191</ele>
        <time>2014-10-12T10:38:34.760Z</time>
      </trkpt>
      <trkpt lat="45.79724" lon="5.02849">
        <ele>191</ele>
        <time>2014-10-12T10:38:42.760Z</time>
      </trkpt>
      <trkpt lat="45.79778" lon="5.02831">
        <ele>191</ele>
        <time>2014-10-12T10:38:50.760Z</time>
      </trkpt>
      <trkpt lat="45.79823" lon="5.02832">
        <ele>191</ele>
        <time>2014-10-12T10:38:58.760Z</time>
      </trkpt>
      <trkpt lat="45.79873" lon="5.02857">
        <ele>191</ele>
        <time>2014-10-12T10:39:06.760Z</time>
      </trkpt>
      <trkpt lat="45.79918" lon="5.02878">
        <ele>190.22177765332</ele>
        <time>2014-10-12T10:39:14.760Z</time>
      </trkpt>
      <trkpt lat="45.79941" lon="5.02907">
        <ele>189.42142096611</ele>
        <time>2014-10-12T10:39:22.760Z</time>
      </trkpt>
      <trkpt lat="45.79959" lon="5.02938">
        <ele>189</ele>
        <time>2014-10-12T10:39:34.760Z</time>
      </trkpt>
      <trkpt lat="45.79977" lon="5.02925">
        <ele>189.57900032</ele>
        <time>2014-10-12T10:39:42.760Z</time>
      </trkpt>
      <trkpt lat="45.80008" lon="5.02902">
        <ele>189.62099968</ele>
        <time>2014-10-12T10:39:50.760Z</time>
      </trkpt>
      <trkpt lat="45.80041" lon="5.02919">
        <ele>189</ele>
        <time>2014-10-12T10:39:58.750Z</time>
      </trkpt>
      <trkpt lat="45.80083" lon="5.02934">
        <ele>189</ele>
        <time>2014-10-12T10:40:06.750Z</time>
      </trkpt>
      <trkpt lat="45.8012" lon="5.02909">
        <ele>189</ele>
        <time>2014-10-12T10:40:14.760Z</time>
      </trkpt>
      <trkpt lat="45.80142" lon="5.02941">
        <ele>189</ele>
        <time>2014-10-12T10:40:22.960Z</time>
      </trkpt>
      <trkpt lat="45.80125" lon="5.02971">
        <ele>188.62099968</ele>
        <time>2014-10-12T10:40:30.760Z</time>
      </trkpt>
      <trkpt lat="45.80094" lon="5.02998">
        <ele>188</ele>
        <time>2014-10-12T10:40:38.760Z</time>
      </trkpt>
      <trkpt lat="45.80059" lon="5.03039">
        <ele>188</ele>
        <time>2014-10-12T10:40:46.760Z</time>
      </trkpt>
      <trkpt lat="45.80031" lon="5.03093">
        <ele>188</ele>
        <time>2014-10-12T10:40:54.760Z</time>
      </trkpt>
      <trkpt lat="45.80012" lon="5.03155">
        <ele>187.42099968</ele>
        <time>2014-10-12T10:41:02.760Z</time>
      </trkpt>
      <trkpt lat="45.7999" lon="5.0322">
        <ele>187.37900032</ele>
        <time>2014-10-12T10:41:10.760Z</time>
      </trkpt>
      <trkpt lat="45.79979" lon="5.03292">
        <ele>188</ele>
        <time>2014-10-12T10:41:18.760Z</time>
      </trkpt>
      <trkpt lat="45.79981" lon="5.03365">
        <ele>188</ele>
        <time>2014-10-12T10:41:26.760Z</time>
      </trkpt>
      <trkpt lat="45.79985" lon="5.03439">
        <ele>188</ele>
        <time>2014-10-12T10:41:34.760Z</time>
      </trkpt>
      <trkpt lat="45.7998" lon="5.03513">
        <ele>188</ele>
        <time>2014-10-12T10:41:42.760Z</time>
      </trkpt>
      <trkpt lat="45.79968" lon="5.03578">
        <ele>188</ele>
        <time>2014-10-12T10:41:50.760Z</time>
      </trkpt>
      <trkpt lat="45.79946" lon="5.03637">
        <ele>188</ele>
        <time>2014-10-12T10:41:58.960Z</time>
      </trkpt>
      <trkpt lat="45.79935" lon="5.0371">
        <ele>188</ele>
        <time>2014-10-12T10:42:06.760Z</time>
      </trkpt>
      <trkpt lat="45.79934" lon="5.03782">
        <ele>188</ele>
        <time>2014-10-12T10:42:14.760Z</time>
      </trkpt>
      <trkpt lat="45.79943" lon="5.03836">
        <ele>188</ele>
        <time>2014-10-12T10:42:21.960Z</time>
      </trkpt>
      <trkpt lat="45.79963" lon="5.03881">
        <ele>188.25174833223</ele>
        <time>2014-10-12T10:42:29.490Z</time>
      </trkpt>
      <trkpt lat="45.79997" lon="5.03934">
        <ele>189</ele>
        <time>2014-10-12T10:42:37.760Z</time>
      </trkpt>
      <trkpt lat="45.8003" lon="5.03989">
        <ele>189</ele>
        <time>2014-10-12T10:42:45.760Z</time>
      </trkpt>
      <trkpt lat="45.80038" lon="5.04033">
        <ele>188.32099968</ele>
        <time>2014-10-12T10:42:53.760Z</time>
      </trkpt>
      <trkpt lat="45.80056" lon="5.04068">
        <ele>188</ele>
        <time>2014-10-12T10:43:01.960Z</time>
      </trkpt>
      <trkpt lat="45.80128" lon="5.04143">
        <ele>188</ele>
        <time>2014-10-12T10:43:14.690Z</time>
      </trkpt>
      <trkpt lat="45.80168" lon="5.04185">
        <ele>188.472</ele>
        <time>2014-10-12T10:43:21.690Z</time>
      </trkpt>
      <trkpt lat="45.80219" lon="5.04232">
        <ele>189</ele>
        <time>2014-10-12T10:43:29.490Z</time>
      </trkpt>
      <trkpt lat="45.80257" lon="5.04302">
        <ele>189.07807869371</ele>
        <time>2014-10-12T10:43:37.760Z</time>
      </trkpt>
      <trkpt lat="45.80269" lon="5.0436">
        <ele>189.878879238</ele>
        <time>2014-10-12T10:43:45.760Z</time>
      </trkpt>
      <trkpt lat="45.80304" lon="5.0441">
        <ele>189.30099968</ele>
        <time>2014-10-12T10:43:53.960Z</time>
      </trkpt>
      <trkpt lat="45.80342" lon="5.04469">
        <ele>188.52099968</ele>
        <time>2014-10-12T10:44:01.760Z</time>
      </trkpt>
      <trkpt lat="45.80385" lon="5.04537">
        <ele>188</ele>
        <time>2014-10-12T10:44:12.960Z</time>
      </trkpt>
      <trkpt lat="45.80403" lon="5.04545">
        <ele>188</ele>
        <time>2014-10-12T10:44:20.690Z</time>
      </trkpt>
      <trkpt lat="45.80402" lon="5.04516">
        <ele>187.83799936</ele>
        <time>2014-10-12T10:44:28.590Z</time>
      </trkpt>
      <trkpt lat="45.80408" lon="5.045">
        <ele>187.228</ele>
        <time>2014-10-12T10:44:34.690Z</time>
      </trkpt>
      <trkpt lat="45.8042" lon="5.04455">
        <ele>187</ele>
        <time>2014-10-12T10:44:45.690Z</time>
      </trkpt>
      <trkpt lat="45.80429" lon="5.04423">
        <ele>187.572</ele>
        <time>2014-10-12T10:44:52.690Z</time>
      </trkpt>
      <trkpt lat="45.80438" lon="5.04372">
        <ele>188</ele>
        <time>2014-10-12T10:45:00.690Z</time>
      </trkpt>
      <trkpt lat="45.80433" lon="5.04296">
        <ele>188</ele>
        <time>2014-10-12T10:45:11.960Z</time>
      </trkpt>
      <trkpt lat="45.8044" lon="5.04228">
        <ele>188</ele>
        <time>2014-10-12T10:45:22.500Z</time>
      </trkpt>
      <trkpt lat="45.80449" lon="5.04183">
        <ele>188</ele>
        <time>2014-10-12T10:45:29.690Z</time>
      </trkpt>
      <trkpt lat="45.80457" lon="5.0414">
        <ele>188</ele>
        <time>2014-10-12T10:45:37.590Z</time>
      </trkpt>
      <trkpt lat="45.80462" lon="5.04109">
        <ele>188</ele>
        <time>2014-10-12T10:45:43.490Z</time>
      </trkpt>
      <trkpt lat="45.8048" lon="5.04092">
        <ele>188</ele>
        <time>2014-10-12T10:45:52.690Z</time>
      </trkpt>
      <trkpt lat="45.80512" lon="5.04124">
        <ele>188</ele>
        <time>2014-10-12T10:46:00.690Z</time>
      </trkpt>
      <trkpt lat="45.80529" lon="5.04159">
        <ele>188</ele>
        <time>2014-10-12T10:46:08.490Z</time>
      </trkpt>
      <trkpt lat="45.80541" lon="5.04161">
        <ele>188</ele>
        <time>2014-10-12T10:46:16.490Z</time>
      </trkpt>
      <trkpt lat="45.80554" lon="5.04153">
        <ele>188</ele>
        <time>2014-10-12T10:46:25.760Z</time>
      </trkpt>
      <trkpt lat="45.80579" lon="5.04149">
        <ele>188</ele>
        <time>2014-10-12T10:46:34.860Z</time>
      </trkpt>
      <trkpt lat="45.80607" lon="5.04152">
        <ele>188</ele>
        <time>2014-10-12T10:46:42.960Z</time>
      </trkpt>
      <trkpt lat="45.80617" lon="5.04148">
        <ele>188</ele>
        <time>2014-10-12T10:46:54.960Z</time>
      </trkpt>
      <trkpt lat="45.80636" lon="5.04144">
        <ele>188</ele>
        <time>2014-10-12T10:47:12.590Z</time>
      </trkpt>
      <trkpt lat="45.80646" lon="5.04147">
        <ele>188.15370070363</ele>
        <time>2014-10-12T10:47:18.590Z</time>
      </trkpt>
      <trkpt lat="45.80663" lon="5.04138">
        <ele>188.92220057855</ele>
        <time>2014-10-12T10:47:26.690Z</time>
      </trkpt>
      <trkpt lat="45.80685" lon="5.04116">
        <ele>189.76638495823</ele>
        <time>2014-10-12T10:47:34.760Z</time>
      </trkpt>
      <trkpt lat="45.80698" lon="5.04086">
        <ele>190</ele>
        <time>2014-10-12T10:47:42.760Z</time>
      </trkpt>
      <trkpt lat="45.80717" lon="5.04056">
        <ele>189.62099968</ele>
        <time>2014-10-12T10:47:50.760Z</time>
      </trkpt>
      <trkpt lat="45.8072" lon="5.04041">
        <ele>189</ele>
        <time>2014-10-12T10:48:18.960Z</time>
      </trkpt>
      <trkpt lat="45.80726" lon="5.04011">
        <ele>189.82099968</ele>
        <time>2014-10-12T10:48:38.760Z</time>
      </trkpt>
      <trkpt lat="45.8073" lon="5.0395">
        <ele>189.02099968</ele>
        <time>2014-10-12T10:48:46.760Z</time>
      </trkpt>
      <trkpt lat="45.8072" lon="5.03916">
        <ele>188.22099968</ele>
        <time>2014-10-12T10:48:54.760Z</time>
      </trkpt>
      <trkpt lat="45.80711" lon="5.03925">
        <ele>189</ele>
        <time>2014-10-12T10:49:10.760Z</time>
      </trkpt>
      <trkpt lat="45.80726" lon="5.03928">
        <ele>188.80099968</ele>
        <time>2014-10-12T10:49:38.960Z</time>
      </trkpt>
      <trkpt lat="45.80734" lon="5.03917">
        <ele>188</ele>
        <time>2014-10-12T10:49:47.500Z</time>
      </trkpt>
      <trkpt lat="45.80742" lon="5.03887">
        <ele>188</ele>
        <time>2014-10-12T10:49:55.490Z</time>
      </trkpt>
      <trkpt lat="45.80758" lon="5.0385">
        <ele>189.07900032</ele>
        <time>2014-10-12T10:50:07.760Z</time>
      </trkpt>
      <trkpt lat="45.80771" lon="5.03841">
        <ele>189.87900032</ele>
        <time>2014-10-12T10:50:15.760Z</time>
      </trkpt>
      <trkpt lat="45.80784" lon="5.03838">
        <ele>189.10099968</ele>
        <time>2014-10-12T10:50:25.960Z</time>
      </trkpt>
      <trkpt lat="45.8078" lon="5.03824">
        <ele>188</ele>
        <time>2014-10-12T10:50:41.690Z</time>
      </trkpt>
      <trkpt lat="45.80771" lon="5.03811">
        <ele>188.87564263125</ele>
        <time>2014-10-12T10:51:15.760Z</time>
      </trkpt>
      <trkpt lat="45.80761" lon="5.03792">
        <ele>188.648</ele>
        <time>2014-10-12T10:51:30.490Z</time>
      </trkpt>
      <trkpt lat="45.80748" lon="5.03767">
        <ele>188</ele>
        <time>2014-10-12T10:51:38.960Z</time>
      </trkpt>
      <trkpt lat="45.80738" lon="5.03733">
        <ele>188</ele>
        <time>2014-10-12T10:51:47.560Z</time>
      </trkpt>
      <trkpt lat="45.80735" lon="5.0371">
        <ele>188</ele>
        <time>2014-10-12T10:51:52.860Z</time>
      </trkpt>
      <trkpt lat="45.8072" lon="5.03674">
        <ele>188</ele>
        <time>2014-10-12T10:52:00.590Z</time>
      </trkpt>
      <trkpt lat="45.80715" lon="5.03661">
        <ele>188</ele>
        <time>2014-10-12T10:52:07.690Z</time>
      </trkpt>
      <trkpt lat="45.80725" lon="5.03682">
        <ele>188</ele>
        <time>2014-10-12T10:52:25.590Z</time>
      </trkpt>
      <trkpt lat="45.80737" lon="5.03713">
        <ele>188</ele>
        <time>2014-10-12T10:52:34.490Z</time>
      </trkpt>
      <trkpt lat="45.80747" lon="5.03742">
        <ele>188</ele>
        <time>2014-10-12T10:52:42.590Z</time>
      </trkpt>
      <trkpt lat="45.80761" lon="5.03779">
        <ele>188</ele>
        <time>2014-10-12T10:52:50.960Z</time>
      </trkpt>
      <trkpt lat="45.80775" lon="5.03806">
        <ele>188</ele>
        <time>2014-10-12T10:53:00.860Z</time>
      </trkpt>
      <trkpt lat="45.80787" lon="5.03805">
        <ele>188.772</ele>
        <time>2014-10-12T10:53:14.690Z</time>
      </trkpt>
      <trkpt lat="45.80797" lon="5.03778">
        <ele>188.73146309806</ele>
        <time>2014-10-12T10:53:29.690Z</time>
      </trkpt>
      <trkpt lat="45.80829" lon="5.0373">
        <ele>188.46092213927</ele>
        <time>2014-10-12T10:53:41.590Z</time>
      </trkpt>
      <trkpt lat="45.80843" lon="5.03716">
        <ele>189</ele>
        <time>2014-10-12T10:53:49.490Z</time>
      </trkpt>
      <trkpt lat="45.80859" lon="5.03709">
        <ele>189</ele>
        <time>2014-10-12T10:53:57.760Z</time>
      </trkpt>
      <trkpt lat="45.80889" lon="5.03702">
        <ele>189.28899968</ele>
        <time>2014-10-12T10:54:09.860Z</time>
      </trkpt>
      <trkpt lat="45.80891" lon="5.03674">
        <ele>191</ele>
        <time>2014-10-12T10:54:53.860Z</time>
      </trkpt>
      <trkpt lat="45.80883" lon="5.0361">
        <ele>190.51100032</ele>
        <time>2014-10-12T10:55:01.860Z</time>
      </trkpt>
      <trkpt lat="45.80879" lon="5.03557">
        <ele>189.42200064</ele>
        <time>2014-10-12T10:55:09.860Z</time>
      </trkpt>
      <trkpt lat="45.80885" lon="5.03517">
        <ele>188.09900032</ele>
        <time>2014-10-12T10:55:17.960Z</time>
      </trkpt>
      <trkpt lat="45.80892" lon="5.03499">
        <ele>188.87900032</ele>
        <time>2014-10-12T10:55:25.760Z</time>
      </trkpt>
      <trkpt lat="45.80901" lon="5.03501">
        <ele>189</ele>
        <time>2014-10-12T10:55:33.760Z</time>
      </trkpt>
      <trkpt lat="45.80892" lon="5.0353">
        <ele>189.00199936</ele>
        <time>2014-10-12T10:56:01.960Z</time>
      </trkpt>
      <trkpt lat="45.80884" lon="5.03598">
        <ele>188.29900032</ele>
        <time>2014-10-12T10:56:09.960Z</time>
      </trkpt>
      <trkpt lat="45.80889" lon="5.0366">
        <ele>189</ele>
        <time>2014-10-12T10:56:17.960Z</time>
      </trkpt>
      <trkpt lat="45.80896" lon="5.03717">
        <ele>189</ele>
        <time>2014-10-12T10:56:25.960Z</time>
      </trkpt>
      <trkpt lat="45.80902" lon="5.03751">
        <ele>189.67867910193</ele>
        <time>2014-10-12T10:56:33.760Z</time>
      </trkpt>
      <trkpt lat="45.80914" lon="5.03792">
        <ele>190</ele>
        <time>2014-10-12T10:56:41.860Z</time>
      </trkpt>
      <trkpt lat="45.80933" lon="5.03818">
        <ele>190</ele>
        <time>2014-10-12T10:56:57.760Z</time>
      </trkpt>
      <trkpt lat="45.80932" lon="5.03841">
        <ele>190</ele>
        <time>2014-10-12T10:57:17.960Z</time>
      </trkpt>
      <trkpt lat="45.8093" lon="5.03831">
        <ele>190</ele>
        <time>2014-10-12T10:57:37.760Z</time>
      </trkpt>
      <trkpt lat="45.80921" lon="5.03785">
        <ele>190</ele>
        <time>2014-10-12T10:57:45.760Z</time>
      </trkpt>
      <trkpt lat="45.80909" lon="5.03742">
        <ele>190</ele>
        <time>2014-10-12T10:57:53.760Z</time>
      </trkpt>
      <trkpt lat="45.80896" lon="5.03716">
        <ele>189.02820980545</ele>
        <time>2014-10-12T10:58:06.960Z</time>
      </trkpt>
      <trkpt lat="45.80883" lon="5.03695">
        <ele>189.652</ele>
        <time>2014-10-12T10:58:33.490Z</time>
      </trkpt>
      <trkpt lat="45.80867" lon="5.0362">
        <ele>190</ele>
        <time>2014-10-12T10:58:41.760Z</time>
      </trkpt>
      <trkpt lat="45.80873" lon="5.03552">
        <ele>189.40199936</ele>
        <time>2014-10-12T10:58:49.960Z</time>
      </trkpt>
      <trkpt lat="45.80893" lon="5.03485">
        <ele>188.15800064</ele>
        <time>2014-10-12T10:58:57.760Z</time>
      </trkpt>
      <trkpt lat="45.80903" lon="5.03425">
        <ele>189.75800064</ele>
        <time>2014-10-12T10:59:05.760Z</time>
      </trkpt>
      <trkpt lat="45.80914" lon="5.03369">
        <ele>190.67900032</ele>
        <time>2014-10-12T10:59:13.760Z</time>
      </trkpt>
      <trkpt lat="45.80921" lon="5.03305">
        <ele>191</ele>
        <time>2014-10-12T10:59:21.760Z</time>
      </trkpt>
      <trkpt lat="45.80933" lon="5.03238">
        <ele>191</ele>
        <time>2014-10-12T10:59:29.760Z</time>
      </trkpt>
      <trkpt lat="45.80941" lon="5.03168">
        <ele>191</ele>
        <time>2014-10-12T10:59:37.760Z</time>
      </trkpt>
      <trkpt lat="45.80948" lon="5.03097">
        <ele>191</ele>
        <time>2014-10-12T10:59:45.760Z</time>
      </trkpt>
      <trkpt lat="45.80955" lon="5.03023">
        <ele>191</ele>
        <time>2014-10-12T10:59:53.760Z</time>
      </trkpt>
      <trkpt lat="45.80968" lon="5.02953">
        <ele>191.47847896585</ele>
        <time>2014-10-12T11:00:01.760Z</time>
      </trkpt>
      <trkpt lat="45.80984" lon="5.02885">
        <ele>192</ele>
        <time>2014-10-12T11:00:09.760Z</time>
      </trkpt>
      <trkpt lat="45.80997" lon="5.0282">
        <ele>192</ele>
        <time>2014-10-12T11:00:17.760Z</time>
      </trkpt>
      <trkpt lat="45.81008" lon="5.02748">
        <ele>192</ele>
        <time>2014-10-12T11:00:25.760Z</time>
      </trkpt>
      <trkpt lat="45.81005" lon="5.0267">
        <ele>190.64199936</ele>
        <time>2014-10-12T11:00:33.760Z</time>
      </trkpt>
      <trkpt lat="45.81004" lon="5.02596">
        <ele>189.52099968</ele>
        <time>2014-10-12T11:00:41.760Z</time>
      </trkpt>
      <trkpt lat="45.81005" lon="5.02519">
        <ele>189.27900032</ele>
        <time>2014-10-12T11:00:49.760Z</time>
      </trkpt>
      <trkpt lat="45.81011" lon="5.02449">
        <ele>190.07900032</ele>
        <time>2014-10-12T11:00:57.760Z</time>
      </trkpt>
      <trkpt lat="45.81024" lon="5.02386">
        <ele>190.87900032</ele>
        <time>2014-10-12T11:01:05.760Z</time>
      </trkpt>
      <trkpt lat="45.81026" lon="5.0232">
        <ele>191</ele>
        <time>2014-10-12T11:01:13.760Z</time>
      </trkpt>
      <trkpt lat="45.81026" lon="5.02249">
        <ele>191.47900032</ele>
        <time>2014-10-12T11:01:21.760Z</time>
      </trkpt>
      <trkpt lat="45.81029" lon="5.02175">
        <ele>192</ele>
        <time>2014-10-12T11:01:29.760Z</time>
      </trkpt>
      <trkpt lat="45.81033" lon="5.02101">
        <ele>192</ele>
        <time>2014-10-12T11:01:37.760Z</time>
      </trkpt>
      <trkpt lat="45.81027" lon="5.02028">
        <ele>192</ele>
        <time>2014-10-12T11:01:45.760Z</time>
      </trkpt>
      <trkpt lat="45.81022" lon="5.01953">
        <ele>191.32099968</ele>
        <time>2014-10-12T11:01:53.760Z</time>
      </trkpt>
      <trkpt lat="45.81016" lon="5.01883">
        <ele>191</ele>
        <time>2014-10-12T11:02:01.760Z</time>
      </trkpt>
      <trkpt lat="45.81022" lon="5.01816">
        <ele>191</ele>
        <time>2014-10-12T11:02:09.760Z</time>
      </trkpt>
      <trkpt lat="45.81024" lon="5.0175">
        <ele>191</ele>
        <time>2014-10-12T11:02:17.760Z</time>
      </trkpt>
      <trkpt lat="45.81032" lon="5.01683">
        <ele>191</ele>
        <time>2014-10-12T11:02:25.760Z</time>
      </trkpt>
      <trkpt lat="45.81028" lon="5.01611">
        <ele>191</ele>
        <time>2014-10-12T11:02:33.760Z</time>
      </trkpt>
      <trkpt lat="45.81039" lon="5.01545">
        <ele>191</ele>
        <time>2014-10-12T11:02:41.760Z</time>
      </trkpt>
      <trkpt lat="45.81054" lon="5.01479">
        <ele>191</ele>
        <time>2014-10-12T11:02:49.760Z</time>
      </trkpt>
      <trkpt lat="45.81075" lon="5.01416">
        <ele>191</ele>
        <time>2014-10-12T11:02:57.760Z</time>
      </trkpt>
      <trkpt lat="45.81078" lon="5.01351">
        <ele>191</ele>
        <time>2014-10-12T11:03:05.760Z</time>
      </trkpt>
      <trkpt lat="45.8106" lon="5.01288">
        <ele>191</ele>
        <time>2014-10-12T11:03:13.760Z</time>
      </trkpt>
      <trkpt lat="45.81032" lon="5.01237">
        <ele>190.04199936</ele>
        <time>2014-10-12T11:03:21.760Z</time>
      </trkpt>
      <trkpt lat="45.80997" lon="5.01194">
        <ele>189</ele>
        <time>2014-10-12T11:03:29.760Z</time>
      </trkpt>
      <trkpt lat="45.80955" lon="5.01148">
        <ele>189</ele>
        <time>2014-10-12T11:03:37.960Z</time>
      </trkpt>
      <trkpt lat="45.80923" lon="5.01094">
        <ele>189</ele>
        <time>2014-10-12T11:03:45.760Z</time>
      </trkpt>
      <trkpt lat="45.80907" lon="5.01032">
        <ele>189.67900032</ele>
        <time>2014-10-12T11:03:53.760Z</time>
      </trkpt>
      <trkpt lat="45.80898" lon="5.00967">
        <ele>190</ele>
        <time>2014-10-12T11:04:01.760Z</time>
      </trkpt>
      <trkpt lat="45.80887" lon="5.00898">
        <ele>190</ele>
        <time>2014-10-12T11:04:09.960Z</time>
      </trkpt>
      <trkpt lat="45.80896" lon="5.00816">
        <ele>190</ele>
        <time>2014-10-12T11:04:17.770Z</time>
      </trkpt>
      <trkpt lat="45.80907" lon="5.00746">
        <ele>190</ele>
        <time>2014-10-12T11:04:25.760Z</time>
      </trkpt>
      <trkpt lat="45.80919" lon="5.0069">
        <ele>189.32099968</ele>
        <time>2014-10-12T11:04:33.760Z</time>
      </trkpt>
      <trkpt lat="45.80939" lon="5.00634">
        <ele>189</ele>
        <time>2014-10-12T11:04:41.760Z</time>
      </trkpt>
      <trkpt lat="45.80946" lon="5.00566">
        <ele>189</ele>
        <time>2014-10-12T11:04:49.760Z</time>
      </trkpt>
      <trkpt lat="45.80954" lon="5.00487">
        <ele>189.07900032</ele>
        <time>2014-10-12T11:04:57.760Z</time>
      </trkpt>
      <trkpt lat="45.80956" lon="5.00411">
        <ele>189.87900032</ele>
        <time>2014-10-12T11:05:05.760Z</time>
      </trkpt>
      <trkpt lat="45.80961" lon="5.00351">
        <ele>190</ele>
        <time>2014-10-12T11:05:12.960Z</time>
      </trkpt>
      <trkpt lat="45.8095" lon="5.00271">
        <ele>190</ele>
        <time>2014-10-12T11:05:20.690Z</time>
      </trkpt>
      <trkpt lat="45.80947" lon="5.00201">
        <ele>190</ele>
        <time>2014-10-12T11:05:28.760Z</time>
      </trkpt>
      <trkpt lat="45.80935" lon="5.00124">
        <ele>190</ele>
        <time>2014-10-12T11:05:36.760Z</time>
      </trkpt>
      <trkpt lat="45.80924" lon="5.00053">
        <ele>190</ele>
        <time>2014-10-12T11:05:44.760Z</time>
      </trkpt>
      <trkpt lat="45.80911" lon="4.99976">
        <ele>189.42099968</ele>
        <time>2014-10-12T11:05:52.760Z</time>
      </trkpt>
      <trkpt lat="45.80886" lon="4.9991">
        <ele>189.37900032</ele>
        <time>2014-10-12T11:06:00.760Z</time>
      </trkpt>
      <trkpt lat="45.80856" lon="4.99843">
        <ele>190</ele>
        <time>2014-10-12T11:06:08.760Z</time>
      </trkpt>
      <trkpt lat="45.80836" lon="4.99782">
        <ele>190</ele>
        <time>2014-10-12T11:06:16.760Z</time>
      </trkpt>
      <trkpt lat="45.80815" lon="4.99723">
        <ele>190</ele>
        <time>2014-10-12T11:06:24.760Z</time>
      </trkpt>
      <trkpt lat="45.80781" lon="4.99668">
        <ele>190</ele>
        <time>2014-10-12T11:06:32.760Z</time>
      </trkpt>
      <trkpt lat="45.80747" lon="4.9963">
        <ele>190</ele>
        <time>2014-10-12T11:06:40.760Z</time>
      </trkpt>
      <trkpt lat="45.8077" lon="4.99598">
        <ele>189.80099968</ele>
        <time>2014-10-12T11:06:48.960Z</time>
      </trkpt>
      <trkpt lat="45.80821" lon="4.99581">
        <ele>189.02099968</ele>
        <time>2014-10-12T11:06:56.760Z</time>
      </trkpt>
      <trkpt lat="45.80874" lon="4.99574">
        <ele>189</ele>
        <time>2014-10-12T11:07:04.760Z</time>
      </trkpt>
      <trkpt lat="45.80921" lon="4.99592">
        <ele>189</ele>
        <time>2014-10-12T11:07:12.760Z</time>
      </trkpt>
      <trkpt lat="45.80953" lon="4.9957">
        <ele>189</ele>
        <time>2014-10-12T11:07:20.760Z</time>
      </trkpt>
      <trkpt lat="45.80938" lon="4.9951">
        <ele>189</ele>
        <time>2014-10-12T11:07:28.760Z</time>
      </trkpt>
      <trkpt lat="45.80909" lon="4.99433">
        <ele>189</ele>
        <time>2014-10-12T11:07:36.760Z</time>
      </trkpt>
      <trkpt lat="45.80895" lon="4.99367">
        <ele>189.77900032</ele>
        <time>2014-10-12T11:07:44.760Z</time>
      </trkpt>
      <trkpt lat="45.80884" lon="4.99321">
        <ele>190</ele>
        <time>2014-10-12T11:07:52.760Z</time>
      </trkpt>
      <trkpt lat="45.80884" lon="4.99284">
        <ele>189</ele>
        <time>2014-10-12T11:08:24.760Z</time>
      </trkpt>
      <trkpt lat="45.80893" lon="4.99272">
        <ele>189</ele>
        <time>2014-10-12T11:08:48.760Z</time>
      </trkpt>
      <trkpt lat="45.80909" lon="4.99222">
        <ele>189</ele>
        <time>2014-10-12T11:08:56.760Z</time>
      </trkpt>
      <trkpt lat="45.80931" lon="4.99175">
        <ele>189</ele>
        <time>2014-10-12T11:09:04.770Z</time>
      </trkpt>
      <trkpt lat="45.80956" lon="4.99132">
        <ele>189</ele>
        <time>2014-10-12T11:09:12.760Z</time>
      </trkpt>
      <trkpt lat="45.80987" lon="4.99091">
        <ele>189.37837889782</ele>
        <time>2014-10-12T11:09:20.760Z</time>
      </trkpt>
      <trkpt lat="45.81016" lon="4.99051">
        <ele>190</ele>
        <time>2014-10-12T11:09:28.760Z</time>
      </trkpt>
      <trkpt lat="45.81041" lon="4.99003">
        <ele>190</ele>
        <time>2014-10-12T11:09:36.760Z</time>
      </trkpt>
      <trkpt lat="45.81068" lon="4.98944">
        <ele>190</ele>
        <time>2014-10-12T11:09:44.760Z</time>
      </trkpt>
      <trkpt lat="45.81105" lon="4.98888">
        <ele>190</ele>
        <time>2014-10-12T11:09:52.760Z</time>
      </trkpt>
      <trkpt lat="45.81148" lon="4.98846">
        <ele>189.62099968</ele>
        <time>2014-10-12T11:10:00.760Z</time>
      </trkpt>
      <trkpt lat="45.81174" lon="4.98815">
        <ele>189</ele>
        <time>2014-10-12T11:10:08.760Z</time>
      </trkpt>
      <trkpt lat="45.81161" lon="4.98788">
        <ele>189</ele>
        <time>2014-10-12T11:10:16.760Z</time>
      </trkpt>
      <trkpt lat="45.81107" lon="4.98745">
        <ele>189.77900032</ele>
        <time>2014-10-12T11:10:24.760Z</time>
      </trkpt>
      <trkpt lat="45.81073" lon="4.98696">
        <ele>190.57900032</ele>
        <time>2014-10-12T11:10:32.760Z</time>
      </trkpt>
      <trkpt lat="45.81075" lon="4.98632">
        <ele>191</ele>
        <time>2014-10-12T11:10:40.760Z</time>
      </trkpt>
      <trkpt lat="45.81107" lon="4.98573">
        <ele>191</ele>
        <time>2014-10-12T11:10:48.760Z</time>
      </trkpt>
      <trkpt lat="45.81144" lon="4.9851">
        <ele>191</ele>
        <time>2014-10-12T11:10:56.760Z</time>
      </trkpt>
      <trkpt lat="45.81172" lon="4.98452">
        <ele>189.44199936</ele>
        <time>2014-10-12T11:11:04.760Z</time>
      </trkpt>
      <trkpt lat="45.81197" lon="4.98387">
        <ele>189</ele>
        <time>2014-10-12T11:11:12.760Z</time>
      </trkpt>
      <trkpt lat="45.8122" lon="4.98324">
        <ele>189</ele>
        <time>2014-10-12T11:11:20.760Z</time>
      </trkpt>
      <trkpt lat="45.81231" lon="4.98252">
        <ele>189</ele>
        <time>2014-10-12T11:11:28.760Z</time>
      </trkpt>
      <trkpt lat="45.8126" lon="4.98176">
        <ele>189</ele>
        <time>2014-10-12T11:11:36.760Z</time>
      </trkpt>
      <trkpt lat="45.81282" lon="4.98118">
        <ele>189</ele>
        <time>2014-10-12T11:11:44.760Z</time>
      </trkpt>
      <trkpt lat="45.8132" lon="4.98065">
        <ele>189.57900032</ele>
        <time>2014-10-12T11:11:52.760Z</time>
      </trkpt>
      <trkpt lat="45.81358" lon="4.98017">
        <ele>190</ele>
        <time>2014-10-12T11:12:01.360Z</time>
      </trkpt>
      <trkpt lat="45.81396" lon="4.97967">
        <ele>190</ele>
        <time>2014-10-12T11:12:09.860Z</time>
      </trkpt>
      <trkpt lat="45.81435" lon="4.97923">
        <ele>190</ele>
        <time>2014-10-12T11:12:17.860Z</time>
      </trkpt>
      <trkpt lat="45.81474" lon="4.97876">
        <ele>190</ele>
        <time>2014-10-12T11:12:25.860Z</time>
      </trkpt>
      <trkpt lat="45.81513" lon="4.97829">
        <ele>190</ele>
        <time>2014-10-12T11:12:33.860Z</time>
      </trkpt>
      <trkpt lat="45.81549" lon="4.97781">
        <ele>190</ele>
        <time>2014-10-12T11:12:41.860Z</time>
      </trkpt>
      <trkpt lat="45.81578" lon="4.97736">
        <ele>190</ele>
        <time>2014-10-12T11:12:49.860Z</time>
      </trkpt>
      <trkpt lat="45.81599" lon="4.97733">
        <ele>189.91100032</ele>
        <time>2014-10-12T11:12:57.860Z</time>
      </trkpt>
      <trkpt lat="45.81623" lon="4.97751">
        <ele>189.11100032</ele>
        <time>2014-10-12T11:13:05.860Z</time>
      </trkpt>
      <trkpt lat="45.81646" lon="4.97769">
        <ele>189</ele>
        <time>2014-10-12T11:13:13.860Z</time>
      </trkpt>
      <trkpt lat="45.81637" lon="4.97777">
        <ele>190</ele>
        <time>2014-10-12T11:13:29.860Z</time>
      </trkpt>
      <trkpt lat="45.81636" lon="4.97781">
        <ele>189.29900032</ele>
        <time>2014-10-12T11:14:09.960Z</time>
      </trkpt>
      <trkpt lat="45.81647" lon="4.9776">
        <ele>189.09900032</ele>
        <time>2014-10-12T11:14:37.960Z</time>
      </trkpt>
      <trkpt lat="45.81668" lon="4.9774">
        <ele>189.89900032</ele>
        <time>2014-10-12T11:14:45.960Z</time>
      </trkpt>
      <trkpt lat="45.81683" lon="4.97728">
        <ele>190.69900032</ele>
        <time>2014-10-12T11:14:53.960Z</time>
      </trkpt>
      <trkpt lat="45.81703" lon="4.97687">
        <ele>190.00199936</ele>
        <time>2014-10-12T11:15:01.960Z</time>
      </trkpt>
      <trkpt lat="45.81704" lon="4.97651">
        <ele>189.29900032</ele>
        <time>2014-10-12T11:15:09.960Z</time>
      </trkpt>
      <trkpt lat="45.81704" lon="4.97615">
        <ele>190</ele>
        <time>2014-10-12T11:15:17.960Z</time>
      </trkpt>
      <trkpt lat="45.81706" lon="4.97581">
        <ele>190</ele>
        <time>2014-10-12T11:15:25.960Z</time>
      </trkpt>
      <trkpt lat="45.81702" lon="4.97544">
        <ele>190</ele>
        <time>2014-10-12T11:15:33.960Z</time>
      </trkpt>
      <trkpt lat="45.81697" lon="4.97517">
        <ele>189.50099968</ele>
        <time>2014-10-12T11:15:41.960Z</time>
      </trkpt>
      <trkpt lat="45.81691" lon="4.97484">
        <ele>189</ele>
        <time>2014-10-12T11:15:49.960Z</time>
      </trkpt>
      <trkpt lat="45.81684" lon="4.97451">
        <ele>189</ele>
        <time>2014-10-12T11:15:57.960Z</time>
      </trkpt>
      <trkpt lat="45.81677" lon="4.97415">
        <ele>189</ele>
        <time>2014-10-12T11:16:05.960Z</time>
      </trkpt>
      <trkpt lat="45.81664" lon="4.97381">
        <ele>189</ele>
        <time>2014-10-12T11:16:13.860Z</time>
      </trkpt>
      <trkpt lat="45.81659" lon="4.97344">
        <ele>189</ele>
        <time>2014-10-12T11:16:21.860Z</time>
      </trkpt>
      <trkpt lat="45.81653" lon="4.97296">
        <ele>189</ele>
        <time>2014-10-12T11:16:33.860Z</time>
      </trkpt>
      <trkpt lat="45.8165" lon="4.97256">
        <ele>189</ele>
        <time>2014-10-12T11:16:41.860Z</time>
      </trkpt>
      <trkpt lat="45.81652" lon="4.97218">
        <ele>189</ele>
        <time>2014-10-12T11:16:49.860Z</time>
      </trkpt>
      <trkpt lat="45.81648" lon="4.97183">
        <ele>189</ele>
        <time>2014-10-12T11:16:57.860Z</time>
      </trkpt>
      <trkpt lat="45.81636" lon="4.9714">
        <ele>189</ele>
        <time>2014-10-12T11:17:06.860Z</time>
      </trkpt>
      <trkpt lat="45.81656" lon="4.97104">
        <ele>189</ele>
        <time>2014-10-12T11:17:18.590Z</time>
      </trkpt>
      <trkpt lat="45.81687" lon="4.97098">
        <ele>188.61099904</ele>
        <time>2014-10-12T11:17:30.860Z</time>
      </trkpt>
      <trkpt lat="45.81671" lon="4.97085">
        <ele>187.01099904</ele>
        <time>2014-10-12T11:17:46.860Z</time>
      </trkpt>
      <trkpt lat="45.8167" lon="4.97064">
        <ele>187.78900096</ele>
        <time>2014-10-12T11:17:54.860Z</time>
      </trkpt>
      <trkpt lat="45.81662" lon="4.97028">
        <ele>188.58900096</ele>
        <time>2014-10-12T11:18:02.860Z</time>
      </trkpt>
      <trkpt lat="45.81661" lon="4.96996">
        <ele>189</ele>
        <time>2014-10-12T11:18:10.860Z</time>
      </trkpt>
      <trkpt lat="45.81659" lon="4.96961">
        <ele>189</ele>
        <time>2014-10-12T11:18:18.860Z</time>
      </trkpt>
      <trkpt lat="45.81653" lon="4.9692">
        <ele>189</ele>
        <time>2014-10-12T11:18:26.860Z</time>
      </trkpt>
      <trkpt lat="45.81647" lon="4.96886">
        <ele>188.21099904</ele>
        <time>2014-10-12T11:18:34.860Z</time>
      </trkpt>
      <trkpt lat="45.81642" lon="4.96856">
        <ele>188</ele>
        <time>2014-10-12T11:18:42.860Z</time>
      </trkpt>
      <trkpt lat="45.81639" lon="4.9682">
        <ele>188.38838954526</ele>
        <time>2014-10-12T11:18:50.860Z</time>
      </trkpt>
      <trkpt lat="45.81641" lon="4.96786">
        <ele>188.62199808</ele>
        <time>2014-10-12T11:18:58.860Z</time>
      </trkpt>
      <trkpt lat="45.8164" lon="4.96754">
        <ele>187.02199808</ele>
        <time>2014-10-12T11:19:06.860Z</time>
      </trkpt>
      <trkpt lat="45.81643" lon="4.96719">
        <ele>187</ele>
        <time>2014-10-12T11:19:14.860Z</time>
      </trkpt>
      <trkpt lat="45.81648" lon="4.96685">
        <ele>187</ele>
        <time>2014-10-12T11:19:22.860Z</time>
      </trkpt>
      <trkpt lat="45.81653" lon="4.96648">
        <ele>187.38900096</ele>
        <time>2014-10-12T11:19:30.860Z</time>
      </trkpt>
      <trkpt lat="45.81655" lon="4.96622">
        <ele>188</ele>
        <time>2014-10-12T11:19:38.860Z</time>
      </trkpt>
      <trkpt lat="45.81654" lon="4.96585">
        <ele>188</ele>
        <time>2014-10-12T11:19:50.860Z</time>
      </trkpt>
      <trkpt lat="45.81658" lon="4.96552">
        <ele>188</ele>
        <time>2014-10-12T11:19:58.860Z</time>
      </trkpt>
      <trkpt lat="45.81656" lon="4.9653">
        <ele>188</ele>
        <time>2014-10-12T11:20:06.860Z</time>
      </trkpt>
      <trkpt lat="45.81664" lon="4.96501">
        <ele>186.42199808</ele>
        <time>2014-10-12T11:20:14.860Z</time>
      </trkpt>
      <trkpt lat="45.81691" lon="4.96514">
        <ele>186</ele>
        <time>2014-10-12T11:20:22.860Z</time>
      </trkpt>
      <trkpt lat="45.81686" lon="4.96531">
        <ele>185.58900096</ele>
        <time>2014-10-12T11:20:42.860Z</time>
      </trkpt>
      <trkpt lat="45.817" lon="4.96547">
        <ele>187.57800192</ele>
        <time>2014-10-12T11:20:54.860Z</time>
      </trkpt>
      <trkpt lat="45.81739" lon="4.96563">
        <ele>188</ele>
        <time>2014-10-12T11:21:10.860Z</time>
      </trkpt>
      <trkpt lat="45.81746" lon="4.96576">
        <ele>187.81099904</ele>
        <time>2014-10-12T11:21:18.860Z</time>
      </trkpt>
      <trkpt lat="45.81759" lon="4.96603">
        <ele>187.39000064</ele>
        <time>2014-10-12T11:21:30.870Z</time>
      </trkpt>
      <trkpt lat="45.81767" lon="4.96634">
        <ele>188.19000064</ele>
        <time>2014-10-12T11:21:38.870Z</time>
      </trkpt>
      <trkpt lat="45.8178" lon="4.96628">
        <ele>189</ele>
        <time>2014-10-12T11:21:50.860Z</time>
      </trkpt>
      <trkpt lat="45.81794" lon="4.96633">
        <ele>188.677675859</ele>
        <time>2014-10-12T11:21:58.590Z</time>
      </trkpt>
      <trkpt lat="45.81804" lon="4.96637">
        <ele>187.11611479764</ele>
        <time>2014-10-12T11:22:06.390Z</time>
      </trkpt>
      <trkpt lat="45.81814" lon="4.96646">
        <ele>188.57800192</ele>
        <time>2014-10-12T11:22:14.860Z</time>
      </trkpt>
      <trkpt lat="45.81819" lon="4.96631">
        <ele>189</ele>
        <time>2014-10-12T11:22:22.860Z</time>
      </trkpt>
      <trkpt lat="45.81814" lon="4.96617">
        <ele>189</ele>
        <time>2014-10-12T11:22:30.860Z</time>
      </trkpt>
      <trkpt lat="45.81836" lon="4.96622">
        <ele>187.82199808</ele>
        <time>2014-10-12T11:22:42.860Z</time>
      </trkpt>
      <trkpt lat="45.81851" lon="4.96657">
        <ele>186.61099904</ele>
        <time>2014-10-12T11:22:50.860Z</time>
      </trkpt>
      <trkpt lat="45.81862" lon="4.96706">
        <ele>186</ele>
        <time>2014-10-12T11:23:02.860Z</time>
      </trkpt>
      <trkpt lat="45.81864" lon="4.96735">
        <ele>186</ele>
        <time>2014-10-12T11:23:10.590Z</time>
      </trkpt>
      <trkpt lat="45.81872" lon="4.96766">
        <ele>186</ele>
        <time>2014-10-12T11:23:18.860Z</time>
      </trkpt>
      <trkpt lat="45.81869" lon="4.96785">
        <ele>186</ele>
        <time>2014-10-12T11:23:26.860Z</time>
      </trkpt>
      <trkpt lat="45.8187" lon="4.96758">
        <ele>186.58900096</ele>
        <time>2014-10-12T11:23:42.860Z</time>
      </trkpt>
      <trkpt lat="45.8186" lon="4.96715">
        <ele>187</ele>
        <time>2014-10-12T11:23:51.960Z</time>
      </trkpt>
      <trkpt lat="45.81852" lon="4.96683">
        <ele>187</ele>
        <time>2014-10-12T11:23:58.490Z</time>
      </trkpt>
      <trkpt lat="45.81833" lon="4.96637">
        <ele>187</ele>
        <time>2014-10-12T11:24:10.590Z</time>
      </trkpt>
      <trkpt lat="45.81821" lon="4.96598">
        <ele>187</ele>
        <time>2014-10-12T11:24:22.860Z</time>
      </trkpt>
      <trkpt lat="45.8183" lon="4.96569">
        <ele>187.77800192</ele>
        <time>2014-10-12T11:24:30.860Z</time>
      </trkpt>
      <trkpt lat="45.8185" lon="4.96536">
        <ele>189.58900096</ele>
        <time>2014-10-12T11:24:42.860Z</time>
      </trkpt>
      <trkpt lat="45.81872" lon="4.96536">
        <ele>190</ele>
        <time>2014-10-12T11:24:54.860Z</time>
      </trkpt>
      <trkpt lat="45.81883" lon="4.96561">
        <ele>190</ele>
        <time>2014-10-12T11:25:02.860Z</time>
      </trkpt>
      <trkpt lat="45.81896" lon="4.96607">
        <ele>190</ele>
        <time>2014-10-12T11:25:14.860Z</time>
      </trkpt>
      <trkpt lat="45.81919" lon="4.96638">
        <ele>190</ele>
        <time>2014-10-12T11:25:22.860Z</time>
      </trkpt>
      <trkpt lat="45.81928" lon="4.96671">
        <ele>190</ele>
        <time>2014-10-12T11:25:30.860Z</time>
      </trkpt>
      <trkpt lat="45.81942" lon="4.96701">
        <ele>189.81181059081</ele>
        <time>2014-10-12T11:25:38.860Z</time>
      </trkpt>
      <trkpt lat="45.81954" lon="4.96692">
        <ele>189</ele>
        <time>2014-10-12T11:25:50.860Z</time>
      </trkpt>
      <trkpt lat="45.81968" lon="4.9666">
        <ele>188.41099904</ele>
        <time>2014-10-12T11:26:02.860Z</time>
      </trkpt>
      <trkpt lat="45.81971" lon="4.96623">
        <ele>188</ele>
        <time>2014-10-12T11:26:14.860Z</time>
      </trkpt>
      <trkpt lat="45.81965" lon="4.96612">
        <ele>187</ele>
        <time>2014-10-12T11:26:38.860Z</time>
      </trkpt>
      <trkpt lat="45.81977" lon="4.96589">
        <ele>187.38900096</ele>
        <time>2014-10-12T11:26:50.860Z</time>
      </trkpt>
      <trkpt lat="45.81997" lon="4.96554">
        <ele>188.58900096</ele>
        <time>2014-10-12T11:27:02.860Z</time>
      </trkpt>
      <trkpt lat="45.82015" lon="4.96532">
        <ele>189</ele>
        <time>2014-10-12T11:27:10.860Z</time>
      </trkpt>
      <trkpt lat="45.82015" lon="4.96536">
        <ele>188.18900096</ele>
        <time>2014-10-12T11:27:38.860Z</time>
      </trkpt>
      <trkpt lat="45.82022" lon="4.96576">
        <ele>188.98900096</ele>
        <time>2014-10-12T11:27:46.860Z</time>
      </trkpt>
      <trkpt lat="45.82042" lon="4.96609">
        <ele>188.21099904</ele>
        <time>2014-10-12T11:27:54.860Z</time>
      </trkpt>
      <trkpt lat="45.82055" lon="4.96636">
        <ele>188</ele>
        <time>2014-10-12T11:28:02.860Z</time>
      </trkpt>
      <trkpt lat="45.82081" lon="4.96695">
        <ele>189</ele>
        <time>2014-10-12T11:28:17.690Z</time>
      </trkpt>
      <trkpt lat="45.82083" lon="4.96728">
        <ele>189</ele>
        <time>2014-10-12T11:28:25.590Z</time>
      </trkpt>
      <trkpt lat="45.82071" lon="4.96764">
        <ele>189</ele>
        <time>2014-10-12T11:28:33.860Z</time>
      </trkpt>
      <trkpt lat="45.8208" lon="4.96806">
        <ele>189</ele>
        <time>2014-10-12T11:28:41.860Z</time>
      </trkpt>
      <trkpt lat="45.82082" lon="4.96841">
        <ele>189</ele>
        <time>2014-10-12T11:28:49.860Z</time>
      </trkpt>
      <trkpt lat="45.82073" lon="4.96876">
        <ele>189.08899968</ele>
        <time>2014-10-12T11:28:57.860Z</time>
      </trkpt>
      <trkpt lat="45.82066" lon="4.96908">
        <ele>189.88899968</ele>
        <time>2014-10-12T11:29:05.860Z</time>
      </trkpt>
      <trkpt lat="45.82056" lon="4.96946">
        <ele>190</ele>
        <time>2014-10-12T11:29:13.860Z</time>
      </trkpt>
      <trkpt lat="45.82046" lon="4.96986">
        <ele>189.11100032</ele>
        <time>2014-10-12T11:29:25.860Z</time>
      </trkpt>
      <trkpt lat="45.82041" lon="4.97028">
        <ele>189</ele>
        <time>2014-10-12T11:29:34.860Z</time>
      </trkpt>
      <trkpt lat="45.82019" lon="4.97062">
        <ele>189</ele>
        <time>2014-10-12T11:29:42.590Z</time>
      </trkpt>
      <trkpt lat="45.81995" lon="4.97079">
        <ele>189</ele>
        <time>2014-10-12T11:29:50.860Z</time>
      </trkpt>
      <trkpt lat="45.81967" lon="4.97102">
        <ele>189</ele>
        <time>2014-10-12T11:30:02.860Z</time>
      </trkpt>
      <trkpt lat="45.81953" lon="4.97136">
        <ele>189</ele>
        <time>2014-10-12T11:30:10.860Z</time>
      </trkpt>
      <trkpt lat="45.81923" lon="4.97166">
        <ele>189</ele>
        <time>2014-10-12T11:30:20.860Z</time>
      </trkpt>
      <trkpt lat="45.81904" lon="4.97188">
        <ele>189</ele>
        <time>2014-10-12T11:30:28.590Z</time>
      </trkpt>
      <trkpt lat="45.81892" lon="4.97208">
        <ele>189</ele>
        <time>2014-10-12T11:30:36.590Z</time>
      </trkpt>
      <trkpt lat="45.81881" lon="4.97217">
        <ele>189</ele>
        <time>2014-10-12T11:30:44.860Z</time>
      </trkpt>
      <trkpt lat="45.81871" lon="4.97232">
        <ele>189</ele>
        <time>2014-10-12T11:30:52.860Z</time>
      </trkpt>
      <trkpt lat="45.81857" lon="4.97245">
        <ele>189</ele>
        <time>2014-10-12T11:31:00.860Z</time>
      </trkpt>
      <trkpt lat="45.81855" lon="4.97248">
        <ele>189</ele>
        <time>2014-10-12T11:31:27.490Z</time>
      </trkpt>
      <trkpt lat="45.81854" lon="4.97276">
        <ele>189</ele>
        <time>2014-10-12T11:31:35.590Z</time>
      </trkpt>
      <trkpt lat="45.81863" lon="4.97307">
        <ele>189</ele>
        <time>2014-10-12T11:31:43.860Z</time>
      </trkpt>
      <trkpt lat="45.81871" lon="4.97342">
        <ele>189.48899968</ele>
        <time>2014-10-12T11:31:51.860Z</time>
      </trkpt>
      <trkpt lat="45.81874" lon="4.97363">
        <ele>190</ele>
        <time>2014-10-12T11:31:59.860Z</time>
      </trkpt>
      <trkpt lat="45.81857" lon="4.97392">
        <ele>190</ele>
        <time>2014-10-12T11:32:07.860Z</time>
      </trkpt>
      <trkpt lat="45.81839" lon="4.97417">
        <ele>190</ele>
        <time>2014-10-12T11:32:15.860Z</time>
      </trkpt>
      <trkpt lat="45.81819" lon="4.97444">
        <ele>190</ele>
        <time>2014-10-12T11:32:23.860Z</time>
      </trkpt>
      <trkpt lat="45.81804" lon="4.9747">
        <ele>189</ele>
        <time>2014-10-12T11:32:38.690Z</time>
      </trkpt>
      <trkpt lat="45.81792" lon="4.97471">
        <ele>189</ele>
        <time>2014-10-12T11:32:50.590Z</time>
      </trkpt>
      <trkpt lat="45.81772" lon="4.97493">
        <ele>189</ele>
        <time>2014-10-12T11:33:02.860Z</time>
      </trkpt>
      <trkpt lat="45.81781" lon="4.97514">
        <ele>189</ele>
        <time>2014-10-12T11:33:10.860Z</time>
      </trkpt>
      <trkpt lat="45.81791" lon="4.97547">
        <ele>189</ele>
        <time>2014-10-12T11:33:21.860Z</time>
      </trkpt>
      <trkpt lat="45.81791" lon="4.97565">
        <ele>189</ele>
        <time>2014-10-12T11:33:29.590Z</time>
      </trkpt>
      <trkpt lat="45.81793" lon="4.9758">
        <ele>189</ele>
        <time>2014-10-12T11:33:37.590Z</time>
      </trkpt>
      <trkpt lat="45.81788" lon="4.97562">
        <ele>188.828</ele>
        <time>2014-10-12T11:33:48.690Z</time>
      </trkpt>
      <trkpt lat="45.81779" lon="4.9752">
        <ele>188.36200064</ele>
        <time>2014-10-12T11:34:00.590Z</time>
      </trkpt>
      <trkpt lat="45.81765" lon="4.97515">
        <ele>189</ele>
        <time>2014-10-12T11:34:08.860Z</time>
      </trkpt>
      <trkpt lat="45.81741" lon="4.97531">
        <ele>189</ele>
        <time>2014-10-12T11:34:16.860Z</time>
      </trkpt>
      <trkpt lat="45.81724" lon="4.97557">
        <ele>189</ele>
        <time>2014-10-12T11:34:24.860Z</time>
      </trkpt>
      <trkpt lat="45.81713" lon="4.97584">
        <ele>189</ele>
        <time>2014-10-12T11:34:32.860Z</time>
      </trkpt>
      <trkpt lat="45.81715" lon="4.97621">
        <ele>189.38900096</ele>
        <time>2014-10-12T11:34:40.860Z</time>
      </trkpt>
      <trkpt lat="45.8171" lon="4.97655">
        <ele>190</ele>
        <time>2014-10-12T11:34:48.860Z</time>
      </trkpt>
      <trkpt lat="45.81662" lon="4.97748">
        <ele>189.54722537964</ele>
        <time>2014-10-12T11:35:12.590Z</time>
      </trkpt>
      <trkpt lat="45.81647" lon="4.97721">
        <ele>190</ele>
        <time>2014-10-12T11:35:20.860Z</time>
      </trkpt>
      <trkpt lat="45.81639" lon="4.97684">
        <ele>190</ele>
        <time>2014-10-12T11:35:28.860Z</time>
      </trkpt>
      <trkpt lat="45.81633" lon="4.97626">
        <ele>190</ele>
        <time>2014-10-12T11:35:40.860Z</time>
      </trkpt>
      <trkpt lat="45.8163" lon="4.97592">
        <ele>190</ele>
        <time>2014-10-12T11:35:48.860Z</time>
      </trkpt>
      <trkpt lat="45.81615" lon="4.9756">
        <ele>190</ele>
        <time>2014-10-12T11:35:56.860Z</time>
      </trkpt>
      <trkpt lat="45.81598" lon="4.97534">
        <ele>190</ele>
        <time>2014-10-12T11:36:04.860Z</time>
      </trkpt>
      <trkpt lat="45.81582" lon="4.97514">
        <ele>190</ele>
        <time>2014-10-12T11:36:12.860Z</time>
      </trkpt>
      <trkpt lat="45.81562" lon="4.975">
        <ele>190.77800192</ele>
        <time>2014-10-12T11:36:20.860Z</time>
      </trkpt>
      <trkpt lat="45.81535" lon="4.97496">
        <ele>192</ele>
        <time>2014-10-12T11:36:32.860Z</time>
      </trkpt>
      <trkpt lat="45.81535" lon="4.97479">
        <ele>191.22199808</ele>
        <time>2014-10-12T11:36:40.860Z</time>
      </trkpt>
      <trkpt lat="45.81545" lon="4.97495">
        <ele>189.61099904</ele>
        <time>2014-10-12T11:37:00.860Z</time>
      </trkpt>
      <trkpt lat="45.81534" lon="4.97518">
        <ele>189</ele>
        <time>2014-10-12T11:37:12.860Z</time>
      </trkpt>
      <trkpt lat="45.81505" lon="4.97549">
        <ele>189.78900096</ele>
        <time>2014-10-12T11:37:24.860Z</time>
      </trkpt>
      <trkpt lat="45.81479" lon="4.97575">
        <ele>190</ele>
        <time>2014-10-12T11:37:34.860Z</time>
      </trkpt>
      <trkpt lat="45.81462" lon="4.97585">
        <ele>190</ele>
        <time>2014-10-12T11:37:42.590Z</time>
      </trkpt>
      <trkpt lat="45.81439" lon="4.97563">
        <ele>189.61099904</ele>
        <time>2014-10-12T11:37:50.860Z</time>
      </trkpt>
      <trkpt lat="45.81419" lon="4.97544">
        <ele>189</ele>
        <time>2014-10-12T11:37:58.860Z</time>
      </trkpt>
      <trkpt lat="45.814" lon="4.97543">
        <ele>189</ele>
        <time>2014-10-12T11:38:06.860Z</time>
      </trkpt>
      <trkpt lat="45.81387" lon="4.97561">
        <ele>189</ele>
        <time>2014-10-12T11:38:14.860Z</time>
      </trkpt>
      <trkpt lat="45.81365" lon="4.97582">
        <ele>188.41099904</ele>
        <time>2014-10-12T11:38:22.860Z</time>
      </trkpt>
      <trkpt lat="45.81349" lon="4.9761">
        <ele>188</ele>
        <time>2014-10-12T11:38:30.860Z</time>
      </trkpt>
      <trkpt lat="45.8134" lon="4.97637">
        <ele>188</ele>
        <time>2014-10-12T11:38:38.860Z</time>
      </trkpt>
      <trkpt lat="45.81319" lon="4.97664">
        <ele>188</ele>
        <time>2014-10-12T11:38:46.860Z</time>
      </trkpt>
      <trkpt lat="45.81307" lon="4.97682">
        <ele>188</ele>
        <time>2014-10-12T11:38:54.860Z</time>
      </trkpt>
      <trkpt lat="45.81286" lon="4.97695">
        <ele>188.58900096</ele>
        <time>2014-10-12T11:39:02.860Z</time>
      </trkpt>
      <trkpt lat="45.81264" lon="4.97705">
        <ele>189</ele>
        <time>2014-10-12T11:39:10.860Z</time>
      </trkpt>
      <trkpt lat="45.81234" lon="4.9772">
        <ele>189.38900096</ele>
        <time>2014-10-12T11:39:20.860Z</time>
      </trkpt>
      <trkpt lat="45.81198" lon="4.97728">
        <ele>190</ele>
        <time>2014-10-12T11:39:32.590Z</time>
      </trkpt>
      <trkpt lat="45.81184" lon="4.97749">
        <ele>190.38900096</ele>
        <time>2014-10-12T11:39:40.860Z</time>
      </trkpt>
      <trkpt lat="45.81165" lon="4.97789">
        <ele>191</ele>
        <time>2014-10-12T11:39:52.590Z</time>
      </trkpt>
      <trkpt lat="45.81142" lon="4.97807">
        <ele>190.61099904</ele>
        <time>2014-10-12T11:40:00.860Z</time>
      </trkpt>
      <trkpt lat="45.81122" lon="4.97818">
        <ele>190</ele>
        <time>2014-10-12T11:40:08.860Z</time>
      </trkpt>
      <trkpt lat="45.81108" lon="4.97821">
        <ele>190</ele>
        <time>2014-10-12T11:40:13.860Z</time>
      </trkpt>
      <trkpt lat="45.81076" lon="4.97829">
        <ele>190</ele>
        <time>2014-10-12T11:40:25.590Z</time>
      </trkpt>
      <trkpt lat="45.81058" lon="4.97823">
        <ele>190.68899968</ele>
        <time>2014-10-12T11:40:33.860Z</time>
      </trkpt>
      <trkpt lat="45.81043" lon="4.97802">
        <ele>191.97799936</ele>
        <time>2014-10-12T11:40:41.860Z</time>
      </trkpt>
      <trkpt lat="45.81037" lon="4.97763">
        <ele>193.28899968</ele>
        <time>2014-10-12T11:40:49.860Z</time>
      </trkpt>
      <trkpt lat="45.8103" lon="4.9774">
        <ele>194.08899968</ele>
        <time>2014-10-12T11:40:57.860Z</time>
      </trkpt>
      <trkpt lat="45.81036" lon="4.97726">
        <ele>194.88899968</ele>
        <time>2014-10-12T11:41:05.860Z</time>
      </trkpt>
      <trkpt lat="45.81028" lon="4.97704">
        <ele>195</ele>
        <time>2014-10-12T11:41:13.860Z</time>
      </trkpt>
      <trkpt lat="45.81031" lon="4.97727">
        <ele>195</ele>
        <time>2014-10-12T11:41:21.860Z</time>
      </trkpt>
      <trkpt lat="45.81029" lon="4.97767">
        <ele>195</ele>
        <time>2014-10-12T11:41:29.860Z</time>
      </trkpt>
      <trkpt lat="45.81018" lon="4.97797">
        <ele>194.91100032</ele>
        <time>2014-10-12T11:41:37.860Z</time>
      </trkpt>
      <trkpt lat="45.80991" lon="4.97815">
        <ele>193.83104136359</ele>
        <time>2014-10-12T11:41:48.690Z</time>
      </trkpt>
      <trkpt lat="45.80975" lon="4.97833">
        <ele>193.0550097886</ele>
        <time>2014-10-12T11:41:56.590Z</time>
      </trkpt>
      <trkpt lat="45.80971" lon="4.97864">
        <ele>189.85946711819</ele>
        <time>2014-10-12T11:42:04.860Z</time>
      </trkpt>
      <trkpt lat="45.80973" lon="4.97896">
        <ele>189</ele>
        <time>2014-10-12T11:42:12.860Z</time>
      </trkpt>
      <trkpt lat="45.80979" lon="4.97928">
        <ele>188.61099904</ele>
        <time>2014-10-12T11:42:20.860Z</time>
      </trkpt>
      <trkpt lat="45.80986" lon="4.97953">
        <ele>187.828</ele>
        <time>2014-10-12T11:42:28.690Z</time>
      </trkpt>
      <trkpt lat="45.80999" lon="4.97971">
        <ele>187.11799936</ele>
        <time>2014-10-12T11:42:35.790Z</time>
      </trkpt>
      <trkpt lat="45.81015" lon="4.97978">
        <ele>187.78900096</ele>
        <time>2014-10-12T11:42:44.860Z</time>
      </trkpt>
      <trkpt lat="45.81029" lon="4.97986">
        <ele>187.0549952</ele>
        <time>2014-10-12T11:43:00.860Z</time>
      </trkpt>
      <trkpt lat="45.81059" lon="4.98015">
        <ele>184</ele>
        <time>2014-10-12T11:43:08.860Z</time>
      </trkpt>
      <trkpt lat="45.81079" lon="4.98046">
        <ele>184</ele>
        <time>2014-10-12T11:43:16.860Z</time>
      </trkpt>
      <trkpt lat="45.81095" lon="4.9808">
        <ele>184.57742212265</ele>
        <time>2014-10-12T11:43:29.860Z</time>
      </trkpt>
      <trkpt lat="45.81093" lon="4.98125">
        <ele>185.91191194013</ele>
        <time>2014-10-12T11:43:37.860Z</time>
      </trkpt>
      <trkpt lat="45.81063" lon="4.98148">
        <ele>184.71100032</ele>
        <time>2014-10-12T11:43:49.860Z</time>
      </trkpt>
      <trkpt lat="45.81057" lon="4.98184">
        <ele>184.08899968</ele>
        <time>2014-10-12T11:43:57.860Z</time>
      </trkpt>
      <trkpt lat="45.8104" lon="4.98206">
        <ele>184.88899968</ele>
        <time>2014-10-12T11:44:05.860Z</time>
      </trkpt>
      <trkpt lat="45.81033" lon="4.98233">
        <ele>185</ele>
        <time>2014-10-12T11:44:13.860Z</time>
      </trkpt>
      <trkpt lat="45.81023" lon="4.98265">
        <ele>185</ele>
        <time>2014-10-12T11:44:21.860Z</time>
      </trkpt>
      <trkpt lat="45.81023" lon="4.98299">
        <ele>185</ele>
        <time>2014-10-12T11:44:29.860Z</time>
      </trkpt>
      <trkpt lat="45.81012" lon="4.98325">
        <ele>185.08899968</ele>
        <time>2014-10-12T11:44:37.860Z</time>
      </trkpt>
      <trkpt lat="45.80989" lon="4.98347">
        <ele>185.88899968</ele>
        <time>2014-10-12T11:44:45.860Z</time>
      </trkpt>
      <trkpt lat="45.80978" lon="4.98372">
        <ele>186</ele>
        <time>2014-10-12T11:44:53.860Z</time>
      </trkpt>
      <trkpt lat="45.80969" lon="4.98402">
        <ele>186</ele>
        <time>2014-10-12T11:45:01.850Z</time>
      </trkpt>
      <trkpt lat="45.80966" lon="4.98419">
        <ele>186</ele>
        <time>2014-10-12T11:45:09.860Z</time>
      </trkpt>
      <trkpt lat="45.80972" lon="4.98434">
        <ele>185.11100032</ele>
        <time>2014-10-12T11:45:25.860Z</time>
      </trkpt>
      <trkpt lat="45.80983" lon="4.98436">
        <ele>185.68899968</ele>
        <time>2014-10-12T11:45:33.860Z</time>
      </trkpt>
      <trkpt lat="45.80992" lon="4.98419">
        <ele>186.97799936</ele>
        <time>2014-10-12T11:45:41.860Z</time>
      </trkpt>
      <trkpt lat="45.81" lon="4.98384">
        <ele>188.28899968</ele>
        <time>2014-10-12T11:45:49.860Z</time>
      </trkpt>
      <trkpt lat="45.80997" lon="4.98344">
        <ele>188.82200064</ele>
        <time>2014-10-12T11:45:57.860Z</time>
      </trkpt>
      <trkpt lat="45.81016" lon="4.98326">
        <ele>187.22200064</ele>
        <time>2014-10-12T11:46:05.860Z</time>
      </trkpt>
      <trkpt lat="45.81029" lon="4.98313">
        <ele>188.61799936</ele>
        <time>2014-10-12T11:46:15.060Z</time>
      </trkpt>
      <trkpt lat="45.81045" lon="4.98316">
        <ele>189.66200064</ele>
        <time>2014-10-12T11:46:23.590Z</time>
      </trkpt>
      <trkpt lat="45.81064" lon="4.98306">
        <ele>190</ele>
        <time>2014-10-12T11:46:31.860Z</time>
      </trkpt>
      <trkpt lat="45.81087" lon="4.98299">
        <ele>190</ele>
        <time>2014-10-12T11:46:39.860Z</time>
      </trkpt>
      <trkpt lat="45.81103" lon="4.98302">
        <ele>190</ele>
        <time>2014-10-12T11:46:47.860Z</time>
      </trkpt>
      <trkpt lat="45.81138" lon="4.98311">
        <ele>190</ele>
        <time>2014-10-12T11:46:55.860Z</time>
      </trkpt>
      <trkpt lat="45.81159" lon="4.98308">
        <ele>190</ele>
        <time>2014-10-12T11:47:03.860Z</time>
      </trkpt>
      <trkpt lat="45.81173" lon="4.98298">
        <ele>190</ele>
        <time>2014-10-12T11:47:11.860Z</time>
      </trkpt>
      <trkpt lat="45.81194" lon="4.98321">
        <ele>190</ele>
        <time>2014-10-12T11:47:27.860Z</time>
      </trkpt>
      <trkpt lat="45.81199" lon="4.98341">
        <ele>190</ele>
        <time>2014-10-12T11:47:35.860Z</time>
      </trkpt>
      <trkpt lat="45.81201" lon="4.9837">
        <ele>190</ele>
        <time>2014-10-12T11:47:43.860Z</time>
      </trkpt>
      <trkpt lat="45.8119" lon="4.98399">
        <ele>190</ele>
        <time>2014-10-12T11:47:51.860Z</time>
      </trkpt>
      <trkpt lat="45.81198" lon="4.98435">
        <ele>189.31100032</ele>
        <time>2014-10-12T11:48:03.860Z</time>
      </trkpt>
      <trkpt lat="45.81181" lon="4.98466">
        <ele>189</ele>
        <time>2014-10-12T11:48:11.060Z</time>
      </trkpt>
      <trkpt lat="45.81167" lon="4.98496">
        <ele>189</ele>
        <time>2014-10-12T11:48:19.060Z</time>
      </trkpt>
      <trkpt lat="45.81148" lon="4.98525">
        <ele>189</ele>
        <time>2014-10-12T11:48:27.860Z</time>
      </trkpt>
      <trkpt lat="45.81133" lon="4.9855">
        <ele>189</ele>
        <time>2014-10-12T11:48:35.860Z</time>
      </trkpt>
      <trkpt lat="45.81124" lon="4.98571">
        <ele>189.68899968</ele>
        <time>2014-10-12T11:48:43.860Z</time>
      </trkpt>
      <trkpt lat="45.81116" lon="4.98586">
        <ele>190</ele>
        <time>2014-10-12T11:48:51.860Z</time>
      </trkpt>
      <trkpt lat="45.8111" lon="4.98604">
        <ele>190</ele>
        <time>2014-10-12T11:49:11.860Z</time>
      </trkpt>
      <trkpt lat="45.81123" lon="4.98618">
        <ele>190.68899968</ele>
        <time>2014-10-12T11:49:23.860Z</time>
      </trkpt>
      <trkpt lat="45.81131" lon="4.98637">
        <ele>191</ele>
        <time>2014-10-12T11:49:31.860Z</time>
      </trkpt>
      <trkpt lat="45.81142" lon="4.98647">
        <ele>190.71100032</ele>
        <time>2014-10-12T11:49:39.860Z</time>
      </trkpt>
      <trkpt lat="45.81151" lon="4.98674">
        <ele>190.48899968</ele>
        <time>2014-10-12T11:49:51.860Z</time>
      </trkpt>
      <trkpt lat="45.81137" lon="4.98701">
        <ele>191</ele>
        <time>2014-10-12T11:49:59.860Z</time>
      </trkpt>
      <trkpt lat="45.81121" lon="4.9871">
        <ele>191</ele>
        <time>2014-10-12T11:50:07.060Z</time>
      </trkpt>
      <trkpt lat="45.81114" lon="4.98743">
        <ele>190.79100032</ele>
        <time>2014-10-12T11:50:19.060Z</time>
      </trkpt>
      <trkpt lat="45.81143" lon="4.98774">
        <ele>190</ele>
        <time>2014-10-12T11:50:31.060Z</time>
      </trkpt>
      <trkpt lat="45.81165" lon="4.98805">
        <ele>190</ele>
        <time>2014-10-12T11:50:39.060Z</time>
      </trkpt>
      <trkpt lat="45.81178" lon="4.98818">
        <ele>189.91100032</ele>
        <time>2014-10-12T11:50:47.860Z</time>
      </trkpt>
      <trkpt lat="45.81208" lon="4.9883">
        <ele>189.11100032</ele>
        <time>2014-10-12T11:50:55.860Z</time>
      </trkpt>
      <trkpt lat="45.81232" lon="4.98866">
        <ele>190</ele>
        <time>2014-10-12T11:51:07.860Z</time>
      </trkpt>
      <trkpt lat="45.81253" lon="4.98892">
        <ele>190</ele>
        <time>2014-10-12T11:51:15.860Z</time>
      </trkpt>
      <trkpt lat="45.81261" lon="4.98912">
        <ele>190</ele>
        <time>2014-10-12T11:51:23.860Z</time>
      </trkpt>
      <trkpt lat="45.81292" lon="4.98947">
        <ele>190</ele>
        <time>2014-10-12T11:51:36.060Z</time>
      </trkpt>
      <trkpt lat="45.81316" lon="4.98972">
        <ele>190</ele>
        <time>2014-10-12T11:51:44.590Z</time>
      </trkpt>
      <trkpt lat="45.81342" lon="4.99006">
        <ele>190</ele>
        <time>2014-10-12T11:51:57.860Z</time>
      </trkpt>
      <trkpt lat="45.81356" lon="4.99023">
        <ele>190</ele>
        <time>2014-10-12T11:52:05.860Z</time>
      </trkpt>
      <trkpt lat="45.81374" lon="4.99045">
        <ele>190.68899968</ele>
        <time>2014-10-12T11:52:13.860Z</time>
      </trkpt>
      <trkpt lat="45.81395" lon="4.99065">
        <ele>191</ele>
        <time>2014-10-12T11:52:21.860Z</time>
      </trkpt>
      <trkpt lat="45.8141" lon="4.99082">
        <ele>191</ele>
        <time>2014-10-12T11:52:29.590Z</time>
      </trkpt>
      <trkpt lat="45.81434" lon="4.9911">
        <ele>191</ele>
        <time>2014-10-12T11:52:37.860Z</time>
      </trkpt>
      <trkpt lat="45.81446" lon="4.99135">
        <ele>191</ele>
        <time>2014-10-12T11:52:45.860Z</time>
      </trkpt>
      <trkpt lat="45.81462" lon="4.99147">
        <ele>190.31100032</ele>
        <time>2014-10-12T11:52:53.860Z</time>
      </trkpt>
      <trkpt lat="45.8148" lon="4.99165">
        <ele>190</ele>
        <time>2014-10-12T11:53:01.860Z</time>
      </trkpt>
      <trkpt lat="45.815" lon="4.99186">
        <ele>190.28899968</ele>
        <time>2014-10-12T11:53:09.860Z</time>
      </trkpt>
      <trkpt lat="45.8152" lon="4.99207">
        <ele>191</ele>
        <time>2014-10-12T11:53:17.860Z</time>
      </trkpt>
      <trkpt lat="45.81535" lon="4.9923">
        <ele>191</ele>
        <time>2014-10-12T11:53:29.860Z</time>
      </trkpt>
      <trkpt lat="45.81551" lon="4.99228">
        <ele>191</ele>
        <time>2014-10-12T11:53:37.860Z</time>
      </trkpt>
      <trkpt lat="45.81566" lon="4.99216">
        <ele>191</ele>
        <time>2014-10-12T11:53:49.860Z</time>
      </trkpt>
      <trkpt lat="45.81577" lon="4.99211">
        <ele>191</ele>
        <time>2014-10-12T11:53:57.860Z</time>
      </trkpt>
      <trkpt lat="45.81592" lon="4.99206">
        <ele>191</ele>
        <time>2014-10-12T11:54:05.860Z</time>
      </trkpt>
      <trkpt lat="45.81607" lon="4.99183">
        <ele>191</ele>
        <time>2014-10-12T11:54:21.860Z</time>
      </trkpt>
      <trkpt lat="45.81595" lon="4.99158">
        <ele>191</ele>
        <time>2014-10-12T11:54:29.860Z</time>
      </trkpt>
      <trkpt lat="45.81589" lon="4.99136">
        <ele>191</ele>
        <time>2014-10-12T11:54:35.060Z</time>
      </trkpt>
      <trkpt lat="45.81576" lon="4.991">
        <ele>191.86113977579</ele>
        <time>2014-10-12T11:54:45.590Z</time>
      </trkpt>
      <trkpt lat="45.81562" lon="4.99056">
        <ele>192</ele>
        <time>2014-10-12T11:54:57.860Z</time>
      </trkpt>
      <trkpt lat="45.81555" lon="4.99018">
        <ele>192</ele>
        <time>2014-10-12T11:55:05.860Z</time>
      </trkpt>
      <trkpt lat="45.81544" lon="4.9898">
        <ele>192</ele>
        <time>2014-10-12T11:55:16.980Z</time>
      </trkpt>
      <trkpt lat="45.81539" lon="4.98946">
        <ele>192</ele>
        <time>2014-10-12T11:55:25.590Z</time>
      </trkpt>
      <trkpt lat="45.81527" lon="4.98908">
        <ele>192</ele>
        <time>2014-10-12T11:55:35.060Z</time>
      </trkpt>
      <trkpt lat="45.81518" lon="4.98877">
        <ele>191.41799936</ele>
        <time>2014-10-12T11:55:42.790Z</time>
      </trkpt>
      <trkpt lat="45.81512" lon="4.98836">
        <ele>191.48899968</ele>
        <time>2014-10-12T11:55:51.860Z</time>
      </trkpt>
      <trkpt lat="45.81508" lon="4.98803">
        <ele>191.63799936</ele>
        <time>2014-10-12T11:56:00.590Z</time>
      </trkpt>
      <trkpt lat="45.815" lon="4.98769">
        <ele>191.18900096</ele>
        <time>2014-10-12T11:56:08.860Z</time>
      </trkpt>
      <trkpt lat="45.81499" lon="4.98747">
        <ele>191.90900096</ele>
        <time>2014-10-12T11:56:16.060Z</time>
      </trkpt>
      <trkpt lat="45.81489" lon="4.98693">
        <ele>191.81099904</ele>
        <time>2014-10-12T11:56:28.860Z</time>
      </trkpt>
      <trkpt lat="45.81481" lon="4.98659">
        <ele>191</ele>
        <time>2014-10-12T11:56:37.060Z</time>
      </trkpt>
      <trkpt lat="45.81479" lon="4.98618">
        <ele>191</ele>
        <time>2014-10-12T11:56:47.690Z</time>
      </trkpt>
      <trkpt lat="45.81476" lon="4.98579">
        <ele>191</ele>
        <time>2014-10-12T11:56:57.690Z</time>
      </trkpt>
      <trkpt lat="45.81463" lon="4.98558">
        <ele>191</ele>
        <time>2014-10-12T11:57:05.590Z</time>
      </trkpt>
      <trkpt lat="45.81451" lon="4.98538">
        <ele>191</ele>
        <time>2014-10-12T11:57:13.860Z</time>
      </trkpt>
      <trkpt lat="45.81472" lon="4.98525">
        <ele>191</ele>
        <time>2014-10-12T11:57:25.860Z</time>
      </trkpt>
      <trkpt lat="45.81459" lon="4.98521">
        <ele>191</ele>
        <time>2014-10-12T11:57:49.590Z</time>
      </trkpt>
      <trkpt lat="45.81455" lon="4.98496">
        <ele>191.08899968</ele>
        <time>2014-10-12T11:57:57.860Z</time>
      </trkpt>
      <trkpt lat="45.81468" lon="4.98488">
        <ele>191.88899968</ele>
        <time>2014-10-12T11:58:05.860Z</time>
      </trkpt>
      <trkpt lat="45.81482" lon="4.98449">
        <ele>192</ele>
        <time>2014-10-12T11:58:18.060Z</time>
      </trkpt>
      <trkpt lat="45.81478" lon="4.98415">
        <ele>192</ele>
        <time>2014-10-12T11:58:26.860Z</time>
      </trkpt>
      <trkpt lat="45.81476" lon="4.98396">
        <ele>192.49900032</ele>
        <time>2014-10-12T11:58:31.960Z</time>
      </trkpt>
      <trkpt lat="45.81488" lon="4.98367">
        <ele>193</ele>
        <time>2014-10-12T11:58:40.790Z</time>
      </trkpt>
      <trkpt lat="45.8149" lon="4.98312">
        <ele>192.31100032</ele>
        <time>2014-10-12T11:58:53.860Z</time>
      </trkpt>
      <trkpt lat="45.81493" lon="4.98277">
        <ele>192.46200064</ele>
        <time>2014-10-12T11:59:01.590Z</time>
      </trkpt>
      <trkpt lat="45.81505" lon="4.98248">
        <ele>193</ele>
        <time>2014-10-12T11:59:11.060Z</time>
      </trkpt>
      <trkpt lat="45.81507" lon="4.98214">
        <ele>192.71799936</ele>
        <time>2014-10-12T11:59:19.790Z</time>
      </trkpt>
      <trkpt lat="45.81513" lon="4.98178">
        <ele>192</ele>
        <time>2014-10-12T11:59:28.860Z</time>
      </trkpt>
      <trkpt lat="45.81529" lon="4.98148">
        <ele>192</ele>
        <time>2014-10-12T11:59:36.860Z</time>
      </trkpt>
      <trkpt lat="45.8153" lon="4.98114">
        <ele>192</ele>
        <time>2014-10-12T11:59:44.060Z</time>
      </trkpt>
      <trkpt lat="45.81539" lon="4.9808">
        <ele>192.58900096</ele>
        <time>2014-10-12T11:59:52.860Z</time>
      </trkpt>
      <trkpt lat="45.81548" lon="4.98046">
        <ele>192.61099904</ele>
        <time>2014-10-12T12:00:00.860Z</time>
      </trkpt>
      <trkpt lat="45.81566" lon="4.98002">
        <ele>192</ele>
        <time>2014-10-12T12:00:12.860Z</time>
      </trkpt>
      <trkpt lat="45.81585" lon="4.97979">
        <ele>191.61099904</ele>
        <time>2014-10-12T12:00:20.860Z</time>
      </trkpt>
      <trkpt lat="45.81599" lon="4.97951">
        <ele>191</ele>
        <time>2014-10-12T12:00:28.860Z</time>
      </trkpt>
      <trkpt lat="45.81611" lon="4.97921">
        <ele>191</ele>
        <time>2014-10-12T12:00:36.860Z</time>
      </trkpt>
      <trkpt lat="45.81625" lon="4.97899">
        <ele>191</ele>
        <time>2014-10-12T12:00:44.860Z</time>
      </trkpt>
      <trkpt lat="45.81633" lon="4.97869">
        <ele>191.58900096</ele>
        <time>2014-10-12T12:00:52.860Z</time>
      </trkpt>
      <trkpt lat="45.8164" lon="4.97851">
        <ele>192</ele>
        <time>2014-10-12T12:00:57.690Z</time>
      </trkpt>
      <trkpt lat="45.81647" lon="4.97832">
        <ele>192</ele>
        <time>2014-10-12T12:01:06.590Z</time>
      </trkpt>
      <trkpt lat="45.81629" lon="4.97804">
        <ele>191.81099904</ele>
        <time>2014-10-12T12:01:18.860Z</time>
      </trkpt>
      <trkpt lat="45.81632" lon="4.97787">
        <ele>190.61099904</ele>
        <time>2014-10-12T12:01:30.860Z</time>
      </trkpt>
      <trkpt lat="45.81648" lon="4.97787">
        <ele>190</ele>
        <time>2014-10-12T12:02:29.790Z</time>
      </trkpt>
      <trkpt lat="45.81657" lon="4.9778">
        <ele>190</ele>
        <time>2014-10-12T12:02:43.590Z</time>
      </trkpt>
      <trkpt lat="45.81666" lon="4.97757">
        <ele>191</ele>
        <time>2014-10-12T12:03:03.870Z</time>
      </trkpt>
      <trkpt lat="45.81676" lon="4.97737">
        <ele>191</ele>
        <time>2014-10-12T12:03:11.860Z</time>
      </trkpt>
      <trkpt lat="45.81652" lon="4.977">
        <ele>191</ele>
        <time>2014-10-12T12:03:19.860Z</time>
      </trkpt>
      <trkpt lat="45.81632" lon="4.977">
        <ele>191.88899968</ele>
        <time>2014-10-12T12:03:35.860Z</time>
      </trkpt>
      <trkpt lat="45.81593" lon="4.97705">
        <ele>192</ele>
        <time>2014-10-12T12:03:43.860Z</time>
      </trkpt>
      <trkpt lat="45.81559" lon="4.97683">
        <ele>191.51100032</ele>
        <time>2014-10-12T12:03:51.860Z</time>
      </trkpt>
      <trkpt lat="45.81511" lon="4.97629">
        <ele>191.57799936</ele>
        <time>2014-10-12T12:03:59.860Z</time>
      </trkpt>
      <trkpt lat="45.81471" lon="4.97587">
        <ele>192.91100032</ele>
        <time>2014-10-12T12:04:07.860Z</time>
      </trkpt>
      <trkpt lat="45.81429" lon="4.97535">
        <ele>192.11100032</ele>
        <time>2014-10-12T12:04:15.860Z</time>
      </trkpt>
      <trkpt lat="45.81398" lon="4.97478">
        <ele>191.31100032</ele>
        <time>2014-10-12T12:04:23.860Z</time>
      </trkpt>
      <trkpt lat="45.81376" lon="4.97407">
        <ele>190.51100032</ele>
        <time>2014-10-12T12:04:31.860Z</time>
      </trkpt>
      <trkpt lat="45.81354" lon="4.97332">
        <ele>189.71100032</ele>
        <time>2014-10-12T12:04:39.860Z</time>
      </trkpt>
      <trkpt lat="45.8132" lon="4.97265">
        <ele>189</ele>
        <time>2014-10-12T12:04:47.860Z</time>
      </trkpt>
      <trkpt lat="45.81285" lon="4.972">
        <ele>189</ele>
        <time>2014-10-12T12:04:55.860Z</time>
      </trkpt>
      <trkpt lat="45.81252" lon="4.97134">
        <ele>187.62200064</ele>
        <time>2014-10-12T12:05:03.860Z</time>
      </trkpt>
      <trkpt lat="45.81226" lon="4.97076">
        <ele>187</ele>
        <time>2014-10-12T12:05:11.860Z</time>
      </trkpt>
      <trkpt lat="45.81203" lon="4.97021">
        <ele>187</ele>
        <time>2014-10-12T12:05:19.860Z</time>
      </trkpt>
      <trkpt lat="45.81183" lon="4.96973">
        <ele>187.08808805987</ele>
        <time>2014-10-12T12:05:27.860Z</time>
      </trkpt>
      <trkpt lat="45.81154" lon="4.96967">
        <ele>187.88888860416</ele>
        <time>2014-10-12T12:05:35.860Z</time>
      </trkpt>
      <trkpt lat="45.81116" lon="4.97012">
        <ele>188</ele>
        <time>2014-10-12T12:05:43.590Z</time>
      </trkpt>
      <trkpt lat="45.81089" lon="4.97064">
        <ele>188</ele>
        <time>2014-10-12T12:05:51.860Z</time>
      </trkpt>
      <trkpt lat="45.8106" lon="4.97108">
        <ele>188.57799936</ele>
        <time>2014-10-12T12:05:59.860Z</time>
      </trkpt>
      <trkpt lat="45.81023" lon="4.97139">
        <ele>190</ele>
        <time>2014-10-12T12:06:07.860Z</time>
      </trkpt>
      <trkpt lat="45.80974" lon="4.97154">
        <ele>190</ele>
        <time>2014-10-12T12:06:15.860Z</time>
      </trkpt>
      <trkpt lat="45.80921" lon="4.97164">
        <ele>190</ele>
        <time>2014-10-12T12:06:23.860Z</time>
      </trkpt>
      <trkpt lat="45.80866" lon="4.97139">
        <ele>189.51100032</ele>
        <time>2014-10-12T12:06:31.860Z</time>
      </trkpt>
      <trkpt lat="45.80823" lon="4.97131">
        <ele>189</ele>
        <time>2014-10-12T12:06:39.860Z</time>
      </trkpt>
      <trkpt lat="45.80777" lon="4.97112">
        <ele>188.91100032</ele>
        <time>2014-10-12T12:06:47.860Z</time>
      </trkpt>
      <trkpt lat="45.80731" lon="4.97106">
        <ele>188.11100032</ele>
        <time>2014-10-12T12:06:55.860Z</time>
      </trkpt>
      <trkpt lat="45.80695" lon="4.97169">
        <ele>186.62200064</ele>
        <time>2014-10-12T12:07:03.860Z</time>
      </trkpt>
      <trkpt lat="45.80668" lon="4.97235">
        <ele>186.488511325</ele>
        <time>2014-10-12T12:07:11.860Z</time>
      </trkpt>
      <trkpt lat="45.80625" lon="4.97274">
        <ele>187</ele>
        <time>2014-10-12T12:07:19.860Z</time>
      </trkpt>
      <trkpt lat="45.80577" lon="4.97259">
        <ele>187</ele>
        <time>2014-10-12T12:07:27.860Z</time>
      </trkpt>
      <trkpt lat="45.80526" lon="4.97232">
        <ele>187</ele>
        <time>2014-10-12T12:07:35.860Z</time>
      </trkpt>
      <trkpt lat="45.80477" lon="4.97203">
        <ele>186.31100032</ele>
        <time>2014-10-12T12:07:43.860Z</time>
      </trkpt>
      <trkpt lat="45.8043" lon="4.97175">
        <ele>185.51100032</ele>
        <time>2014-10-12T12:07:51.860Z</time>
      </trkpt>
      <trkpt lat="45.80383" lon="4.97149">
        <ele>184.71100032</ele>
        <time>2014-10-12T12:07:59.860Z</time>
      </trkpt>
      <trkpt lat="45.80333" lon="4.9713">
        <ele>184.17799936</ele>
        <time>2014-10-12T12:08:07.860Z</time>
      </trkpt>
      <trkpt lat="45.80287" lon="4.97104">
        <ele>185.77799936</ele>
        <time>2014-10-12T12:08:15.860Z</time>
      </trkpt>
      <trkpt lat="45.80249" lon="4.97062">
        <ele>187.37799936</ele>
        <time>2014-10-12T12:08:23.860Z</time>
      </trkpt>
      <trkpt lat="45.80244" lon="4.97009">
        <ele>188</ele>
        <time>2014-10-12T12:08:31.860Z</time>
      </trkpt>
      <trkpt lat="45.80267" lon="4.96959">
        <ele>188</ele>
        <time>2014-10-12T12:08:39.860Z</time>
      </trkpt>
      <trkpt lat="45.80283" lon="4.96898">
        <ele>188</ele>
        <time>2014-10-12T12:08:47.860Z</time>
      </trkpt>
      <trkpt lat="45.80295" lon="4.96825">
        <ele>188</ele>
        <time>2014-10-12T12:08:55.860Z</time>
      </trkpt>
      <trkpt lat="45.80314" lon="4.96768">
        <ele>187.31100032</ele>
        <time>2014-10-12T12:09:03.860Z</time>
      </trkpt>
      <trkpt lat="45.80357" lon="4.96716">
        <ele>187</ele>
        <time>2014-10-12T12:09:12.860Z</time>
      </trkpt>
      <trkpt lat="45.80397" lon="4.96666">
        <ele>187.38900096</ele>
        <time>2014-10-12T12:09:20.860Z</time>
      </trkpt>
      <trkpt lat="45.80424" lon="4.96625">
        <ele>188</ele>
        <time>2014-10-12T12:09:28.860Z</time>
      </trkpt>
      <trkpt lat="45.80433" lon="4.96566">
        <ele>188</ele>
        <time>2014-10-12T12:09:36.860Z</time>
      </trkpt>
      <trkpt lat="45.80417" lon="4.965">
        <ele>188</ele>
        <time>2014-10-12T12:09:44.860Z</time>
      </trkpt>
      <trkpt lat="45.80391" lon="4.96434">
        <ele>188</ele>
        <time>2014-10-12T12:09:52.860Z</time>
      </trkpt>
      <trkpt lat="45.804" lon="4.96374">
        <ele>189.16700288</ele>
        <time>2014-10-12T12:10:00.860Z</time>
      </trkpt>
      <trkpt lat="45.80401" lon="4.96325">
        <ele>191</ele>
        <time>2014-10-12T12:10:08.860Z</time>
      </trkpt>
      <trkpt lat="45.80365" lon="4.96303">
        <ele>191</ele>
        <time>2014-10-12T12:10:16.060Z</time>
      </trkpt>
      <trkpt lat="45.80311" lon="4.96301">
        <ele>190.29099904</ele>
        <time>2014-10-12T12:10:24.060Z</time>
      </trkpt>
      <trkpt lat="45.80259" lon="4.96269">
        <ele>189.49099904</ele>
        <time>2014-10-12T12:10:32.060Z</time>
      </trkpt>
      <trkpt lat="45.8025" lon="4.96198">
        <ele>188.69099904</ele>
        <time>2014-10-12T12:10:40.060Z</time>
      </trkpt>
      <trkpt lat="45.8022" lon="4.96157">
        <ele>187.89099904</ele>
        <time>2014-10-12T12:10:48.060Z</time>
      </trkpt>
      <trkpt lat="45.80166" lon="4.96134">
        <ele>187.09099904</ele>
        <time>2014-10-12T12:10:56.060Z</time>
      </trkpt>
      <trkpt lat="45.80119" lon="4.96126">
        <ele>187</ele>
        <time>2014-10-12T12:11:04.060Z</time>
      </trkpt>
      <trkpt lat="45.80073" lon="4.9612">
        <ele>186.49099904</ele>
        <time>2014-10-12T12:11:12.060Z</time>
      </trkpt>
      <trkpt lat="45.80022" lon="4.96072">
        <ele>185.61099904</ele>
        <time>2014-10-12T12:11:20.860Z</time>
      </trkpt>
      <trkpt lat="45.79973" lon="4.96108">
        <ele>184.81099904</ele>
        <time>2014-10-12T12:11:28.860Z</time>
      </trkpt>
      <trkpt lat="45.79935" lon="4.96084">
        <ele>184.01099904</ele>
        <time>2014-10-12T12:11:36.860Z</time>
      </trkpt>
      <trkpt lat="45.79895" lon="4.9608">
        <ele>184</ele>
        <time>2014-10-12T12:11:44.860Z</time>
      </trkpt>
      <trkpt lat="45.79865" lon="4.96075">
        <ele>185.17800192</ele>
        <time>2014-10-12T12:11:52.860Z</time>
      </trkpt>
      <trkpt lat="45.79861" lon="4.96036">
        <ele>186.38900096</ele>
        <time>2014-10-12T12:12:00.860Z</time>
      </trkpt>
      <trkpt lat="45.7983" lon="4.96009">
        <ele>186.81099904</ele>
        <time>2014-10-12T12:12:08.860Z</time>
      </trkpt>
      <trkpt lat="45.79798" lon="4.96008">
        <ele>186.01099904</ele>
        <time>2014-10-12T12:12:16.860Z</time>
      </trkpt>
      <trkpt lat="45.79775" lon="4.96024">
        <ele>186</ele>
        <time>2014-10-12T12:12:25.060Z</time>
      </trkpt>
      <trkpt lat="45.79754" lon="4.96022">
        <ele>186</ele>
        <time>2014-10-12T12:12:33.590Z</time>
      </trkpt>
      <trkpt lat="45.79734" lon="4.95975">
        <ele>186</ele>
        <time>2014-10-12T12:12:41.860Z</time>
      </trkpt>
      <trkpt lat="45.79738" lon="4.95939">
        <ele>186</ele>
        <time>2014-10-12T12:13:01.790Z</time>
      </trkpt>
      <trkpt lat="45.79749" lon="4.95885">
        <ele>186</ele>
        <time>2014-10-12T12:13:10.860Z</time>
      </trkpt>
      <trkpt lat="45.7976" lon="4.95825">
        <ele>186</ele>
        <time>2014-10-12T12:13:18.860Z</time>
      </trkpt>
      <trkpt lat="45.79772" lon="4.95765">
        <ele>186</ele>
        <time>2014-10-12T12:13:26.860Z</time>
      </trkpt>
      <trkpt lat="45.79798" lon="4.95744">
        <ele>186</ele>
        <time>2014-10-12T12:13:34.860Z</time>
      </trkpt>
      <trkpt lat="45.79826" lon="4.95724">
        <ele>186</ele>
        <time>2014-10-12T12:13:42.860Z</time>
      </trkpt>
      <trkpt lat="45.79848" lon="4.95701">
        <ele>186</ele>
        <time>2014-10-12T12:13:50.860Z</time>
      </trkpt>
      <trkpt lat="45.79845" lon="4.95653">
        <ele>186.18900096</ele>
        <time>2014-10-12T12:13:58.860Z</time>
      </trkpt>
      <trkpt lat="45.79856" lon="4.9559">
        <ele>186.98900096</ele>
        <time>2014-10-12T12:14:06.860Z</time>
      </trkpt>
      <trkpt lat="45.79855" lon="4.9552">
        <ele>187</ele>
        <time>2014-10-12T12:14:14.860Z</time>
      </trkpt>
      <trkpt lat="45.79848" lon="4.95445">
        <ele>187</ele>
        <time>2014-10-12T12:14:22.860Z</time>
      </trkpt>
      <trkpt lat="45.79844" lon="4.9537">
        <ele>186.61099904</ele>
        <time>2014-10-12T12:14:30.860Z</time>
      </trkpt>
      <trkpt lat="45.79844" lon="4.95297">
        <ele>186.18900096</ele>
        <time>2014-10-12T12:14:38.860Z</time>
      </trkpt>
      <trkpt lat="45.79844" lon="4.95229">
        <ele>186.98900096</ele>
        <time>2014-10-12T12:14:46.860Z</time>
      </trkpt>
      <trkpt lat="45.79837" lon="4.95157">
        <ele>187</ele>
        <time>2014-10-12T12:14:54.860Z</time>
      </trkpt>
      <trkpt lat="45.79828" lon="4.95096">
        <ele>186.41099904</ele>
        <time>2014-10-12T12:15:02.860Z</time>
      </trkpt>
      <trkpt lat="45.79844" lon="4.95034">
        <ele>185.61099904</ele>
        <time>2014-10-12T12:15:10.860Z</time>
      </trkpt>
      <trkpt lat="45.79862" lon="4.94968">
        <ele>185</ele>
        <time>2014-10-12T12:15:18.860Z</time>
      </trkpt>
      <trkpt lat="45.79883" lon="4.94939">
        <ele>185</ele>
        <time>2014-10-12T12:15:26.860Z</time>
      </trkpt>
      <trkpt lat="45.7991" lon="4.94917">
        <ele>185.78900096</ele>
        <time>2014-10-12T12:15:34.860Z</time>
      </trkpt>
      <trkpt lat="45.79941" lon="4.94876">
        <ele>186</ele>
        <time>2014-10-12T12:15:42.860Z</time>
      </trkpt>
      <trkpt lat="45.79949" lon="4.94852">
        <ele>186</ele>
        <time>2014-10-12T12:15:50.860Z</time>
      </trkpt>
      <trkpt lat="45.79942" lon="4.94837">
        <ele>185.58200064</ele>
        <time>2014-10-12T12:16:12.790Z</time>
      </trkpt>
      <trkpt lat="45.79949" lon="4.94808">
        <ele>186</ele>
        <time>2014-10-12T12:16:21.060Z</time>
      </trkpt>
      <trkpt lat="45.79955" lon="4.94751">
        <ele>186</ele>
        <time>2014-10-12T12:16:29.060Z</time>
      </trkpt>
      <trkpt lat="45.7997" lon="4.94686">
        <ele>186</ele>
        <time>2014-10-12T12:16:37.060Z</time>
      </trkpt>
      <trkpt lat="45.79981" lon="4.94628">
        <ele>186</ele>
        <time>2014-10-12T12:16:45.060Z</time>
      </trkpt>
      <trkpt lat="45.79981" lon="4.94561">
        <ele>186</ele>
        <time>2014-10-12T12:16:53.060Z</time>
      </trkpt>
      <trkpt lat="45.79997" lon="4.94514">
        <ele>186</ele>
        <time>2014-10-12T12:17:01.060Z</time>
      </trkpt>
      <trkpt lat="45.80012" lon="4.9451">
        <ele>186</ele>
        <time>2014-10-12T12:17:09.060Z</time>
      </trkpt>
      <trkpt lat="45.80032" lon="4.94519">
        <ele>186.01799936</ele>
        <time>2014-10-12T12:17:17.060Z</time>
      </trkpt>
      <trkpt lat="45.80051" lon="4.94519">
        <ele>187.61799936</ele>
        <time>2014-10-12T12:17:25.060Z</time>
      </trkpt>
      <trkpt lat="45.80069" lon="4.94516">
        <ele>189.21799936</ele>
        <time>2014-10-12T12:17:33.060Z</time>
      </trkpt>
      <trkpt lat="45.80094" lon="4.9451">
        <ele>190.40899968</ele>
        <time>2014-10-12T12:17:41.060Z</time>
      </trkpt>
      <trkpt lat="45.80111" lon="4.94477">
        <ele>191</ele>
        <time>2014-10-12T12:17:49.060Z</time>
      </trkpt>
      <trkpt lat="45.80113" lon="4.94437">
        <ele>191</ele>
        <time>2014-10-12T12:17:57.060Z</time>
      </trkpt>
      <trkpt lat="45.80108" lon="4.94392">
        <ele>191</ele>
        <time>2014-10-12T12:18:05.060Z</time>
      </trkpt>
      <trkpt lat="45.80108" lon="4.94347">
        <ele>189.60199936</ele>
        <time>2014-10-12T12:18:13.960Z</time>
      </trkpt>
      <trkpt lat="45.80084" lon="4.94313">
        <ele>187.00399872</ele>
        <time>2014-10-12T12:18:21.960Z</time>
      </trkpt>
      <trkpt lat="45.80037" lon="4.94282">
        <ele>184.70099968</ele>
        <time>2014-10-12T12:18:29.960Z</time>
      </trkpt>
      <trkpt lat="45.79994" lon="4.94247">
        <ele>184</ele>
        <time>2014-10-12T12:18:37.960Z</time>
      </trkpt>
      <trkpt lat="45.79977" lon="4.94209">
        <ele>184</ele>
        <time>2014-10-12T12:18:45.160Z</time>
      </trkpt>
      <trkpt lat="45.79976" lon="4.94172">
        <ele>184.69900032</ele>
        <time>2014-10-12T12:18:53.960Z</time>
      </trkpt>
      <trkpt lat="45.79987" lon="4.94138">
        <ele>185.49900032</ele>
        <time>2014-10-12T12:19:01.960Z</time>
      </trkpt>
      <trkpt lat="45.80008" lon="4.94112">
        <ele>186</ele>
        <time>2014-10-12T12:19:09.960Z</time>
      </trkpt>
      <trkpt lat="45.80038" lon="4.94112">
        <ele>186</ele>
        <time>2014-10-12T12:19:17.960Z</time>
      </trkpt>
      <trkpt lat="45.80038" lon="4.94099">
        <ele>186.09900032</ele>
        <time>2014-10-12T12:19:37.960Z</time>
      </trkpt>
      <trkpt lat="45.80044" lon="4.94081">
        <ele>186.81900032</ele>
        <time>2014-10-12T12:19:45.160Z</time>
      </trkpt>
      <trkpt lat="45.80053" lon="4.94064">
        <ele>187.69900032</ele>
        <time>2014-10-12T12:19:53.960Z</time>
      </trkpt>
      <trkpt lat="45.80052" lon="4.94058">
        <ele>187.59100032</ele>
        <time>2014-10-12T12:20:01.060Z</time>
      </trkpt>
      <trkpt lat="45.80062" lon="4.94061">
        <ele>188</ele>
        <time>2014-10-12T12:20:29.860Z</time>
      </trkpt>
      <trkpt lat="45.80052" lon="4.94068">
        <ele>187</ele>
        <time>2014-10-12T12:21:57.860Z</time>
      </trkpt>
    </trkseg>
  </trk>
</gpx>